GFSMA_con_mlcape_000.txt.gz
CAPE
1406 1500 1409 1364 1263 1286 1127 1062 1111 1139 1060 797 693 334 122 117 311 213 342 966 718 759 1323 1471 1193 1359 1240 1020 1390 1165 1057 809 655 575 681 767 708 668 519 321 351 783 693
1202 1191 1152 1057 1181 1282 1009 1018 1181 1053 857 539 180 172 93 33 84 275 168 399 952 552 761 1292 1448 1219 1346 1359 841 1186 1536 1202 1107 999 943 1112 939 831 341 104 238 387 385
1217 1087 1167 987 1061 1189 1413 1123 1176 953 459 278 111 47 130 118 115 224 244 128 431 1229 658 787 1168 1056 1018 1444 1432 1143 731 1048 1463 1239 939 603 608 776 807 672 370 313 411
1414 1305 1185 993 962 967 1081 995 870 470 268 161 34 78 110 56 110 176 181 237 47 77 941 859 871 887 993 1087 1281 1103 1094 837 999 966 1227 882 629 564 967 957 783 852 682
1149 1307 1071 1045 1155 926 933 679 522 333 81 15 15 13 81 48 60 46 251 446 509 323 112 937 688 820 950 1273 1279 1190 1172 947 831 833 854 1075 1062 781 561 664 554 509 534
1265 1291 1115 1030 1066 867 711 655 446 116 140 11 5 8 82 29 45 56 50 22 63 375 632 1265 974 1009 959 936 978 1113 1153 977 916 806 757 883 891 1067 1014 932 968 698 453
1542 1477 1045 1115 1175 1046 599 314 75 21 2 31 2 13 43 51 35 6 1 0 0 0 105 689 903 1000 1184 865 811 947 1086 1275 1164 1147 839 804 797 850 987 1124 1173 1092 907
1713 1478 1339 1248 1267 276 451 111 20 3 11 20 17 7 11 57 48 34 0 0 0 0 0 21 265 570 653 798 426 479 355 505 762 1006 1270 1214 874 681 671 787 919 1003 1065
2100 1964 1825 1156 986 110 1 35 17 8 4 131 115 4 7 12 10 40 33 0 0 0 0 0 0 0 0 0 2 0 0 0 44 270 595 768 876 925 838 682 664 716 810
2026 1910 1678 1265 168 0 0 17 5 1 17 14 13 10 16 24 19 23 30 6 0 0 0 0 0 0 0 0 0 0 0 0 0 0 0 5 70 353 681 776 854 808 710
1985 1242 1630 504 92 0 69 23 2 11 13 6 10 24 27 12 0 2 0 10 10 6 0 0 0 0 0 0 0 0 0 0 0 0 0 0 0 0 5 238 613 610 748
1166 1304 1536 517 42 0 48 15 0 2 0 0 22 36 12 9 15 6 2 1 5 4 3 0 0 0 0 0 0 0 0 0 0 0 0 0 0 0 0 0 1 196 502
437 814 1546 563 99 137 35 0 0 2 1 4 14 23 33 31 37 26 22 17 22 26 17 10 15 0 0 0 0 0 0 0 0 0 0 0 0 0 0 0 0 0 6
164 266 1318 469 169 99 69 0 0 1 12 11 9 26 31 40 38 44 32 44 27 20 32 55 32 7 2 0 0 0 0 0 0 0 0 0 0 0 0 0 0 0 0
243 685 715 383 106 127 19 0 0 1 0 0 2 11 30 19 31 44 57 42 25 6 1 8 16 25 7 22 8 0 0 0 0 0 0 0 0 0 0 0 0 0 0
954 574 435 146 84 90 21 20 0 0 0 0 0 0 2 9 42 56 53 41 25 10 1 5 0 9 17 4 42 0 14 0 0 0 0 0 0 0 0 0 0 0 0
895 582 444 109 109 73 26 20 12 0 0 0 0 0 24 101 55 37 44 20 30 23 17 0 2 5 13 34 29 78 38 13 6 0 0 0 0 0 0 0 0 0 0
418 358 268 174 64 45 43 70 18 0 0 0 0 5 92 99 94 81 85 80 72 59 55 16 0 4 16 7 30 51 50 38 27 13 0 0 0 0 0 0 0 0 0
0 8 0 3 81 83 41 92 135 80 2 0 6 62 94 130 73 84 89 36 71 68 67 61 52 49 18 7 27 42 65 29 21 23 7 0 0 0 0 0 0 0 0
0 0 0 0 18 190 109 157 163 156 27 22 100 184 236 283 125 109 79 105 128 96 84 45 77 41 36 29 39 39 30 41 23 42 25 3 0 0 0 0 0 0 0
0 0 0 0 0 186 114 173 158 96 95 160 219 314 366 480 192 129 69 43 79 32 60 52 58 52 18 25 60 42 34 54 31 76 29 7 0 1 0 0 0 0 0
0 0 0 0 0 33 8 5 74 137 191 331 404 495 431 246 330 111 27 0 0 0 23 7 17 5 3 89 73 39 48 33 32 53 13 1 13 11 6 0 0 0 0
0 0 0 0 0 17 12 14 37 80 160 291 595 349 235 147 179 257 162 47 0 0 0 35 99 83 103 50 54 29 43 38 2 0 7 11 20 7 2 4 0 0 0
0 22 28 2 0 0 110 37 28 167 300 661 520 259 136 125 138 212 214 97 89 100 124 73 34 15 29 14 0 1 2 2 3 12 21 30 21 4 4 2 0 0 0
61 246 299 210 128 137 124 43 54 156 343 440 180 79 16 16 141 11 22 51 79 77 24 0 0 0 0 0 0 0 0 7 7 5 0 19 13 19 1 0 0 0 0
357 247 301 261 133 398 57 2 14 166 187 55 66 69 46 59 0 0 0 29 14 23 13 0 0 2 0 1 0 2 5 6 15 6 0 21 16 1 1 2 3 3 0

GFSMA_con_mlcape_003.txt.gz
CAPE
1624 1595 1438 1239 1357 1209 1209 888 970 1014 906 875 546 278 165 18 0 0 71 856 704 614 1186 1740 1377 1245 1504 1307 1613 1507 1295 962 710 751 1163 656 669 721 946 629 418 564 727
1250 1448 1436 1211 1041 1123 1162 797 1245 1037 768 477 214 208 113 95 80 108 48 535 784 741 552 1199 1619 1321 1190 1504 1335 1641 1492 1229 1044 836 683 883 992 936 892 473 190 227 450
1268 1619 1279 1155 993 1173 1536 1186 1049 807 465 25 27 16 56 61 46 126 98 41 536 1152 622 671 1275 1178 1393 1559 1563 1086 1334 1374 1279 1326 1273 1103 1193 1041 963 701 326 255 291
1738 1761 1234 1026 1054 1067 1052 1069 761 253 17 8 11 24 19 16 29 74 85 64 40 87 966 750 876 861 857 1136 1057 1131 1255 1094 1018 1140 1205 1057 1006 786 642 632 917 813 645
1709 1762 1233 1007 1274 1129 976 894 623 141 3 2 8 6 27 32 14 35 11 92 253 273 131 948 778 838 959 1248 1327 1154 978 919 896 791 833 951 1116 970 883 737 719 864 743
1891 1844 1285 1342 1348 1078 796 582 393 0 0 5 1 0 31 60 21 9 2 4 18 146 461 615 1194 1118 983 1026 1057 1257 1205 1061 825 792 780 914 956 933 965 961 856 753 795
1758 1763 1536 1357 1115 1139 715 132 19 2 14 27 0 24 38 19 21 15 1 0 0 0 29 312 670 1080 952 865 868 996 1098 960 796 781 867 710 818 962 973 969 987 967 1061
1587 1559 1594 1042 1020 768 672 194 5 0 13 36 18 3 54 136 31 14 0 0 0 0 0 10 231 542 724 756 695 235 254 516 806 920 968 1092 1042 883 909 817 849 919 974
1999 2061 1843 1709 1623 596 0 130 0 0 0 44 23 0 11 44 30 33 32 0 0 0 0 0 0 0 0 19 199 3 0 0 0 39 183 337 439 588 702 748 765 742 754
1934 1950 1924 1263 1250 0 79 0 0 0 0 3 7 3 0 0 0 46 44 19 0 0 0 0 0 0 0 0 0 0 0 0 0 0 0 0 0 3 56 273 550 617 688
1555 1164 1042 1447 755 0 7 0 0 0 30 0 1 10 16 3 0 0 1 22 12 18 1 0 0 0 0 0 0 0 0 0 0 0 0 0 0 0 0 0 5 120 454
1279 952 718 1306 542 0 23 5 1 3 2 7 1 3 10 5 22 16 6 5 17 20 19 3 0 0 0 0 0 0 0 0 0 0 0 0 0 0 0 0 0 0 0
543 1399 906 1652 552 54 22 2 0 10 7 6 4 13 15 9 17 16 12 21 15 22 39 28 17 15 0 0 0 0 0 0 0 0 0 0 0 0 0 0 0 0 0
423 691 1160 1133 713 52 83 27 0 0 7 2 0 0 14 26 30 45 34 42 15 29 36 55 63 36 13 0 0 0 0 0 0 0 0 0 0 0 0 0 0 0 0
453 213 746 782 519 101 149 31 0 5 0 0 1 7 5 6 14 26 32 32 41 20 25 35 25 56 38 41 31 2 0 2 0 0 0 0 0 0 0 0 0 0 0
803 599 806 711 402 131 231 94 18 0 0 0 0 0 4 2 0 13 36 42 24 13 20 21 25 41 29 17 57 52 12 21 0 0 0 0 0 0 0 0 0 0 0
1664 804 955 583 173 161 166 115 62 13 33 21 3 0 0 36 0 12 23 29 15 18 8 0 4 21 52 53 41 63 83 76 38 9 3 0 0 0 0 0 0 0 0
1771 961 732 596 61 77 54 104 87 7 4 2 0 0 25 61 240 299 26 62 54 32 15 12 1 0 13 70 54 44 31 27 47 27 10 0 0 0 0 0 0 0 0
1807 882 599 444 24 11 36 60 64 70 36 14 5 36 108 222 254 192 236 121 72 95 100 37 27 22 22 27 21 80 117 65 51 10 2 6 0 0 0 0 0 0 0
1393 531 392 181 31 93 81 82 94 110 152 117 79 140 209 285 322 296 300 339 242 198 109 78 56 57 41 19 57 36 27 34 47 34 19 0 0 5 0 0 0 0 0
962 350 117 74 57 96 183 272 122 95 247 261 94 177 286 380 449 332 329 168 150 127 117 120 96 49 95 71 57 75 60 43 35 23 7 11 23 14 2 0 14 5 2
657 209 4 0 17 0 0 17 101 27 145 173 138 263 441 661 222 145 134 135 48 13 24 33 33 22 46 58 48 42 17 21 1 0 2 1 0 5 35 91 110 8 0
585 159 0 19 18 103 0 0 0 36 56 128 201 341 735 349 225 253 139 76 17 44 39 28 51 119 92 121 70 35 3 4 0 0 0 0 2 5 46 124 15 0 0
872 349 98 21 30 114 0 0 0 1 9 76 223 510 662 547 410 108 85 62 123 331 169 101 123 218 86 26 14 0 0 0 0 1 21 14 7 1 16 39 1 0 0
1307 532 176 69 230 281 0 0 0 6 60 158 329 540 735 277 74 27 22 24 118 165 227 87 18 0 0 0 0 0 0 1 3 10 3 6 18 0 0 0 0 0 0
1341 649 347 355 538 575 88 1 11 47 66 85 404 808 132 43 53 21 51 97 169 175 104 43 54 0 0 0 0 0 10 28 23 11 0 0 0 0 3 0 6 1 1

GFSMA_con_mlcape_006.txt.gz
CAPE
1262 767 1627 1401 1319 1407 1086 1016 935 1103 763 848 226 299 113 91 59 46 502 826 494 547 854 1195 1059 23 820 1425 1318 1412 1260 934 909 1191 1203 1104 922 770 767 844 918 720 625
1250 1093 1329 922 1065 1208 1175 1048 1069 997 1086 931 454 93 78 149 45 160 109 718 642 710 610 783 1384 1072 1166 1218 1657 1288 1309 1212 906 746 824 1110 779 822 890 1043 736 294 324
1591 1765 1593 1260 1260 1149 1529 1167 796 535 317 318 14 22 32 21 91 23 81 122 856 937 761 695 664 899 1098 1222 1456 1498 1375 1080 1119 1134 960 817 1046 1071 1049 1010 619 261 236
1678 1758 1638 1152 573 1120 980 893 875 535 217 1 2 27 21 19 4 55 87 1 132 550 810 706 524 517 693 1220 1190 1411 1016 1402 1300 1162 1322 1177 1282 1230 1234 1075 718 742 674
1546 1500 1558 1097 1100 1283 1022 754 440 323 0 0 0 18 31 3 0 3 0 58 139 273 1039 775 678 684 707 1182 1281 1252 903 774 786 857 906 927 939 1014 1109 986 809 635 887
1654 1377 1648 1396 1418 1202 738 375 294 13 0 0 0 0 12 23 9 0 2 6 0 73 579 1066 1010 1014 815 1078 1154 979 1024 1025 851 819 816 800 859 822 874 1033 1030 892 761
1681 1638 1642 1232 1140 1090 629 322 6 0 3 7 0 13 35 31 12 0 0 0 0 0 0 199 767 773 699 893 911 1076 931 926 1084 895 728 737 803 860 831 792 925 983 1055
1839 1395 1436 1204 1123 968 718 332 23 0 1 3 0 3 46 76 36 18 0 0 0 0 0 0 112 151 732 852 371 184 239 498 801 959 974 859 916 817 806 804 886 888 969
1816 1197 1616 1535 1025 419 227 199 26 0 0 57 3 6 60 49 55 63 21 0 0 0 0 0 0 0 0 34 180 0 0 0 1 47 207 330 364 457 618 686 771 798 787
1833 1763 1696 1619 1274 170 151 42 0 0 18 6 50 1 0 1 34 50 70 11 0 0 0 0 0 0 0 0 0 0 0 0 0 0 0 0 0 0 0 22 175 435 651
1746 1889 1733 1514 877 72 94 44 21 0 134 0 0 24 22 0 0 0 38 18 33 9 0 0 0 0 0 0 0 0 0 0 0 0 0 0 0 0 0 0 0 0 0
1717 1246 1056 1213 650 43 258 73 51 79 1 58 0 0 8 12 13 21 0 1 10 25 25 2 0 0 0 0 0 0 0 0 0 0 0 0 0 0 0 0 0 0 0
1571 1263 815 1366 752 126 163 120 132 171 65 0 3 0 24 0 3 5 5 2 10 8 32 41 24 16 0 0 0 0 0 0 0 0 0 0 0 0 0 0 0 0 0
592 1167 922 1445 1225 350 115 106 152 67 50 33 0 0 0 7 11 19 25 4 2 13 10 21 45 67 35 3 0 0 0 0 0 0 0 0 0 0 0 0 0 0 0
1084 1360 1155 1550 1153 548 250 219 53 60 78 80 45 19 0 0 24 37 23 24 17 7 8 21 14 40 17 23 8 0 0 0 0 0 0 0 0 0 0 0 0 0 0
868 830 1309 942 1237 500 375 286 55 113 36 0 2 0 22 23 7 16 14 20 31 20 0 7 23 45 53 22 23 48 38 20 3 0 0 0 0 0 0 0 0 0 0
1189 951 601 1138 1024 751 441 294 39 19 4 0 0 0 2 46 4 7 98 36 15 3 0 5 0 1 3 11 13 25 46 41 73 43 29 6 0 0 0 0 0 0 0
1715 1043 1175 1192 1145 505 494 321 25 0 162 84 203 106 30 51 61 42 106 89 64 62 89 4 0 0 0 14 15 30 25 19 15 24 13 11 2 0 0 0 0 0 0
2093 1919 1361 1289 845 345 485 275 193 55 70 14 11 41 57 110 140 173 238 189 128 166 102 48 51 58 5 0 0 1 0 40 101 36 10 0 6 2 0 0 0 0 0
2417 2328 1768 1433 942 387 354 280 353 236 90 43 114 73 117 199 173 197 148 161 202 182 94 41 77 40 61 20 46 34 21 27 50 34 18 13 3 0 0 0 0 0 0
3052 2804 1919 1390 914 325 393 376 324 264 177 207 271 98 91 266 384 332 253 189 244 106 24 5 28 1 6 45 40 44 35 32 22 20 32 12 0 0 0 0 0 0 0
3083 2658 1500 962 571 246 212 166 456 383 288 263 300 156 199 294 229 89 84 91 89 33 44 17 14 1 11 40 40 20 57 20 0 0 5 0 0 0 0 0 0 0 0
2700 1981 1159 573 369 265 100 59 281 280 59 201 327 109 75 219 322 248 193 119 76 47 22 0 0 10 38 52 50 33 36 21 0 0 0 0 0 4 0 3 3 0 3
2344 1786 963 319 123 191 12 6 0 44 22 206 186 39 46 142 552 602 334 186 67 84 97 74 55 64 121 167 46 4 0 0 0 0 1 1 0 0 0 0 0 0 0
2055 1696 971 321 206 230 56 0 0 0 0 19 5 11 179 505 726 64 96 38 25 75 201 153 94 93 111 0 0 0 0 0 0 0 0 0 2 0 0 0 0 0 0
1703 1750 1326 562 351 408 135 14 0 0 0 1 5 91 165 184 430 76 42 68 175 129 225 199 57 4 2 0 0 4 3 1 7 8 0 0 0 0 0 0 0 0 0

GFSMA_con_mlcape_009.txt.gz
CAPE
651 379 474 582 682 747 695 661 1038 773 841 789 543 56 10 2 2 34 435 578 450 562 1105 1165 696 0 1251 1566 1417 1351 1217 957 1211 1159 997 947 883 468 737 877 876 871 606
981 899 999 806 1037 1238 1094 863 622 571 341 255 289 24 5 23 17 39 117 433 446 473 474 1274 1139 291 239 1763 1504 1530 1531 1265 755 668 1069 960 886 779 855 831 703 607 360
985 1442 1245 873 1172 1176 1275 686 590 248 19 42 0 1 12 9 7 0 1 30 529 599 462 760 1076 1045 724 1161 1555 1604 1447 1414 1153 919 648 506 818 816 911 1026 1084 595 235
1459 1568 910 1079 634 879 919 708 617 431 63 0 0 8 5 7 6 8 24 0 239 535 588 349 513 615 834 1208 1117 1389 1483 1388 1035 1021 1122 1059 930 1045 1118 960 870 577 580
1328 988 1109 947 769 1038 805 427 343 144 0 0 0 6 0 2 0 3 0 12 28 210 567 463 334 396 562 724 854 937 743 992 1050 1002 1013 1058 958 849 792 879 934 906 657
990 914 993 1089 1062 930 392 242 169 6 0 0 0 0 4 8 0 0 0 0 32 530 694 735 710 740 759 1282 1208 1001 983 959 821 800 833 853 860 828 820 885 911 867 671
1169 1277 941 1109 1254 852 332 259 9 0 0 0 0 4 18 23 17 0 0 0 0 0 128 215 394 600 703 643 892 1050 859 803 900 779 632 684 802 815 756 781 776 763 865
1495 1121 934 892 861 1030 421 90 3 0 0 0 0 0 11 29 22 0 0 0 0 0 0 0 4 423 653 494 111 109 207 407 644 837 878 807 701 673 716 660 646 564 698
1223 1226 1029 952 863 555 384 77 0 0 0 0 0 0 23 18 26 14 0 0 0 0 0 0 0 0 109 14 0 0 0 0 0 4 36 122 184 242 349 507 673 761 754
1502 1138 1112 1182 890 124 46 0 23 0 0 0 17 0 0 1 25 30 3 0 0 0 0 0 0 0 0 0 0 0 0 0 0 0 0 0 0 0 0 0 4 35 225
1620 1469 1446 1395 871 1 3 24 1 0 25 0 1 1 0 0 0 0 16 0 0 0 0 0 0 0 0 0 0 0 0 0 0 0 0 0 0 0 0 0 0 0 0
1151 1201 1231 1074 669 43 9 33 39 0 62 49 0 0 0 0 0 0 0 0 4 2 2 0 0 0 0 0 0 0 0 0 0 0 0 0 0 0 0 0 0 0 0
1415 1502 1472 973 492 44 32 33 17 43 16 45 0 0 1 0 0 0 0 0 0 0 7 20 1 0 0 0 0 0 0 0 0 0 0 0 0 0 0 0 0 0 0
1381 1199 1019 755 440 85 159 62 66 33 43 0 14 0 0 0 0 0 0 0 0 0 0 0 2 3 0 0 0 0 0 0 0 0 0 0 0 0 0 0 0 0 0
1352 1155 933 838 639 352 60 86 57 1 146 20 0 0 0 0 0 0 11 5 0 0 0 0 0 0 12 4 0 0 0 0 0 0 0 0 0 0 0 0 0 0 0
791 874 1058 1013 1005 529 114 109 49 15 7 30 0 0 0 0 0 19 15 7 1 5 2 0 5 0 9 19 17 26 7 0 0 0 0 0 0 0 0 0 0 0 0
1066 957 879 1201 1027 563 256 178 62 14 52 1 0 0 0 2 10 9 34 38 9 18 8 4 0 5 5 0 0 0 0 7 16 4 0 0 0 0 0 0 0 0 0
1317 1168 1036 782 997 751 389 228 126 68 15 48 0 2 0 0 38 32 55 74 128 120 25 38 39 27 34 35 4 1 0 7 7 0 0 0 0 0 0 0 0 0 0
1532 1126 787 779 731 713 573 384 192 65 52 64 19 25 21 23 5 78 115 157 165 120 89 48 2 31 13 10 19 1 0 3 13 60 49 21 14 0 0 0 1 0 0
2067 1396 1046 777 779 709 606 470 330 191 12 97 77 151 143 24 30 147 133 114 128 107 74 39 43 13 13 25 8 25 0 0 0 0 6 4 1 0 0 0 0 0 0
2443 2151 1500 1192 951 760 585 439 351 271 5 108 132 163 160 152 210 186 152 173 123 1 30 57 47 6 0 0 0 0 0 0 0 0 0 0 0 0 0 0 0 0 0
2637 2367 2045 1607 1324 880 566 396 377 314 143 251 140 193 127 52 194 202 310 168 136 122 109 22 16 15 0 1 0 10 0 0 0 0 0 0 0 0 0 0 0 0 0
2878 2777 2314 1872 1501 1019 463 353 362 277 234 186 215 240 337 137 150 253 188 97 103 120 105 61 8 0 0 0 21 4 0 0 0 0 0 0 0 0 0 0 0 0 0
3069 2817 2437 1859 1461 823 328 170 142 207 303 326 393 345 329 150 123 135 140 180 184 130 83 46 32 23 30 30 53 50 20 0 0 0 0 0 0 0 0 0 0 0 0
2829 2652 2078 1576 868 450 244 70 15 69 185 249 156 164 169 68 61 91 67 30 29 60 44 160 226 174 58 74 131 10 0 0 0 0 0 0 0 0 0 0 0 0 0
2250 1986 1757 1074 582 311 112 27 5 6 0 0 4 48 25 4 116 86 38 37 37 23 40 13 0 1 0 0 0 0 4 6 5 0 0 0 0 0 0 0 0 0 0

GFSMA_con_mlcape_012.txt.gz
CAPE
471 123 304 417 503 588 472 568 639 844 832 542 309 55 8 10 48 192 359 485 395 831 1521 968 224 543 1423 1445 1259 1257 1230 710 632 723 1005 938 677 391 650 738 566 464 577
496 337 348 632 799 792 749 824 699 474 141 22 109 173 8 11 4 9 142 507 386 474 1009 1466 890 152 804 1673 1520 1368 1256 1084 1067 1094 1100 1006 903 804 364 746 854 809 655
658 703 743 643 858 762 950 642 400 172 11 7 0 11 15 16 2 0 0 74 356 405 442 883 1089 686 362 1329 1723 1556 1532 1318 1113 788 645 1163 960 961 711 794 881 866 513
892 1071 970 953 771 595 708 619 486 313 41 0 0 5 12 13 12 5 13 11 233 450 506 417 719 663 827 767 813 1634 1597 1067 1021 1082 897 650 512 645 742 943 872 1005 757
1091 1019 780 668 657 687 580 386 337 140 4 0 0 2 12 7 0 10 4 12 24 272 516 349 296 354 538 743 848 915 1145 1101 1039 1115 884 844 955 904 877 852 964 846 578
1302 946 783 799 564 818 573 252 112 3 0 0 0 0 13 7 0 0 0 53 271 403 618 567 489 528 585 896 928 1171 970 825 760 769 720 799 718 639 614 719 777 688 719
1072 821 729 905 857 866 414 153 6 0 0 0 0 0 11 15 0 0 0 0 15 77 162 212 574 714 793 648 899 933 914 860 886 785 706 634 586 623 594 540 547 579 715
755 847 812 836 1035 845 467 140 0 0 0 0 0 0 1 25 8 0 0 0 0 1 0 0 149 305 335 138 37 179 309 512 671 722 613 659 700 618 615 692 683 659 679
938 1038 1113 779 678 756 473 74 4 0 0 0 0 0 0 0 14 1 0 0 0 0 0 0 1 46 215 0 0 0 0 0 0 33 72 130 167 180 247 346 498 583 589
1051 1266 840 631 465 431 267 86 0 0 0 0 5 0 0 0 0 0 0 0 0 0 0 0 0 0 0 0 0 0 0 0 0 0 0 0 0 0 0 0 0 0 15
1369 1100 1011 783 576 205 95 10 0 0 0 0 20 0 0 0 0 0 0 0 0 0 0 0 0 0 0 0 0 0 0 0 0 0 0 0 0 0 0 0 0 0 0
1317 1211 1007 1056 735 161 17 0 0 0 0 1 0 0 0 0 0 0 0 0 0 0 0 0 0 0 0 0 0 0 0 0 0 0 0 0 0 0 0 0 0 0 0
1213 1380 1204 1157 724 178 0 0 0 0 1 4 0 0 0 0 0 0 0 0 0 0 0 0 0 0 0 0 0 0 0 0 0 0 0 0 0 0 0 0 0 0 0
1413 1223 1091 917 556 230 10 0 0 0 0 4 8 0 0 0 0 0 0 0 0 0 0 0 0 0 0 0 0 0 0 0 0 0 0 0 0 0 0 0 0 0 0
1147 1037 1012 1027 646 211 49 1 0 0 0 0 0 0 0 0 0 0 0 0 0 0 0 0 0 0 0 0 0 0 0 0 0 0 0 0 0 0 0 0 0 0 0
1167 1040 1141 1047 660 209 158 40 6 5 0 26 0 0 0 0 0 0 0 4 0 0 0 0 0 0 0 0 0 0 0 0 0 0 0 0 0 0 0 2 2 0 0
975 1079 1029 943 597 321 196 85 9 5 0 6 22 4 0 0 0 0 0 0 14 3 0 2 3 0 1 0 0 0 0 0 0 0 2 0 0 0 0 8 3 0 0
1160 1148 1037 1022 785 513 303 199 77 5 0 0 1 7 0 1 6 12 1 8 45 27 1 6 18 22 23 15 17 9 2 6 0 0 0 0 0 6 0 0 0 0 0
1049 1026 735 889 906 706 521 290 139 9 0 0 0 0 0 2 4 3 17 6 67 97 70 50 60 41 29 20 2 1 0 0 0 0 0 0 0 0 1 0 0 0 0
1249 1232 1041 869 971 809 595 450 258 137 36 22 0 0 0 1 12 4 13 77 121 120 113 104 48 33 27 8 2 0 0 0 0 0 0 0 0 0 0 0 0 0 0
1448 1441 1176 1120 886 874 728 533 401 229 95 81 59 23 49 51 132 76 29 86 103 95 117 93 8 13 3 0 0 0 0 0 0 0 0 0 0 0 0 0 0 0 0
2078 1730 1380 1074 977 887 743 570 502 397 190 129 38 0 57 148 162 105 56 89 92 122 60 24 22 4 0 0 0 0 0 0 0 0 0 0 0 0 0 0 0 0 0
2091 2071 1832 1584 1352 1118 838 533 487 496 344 246 96 0 14 120 135 106 50 27 65 90 102 29 17 0 0 0 0 0 0 0 0 0 0 0 0 0 0 0 0 0 0
2395 2313 2036 1909 1755 1128 841 677 591 434 345 235 92 4 66 203 218 64 39 35 60 36 46 43 33 15 5 17 25 22 4 0 0 0 0 0 0 0 0 0 0 0 0
2644 2660 2383 2048 1674 116 682 560 299 271 274 194 67 119 224 297 150 27 57 52 2 8 58 45 45 54 55 76 13 0 1 0 0 0 0 0 0 0 0 0 0 0 0
2808 2574 2427 1920 320 295 471 374 226 80 128 105 137 237 244 179 108 21 28 2 8 32 32 0 0 0 0 0 0 0 0 0 0 0 0 0 0 0 0 0 0 0 0

GFSMA_con_mlcape_018.txt.gz
CAPE
506 240 50 204 198 332 368 429 458 746 700 253 158 16 9 42 96 199 268 286 237 237 681 817 616 1330 1457 1306 1240 1258 1218 981 1091 1110 1025 960 509 528 372 538 682 661 286
449 468 174 138 343 329 414 670 705 425 31 33 133 75 4 16 34 78 100 134 158 237 396 822 565 749 1122 1262 1312 1307 1281 1041 1307 1144 871 1071 914 695 454 698 820 749 754
585 605 141 116 482 525 641 715 449 131 9 0 2 5 0 14 8 14 0 37 165 219 225 497 588 658 345 1155 1255 1434 1413 1308 1023 743 960 1091 1070 989 990 768 668 952 937
589 620 312 242 513 549 496 517 415 307 66 0 4 3 1 9 7 4 2 0 1 228 251 152 375 309 576 706 1192 1072 996 910 1064 1261 1252 1264 1235 1132 1092 1020 915 907 678
670 659 484 593 652 452 562 469 307 154 0 0 0 0 0 0 3 0 11 20 14 187 324 243 187 124 312 613 687 775 1202 1293 952 919 786 965 1046 875 784 916 952 890 980
783 598 461 668 508 429 403 252 202 0 0 0 0 0 0 0 0 0 6 70 155 186 468 367 266 338 295 747 760 478 578 675 635 634 738 802 744 752 679 705 643 599 593
790 787 629 636 370 429 458 296 95 0 0 0 0 0 0 0 0 0 3 34 30 19 69 197 420 563 602 540 375 503 603 594 502 530 438 510 517 504 569 488 496 547 541
798 833 718 678 483 503 406 308 80 0 0 0 0 0 0 0 0 0 0 4 3 0 0 0 341 346 230 129 201 213 261 582 814 681 566 523 577 574 545 555 567 604 578
816 861 748 699 583 556 598 454 102 0 0 0 0 0 0 0 0 0 0 0 0 0 0 0 58 118 36 0 0 0 0 0 0 66 94 84 84 99 108 126 130 165 214
685 780 882 745 589 591 586 502 90 0 0 0 0 0 0 0 0 0 0 0 0 0 0 0 0 0 25 0 0 0 0 0 0 0 0 0 0 0 0 0 0 0 0
712 698 724 660 634 672 509 337 109 0 0 0 0 0 0 0 0 0 0 0 0 0 0 0 0 0 2 21 0 0 0 0 0 0 0 0 0 0 0 0 0 0 0
722 834 732 704 679 648 382 238 135 1 0 0 0 0 0 0 0 0 0 0 0 0 0 0 0 0 0 0 4 3 0 0 0 0 0 0 0 0 0 0 0 0 0
655 816 863 789 713 638 358 202 109 4 0 0 0 0 0 0 0 0 0 0 0 0 0 0 0 0 0 0 0 0 0 0 0 0 0 0 0 0 0 0 0 0 0
457 809 844 910 879 717 438 197 93 0 0 0 0 0 0 0 0 0 0 0 0 0 0 0 0 0 0 0 0 0 0 0 0 0 0 0 0 0 0 0 0 0 0
525 613 767 887 941 779 555 329 116 5 0 0 0 0 0 0 0 0 0 0 0 0 0 0 0 0 0 0 0 0 0 0 0 0 0 0 0 0 0 0 0 0 0
712 622 823 1003 970 771 566 404 147 17 0 0 0 0 0 0 0 0 0 0 0 0 0 0 0 0 0 0 0 0 0 0 0 0 0 0 0 0 0 0 13 19 16
747 828 767 985 958 796 661 528 263 89 11 0 0 0 0 0 0 0 0 0 0 0 0 0 0 0 0 0 0 0 0 0 0 0 0 0 0 0 0 2 4 5 12
764 847 751 942 915 756 719 651 497 187 60 0 0 0 0 0 0 0 0 0 0 0 0 0 0 0 7 0 6 1 0 0 0 0 0 0 0 0 0 0 0 0 0
777 815 816 839 892 733 783 662 549 422 188 23 1 0 0 0 0 0 0 0 0 0 0 0 0 0 0 0 0 0 0 0 0 0 0 0 0 0 0 0 0 0 0
830 861 895 951 1013 986 816 717 568 567 396 190 83 0 0 0 0 0 0 0 0 0 0 0 0 7 19 10 1 0 0 0 0 0 0 0 0 0 0 0 0 0 0
926 938 896 1043 1080 1005 906 725 633 674 554 411 187 65 0 0 0 0 0 0 0 3 0 0 1 20 7 11 2 2 0 0 0 0 0 0 0 0 0 0 0 0 0
1090 1015 929 966 1104 1076 944 816 823 771 652 487 341 124 70 15 0 0 0 0 4 15 13 0 0 4 7 1 0 1 0 0 0 0 0 2 0 0 0 0 0 0 0
1123 1116 1078 1004 1033 1186 986 940 920 976 828 535 419 381 362 141 59 29 0 0 0 25 23 8 4 1 5 4 0 0 0 0 0 3 0 5 0 0 0 0 0 0 0
1173 1206 1196 1118 1041 1082 1004 974 827 1033 782 585 522 564 566 481 196 101 34 0 9 31 24 21 22 17 0 3 1 0 0 0 0 0 0 0 0 0 0 0 0 0 0
1367 1383 1302 1205 1211 1171 992 835 763 885 850 722 600 405 366 466 314 181 50 0 13 15 6 0 0 1 0 0 0 0 0 0 0 0 0 0 0 0 0 0 0 0 0
1619 1579 1400 1285 1313 1416 906 715 780 847 791 748 248 265 234 520 235 70 5 15 52 15 0 0 0 0 0 0 0 0 0 0 0 0 0 0 0 0 0 0 0 0 0

GFSMA_con_mlcape_021.txt.gz
CAPE
1181 1108 707 682 779 876 1026 688 1094 610 689 269 466 47 93 114 336 141 317 199 268 123 537 794 797 1296 1080 1114 1219 1063 786 534 1154 907 1101 1017 682 822 587 456 618 758 312
835 1044 1081 566 1016 1035 1085 993 970 570 44 362 349 174 41 26 194 219 83 269 145 208 329 851 600 976 1320 1317 1323 1347 1332 1331 1231 1022 831 1093 951 627 365 487 803 786 786
1057 1286 1237 520 805 1281 1127 1007 709 752 14 7 8 39 51 35 20 87 135 174 274 160 244 480 561 844 656 1082 1281 1436 1416 1308 1269 1339 1289 776 925 1101 1044 733 537 710 863
1102 1276 1195 876 994 1334 624 358 517 590 264 11 14 22 58 47 37 27 63 80 310 250 190 208 230 371 300 643 1090 1145 1147 1261 1086 1146 912 1142 1232 1304 1161 1094 1066 1037 966
974 1128 1227 1230 1216 1233 847 720 779 687 77 4 7 22 35 35 19 17 144 217 347 461 519 208 129 73 295 543 585 723 707 779 882 840 878 814 1011 1087 1000 1086 1162 1053 923
1107 1237 1299 1200 1235 1227 993 972 772 214 0 0 0 9 17 16 12 100 136 247 563 678 739 798 599 521 351 738 631 434 587 747 708 855 802 795 830 780 734 699 639 618 620
1450 1453 1312 1069 992 1014 987 871 580 140 3 30 1 15 37 10 4 39 147 35 16 41 279 524 671 903 680 405 405 558 747 702 623 623 595 483 516 558 597 566 495 476 436
1328 1443 1360 1359 1123 1088 977 892 510 84 0 28 7 0 3 5 0 0 16 16 16 0 0 104 655 827 575 291 279 11 152 547 855 781 639 509 513 628 582 523 465 387 343
1350 1384 1487 1428 1363 1194 1192 1022 630 200 62 23 0 6 0 0 1 0 0 0 0 0 0 11 33 300 233 0 0 0 0 0 0 14 55 53 74 92 83 64 45 52 59
1321 1426 1534 1500 1390 1352 1224 1169 730 395 64 0 1 0 8 30 0 0 0 0 0 0 5 0 0 0 50 0 0 0 0 0 0 0 0 0 0 0 0 0 0 0 0
1295 1428 1500 1473 1479 1383 1306 1236 662 353 136 0 0 0 0 0 0 0 3 0 0 0 0 0 0 0 21 27 0 0 0 0 0 0 0 0 0 0 0 0 0 0 0
1195 1278 1420 1514 1505 1414 1330 1236 726 506 196 13 27 27 0 0 0 0 3 1 0 0 0 0 0 0 6 12 13 0 0 0 0 0 0 0 0 0 0 0 0 0 0
1028 1201 1325 1426 1431 1338 1325 1202 662 486 239 52 0 25 75 10 0 0 0 0 0 0 0 0 0 0 0 11 0 0 0 0 0 0 0 0 0 0 0 0 0 0 0
1040 1250 1393 1553 1435 1424 1325 1065 777 570 270 131 8 0 12 60 0 0 0 0 0 0 0 0 0 0 15 8 0 0 0 0 0 0 0 0 0 0 0 0 0 0 0
1121 1287 1249 1440 1502 1470 1390 1176 914 674 267 121 12 5 4 40 0 0 0 0 0 0 0 0 0 0 0 24 17 1 9 0 0 0 0 0 0 0 0 0 0 0 0
1053 1058 1108 1424 1541 1454 1476 1282 1065 777 363 140 39 40 0 11 13 1 0 0 0 0 0 0 0 3 18 23 23 36 49 0 0 0 0 0 0 0 0 0 0 0 3
1174 1250 1273 1244 1353 1365 1464 1345 1223 912 494 280 135 41 16 9 0 0 0 0 0 0 0 0 0 12 8 10 1 27 0 52 35 0 0 0 0 0 0 0 0 0 3
1218 1348 1426 1408 1407 1587 1526 1374 1258 1066 768 457 333 86 0 0 0 0 0 0 0 0 0 7 1 8 10 71 77 74 68 0 23 3 0 0 0 0 0 0 0 0 0
1297 1342 1448 1437 1489 1527 1485 1344 1380 1318 932 742 499 164 56 0 0 0 0 0 0 0 0 0 0 20 22 19 47 75 77 37 0 0 0 0 0 0 0 0 0 0 0
1314 1328 1430 1497 1544 1528 1470 1347 1272 1393 1205 938 733 402 147 10 0 0 2 2 2 0 0 0 0 0 27 72 51 20 17 24 0 0 0 0 0 0 0 0 0 0 0
1384 1356 1371 1472 1514 1496 1437 1408 1242 1270 1360 1085 887 558 240 165 5 0 12 17 0 0 0 0 2 0 0 49 70 37 29 35 16 26 3 32 42 57 13 0 0 0 0
1484 1466 1412 1442 1422 1418 1278 953 1254 1475 1390 1242 1161 810 460 146 32 0 0 3 8 0 0 7 12 4 69 94 66 37 58 66 63 69 103 18 255 181 184 170 0 0 0
1510 1493 1454 1494 1471 1484 1010 727 862 1518 1455 1332 1309 1150 748 432 197 97 0 0 0 0 1 237 147 52 32 111 94 26 55 53 83 143 119 58 149 156 50 0 0 0 0
1619 1610 1513 1509 1536 1606 1062 683 679 1174 1523 1501 1360 1269 1035 769 559 376 346 85 18 40 0 0 170 237 102 150 8 57 105 158 90 59 114 3 0 5 0 0 0 0 0
1856 1781 1800 1655 1569 1631 1173 753 655 1115 1475 1533 1486 1259 1115 1023 925 355 400 412 364 326 89 1 16 0 0 0 19 38 6 0 1 5 5 0 0 0 0 0 0 0 0
1829 1860 1892 1815 1669 1651 1330 859 778 1247 1390 1486 1293 1100 701 1006 542 221 413 566 446 204 61 0 0 0 0 0 0 0 0 0 0 0 2 0 0 0 0 0 0 0 0

GFSMA_con_mlcape_024.txt.gz
CAPE
1513 1474 1293 1113 1252 911 956 895 751 527 1070 867 665 41 33 39 38 41 116 93 281 272 564 850 1075 1338 1142 1231 1268 1060 373 383 1167 945 972 1015 960 862 683 378 412 652 306
1467 1316 1356 1127 1211 1203 1241 761 603 987 289 433 230 42 36 50 31 28 41 42 97 205 295 1151 752 1429 1201 1124 1327 1359 1287 1057 1047 830 879 1225 989 566 447 361 742 718 707
1675 1675 1469 1191 990 1185 965 898 830 945 256 33 37 33 52 28 33 37 57 112 109 68 279 684 765 978 943 1213 1456 1418 1292 1181 1316 1282 1317 1128 1042 947 1136 882 604 654 944
1868 1964 1465 1064 1258 1275 928 773 677 569 402 103 32 30 41 38 34 30 32 53 101 282 129 288 453 547 713 745 1110 1155 1304 1127 1167 1249 1204 1150 1119 1240 1254 1156 1123 1040 1031
1581 1821 1433 1204 1546 1434 1006 745 865 671 171 21 13 32 32 29 14 49 49 41 35 171 256 43 119 206 471 672 780 879 1029 945 897 729 802 1014 1013 1089 1357 1137 1110 1108 1053
1508 1925 1651 1058 1051 1423 1067 1126 895 558 98 0 1 15 36 25 13 34 40 43 73 119 265 438 468 259 347 773 648 578 645 821 1040 1033 1019 910 826 827 809 725 667 642 631
1915 2175 1699 1143 1039 1216 1084 871 958 602 78 0 11 17 25 14 7 26 31 15 1 9 31 130 305 560 367 396 373 604 699 668 634 675 759 605 581 625 577 567 495 498 477
2159 2190 1730 1354 1170 1188 1162 1166 730 311 93 0 17 22 32 18 16 20 12 6 0 1 0 0 161 338 287 369 98 2 158 618 908 796 558 485 532 598 527 448 422 438 483
2009 2245 1766 1390 1454 1365 1247 1582 1167 719 133 4 18 21 15 23 24 3 0 3 0 9 2 0 1 19 0 0 0 0 0 0 0 2 0 0 5 19 17 0 0 12 37
1790 1899 2072 1859 1759 1465 1554 1519 1285 978 767 17 0 0 2 78 21 20 7 8 0 2 0 4 1 0 0 2 0 0 0 0 0 0 0 0 0 0 0 0 0 0 0
1931 1749 1969 1898 1873 1684 1727 1916 1644 1425 787 139 0 0 0 0 0 6 23 23 1 1 0 0 8 14 0 6 10 0 0 0 0 0 0 0 0 0 0 0 0 0 0
1446 1687 1786 1528 1633 1890 1993 2042 1916 1492 1063 356 1 0 0 0 0 0 1 3 16 15 12 10 3 10 25 32 18 0 0 0 0 0 0 0 0 0 0 0 0 0 0
960 1243 1815 1982 1887 2134 1966 2060 2112 1469 1399 679 242 0 0 0 0 0 0 0 0 6 3 14 20 10 9 11 28 0 0 0 0 0 0 0 0 0 0 0 0 0 0
1016 1080 1553 1840 1912 1902 2114 2140 2083 1702 1329 1033 404 10 0 11 26 0 0 0 0 1 5 3 4 4 0 0 0 0 0 0 0 0 0 0 0 0 0 0 0 0 0
1261 1361 1498 1890 1862 1969 2045 2142 1957 1849 1337 1208 614 187 27 1 38 1 0 0 0 0 2 9 0 0 0 0 0 0 0 9 0 0 0 0 0 0 0 0 0 0 0
1678 1365 1774 1772 1774 1928 2078 2186 1824 1851 1686 1141 564 183 125 0 17 2 0 0 0 0 0 0 0 1 0 2 6 0 38 22 0 0 0 0 0 0 0 0 0 0 0
1971 1960 1890 1844 1692 1898 2105 2275 2099 1630 1849 1469 716 378 290 43 0 0 0 0 0 0 0 0 0 3 42 97 8 0 38 60 67 1 0 0 0 0 0 0 0 0 0
2157 2155 2068 2025 1809 1747 2023 2211 2243 1598 1866 1648 1287 747 510 146 93 16 1 0 0 0 0 0 0 0 41 72 237 238 158 65 78 16 0 0 0 0 0 0 0 0 0
2341 1963 2227 2266 2092 1870 1896 2084 2284 2150 1877 1893 1606 1261 876 291 143 10 10 0 0 0 0 0 0 8 11 43 168 311 209 194 101 13 0 0 0 0 0 0 0 0 0
2445 2335 2370 2495 2319 2131 1953 1938 2212 2202 2058 1989 1974 1653 1201 665 268 192 42 30 2 1 0 0 0 0 11 32 10 10 125 311 110 57 19 0 0 0 0 0 0 0 0
2507 2520 2456 2532 2550 2187 1882 2084 2153 2127 2158 2142 2099 2018 1628 1068 504 355 116 110 77 62 0 6 0 0 0 21 17 15 20 21 67 117 119 75 52 95 90 0 6 6 0
2625 2595 2429 2554 2501 2249 1713 1462 2039 2154 2263 2290 2213 2158 1870 1094 574 218 76 49 225 198 59 4 4 11 2 16 35 22 26 13 29 120 115 150 124 150 280 261 2 0 0
2645 2633 2639 2609 2643 2644 1673 1284 1338 1922 2237 2189 2275 2315 2136 1646 839 745 86 6 23 76 118 235 239 166 154 312 298 159 39 75 53 111 137 151 109 49 51 45 0 0 0
2604 2712 2764 2708 2686 2779 2143 1299 1126 1595 2167 2217 2129 2349 2373 2068 1514 1073 980 267 91 88 54 18 136 396 499 458 461 263 185 53 148 134 92 72 10 0 0 0 0 0 0
2770 2803 2862 2869 2772 2712 2229 1600 1156 1481 1642 2252 2356 2475 2457 2414 2119 952 1174 1150 637 397 127 64 41 87 148 73 123 88 25 17 21 23 46 4 0 0 0 0 0 0 0
2811 2618 2737 2862 2897 2768 2497 1689 1381 1603 1565 1736 2275 2512 2040 2308 2002 1063 994 1405 1389 927 511 390 176 21 0 0 0 6 20 28 5 0 5 0 0 0 0 0 0 0 0

GFSMA_con_mlcape_027.txt.gz
CAPE
1277 1207 1190 1325 1173 1111 965 636 871 879 735 633 161 24 34 2 19 287 160 49 222 427 697 773 1301 904 1027 1194 1284 663 178 799 1084 833 1053 1040 950 935 661 407 365 681 572
1275 1445 1232 1208 977 1206 909 829 746 763 307 357 36 26 30 34 0 28 118 85 87 233 421 994 1005 1392 1171 1149 1331 1191 977 225 630 1172 978 1246 979 586 538 328 529 781 811
1623 1852 1345 945 1262 1420 1323 1041 936 328 168 25 2 22 31 27 23 8 155 160 46 148 308 993 808 1331 1248 1188 1367 1377 1302 1173 1352 1222 922 899 1170 1126 972 942 663 524 562
1728 1952 1273 1148 1190 1162 806 626 652 119 179 46 20 30 26 27 13 16 14 39 250 136 255 506 751 1022 952 1156 1270 1496 1470 1337 1171 1323 1323 1247 1216 1066 1099 1160 1204 1133 1038
1700 1917 1275 1376 1535 1199 652 508 494 390 21 13 24 29 34 21 13 22 6 42 22 264 63 109 253 549 840 642 1000 1107 1246 1334 1268 1284 1170 1066 1022 1148 1145 1232 1165 1191 1206
1657 1939 1405 1419 1433 971 1047 962 1025 172 38 0 12 40 36 16 30 30 22 38 11 35 164 308 218 256 508 765 761 701 720 869 1093 1140 1134 1101 858 772 658 587 670 682 790
1554 1990 1545 1501 1302 1415 1251 964 751 320 22 0 8 23 7 11 26 24 27 6 0 12 24 125 586 383 264 382 410 617 709 738 770 835 707 748 675 590 576 601 536 598 632
1825 1696 1635 1388 1380 1234 1253 1212 972 542 10 0 92 38 12 0 7 18 9 1 1 2 0 9 102 309 336 565 218 117 520 926 1108 929 693 546 609 751 647 531 451 456 554
1732 2012 1591 1374 1387 1627 1007 1552 1061 656 258 0 14 42 14 17 11 0 0 9 0 2 2 0 8 4 54 0 0 0 0 0 4 11 0 0 0 8 1 0 0 0 21
1524 1833 1602 1254 1534 1277 1117 1497 1119 946 304 2 0 0 36 174 69 10 5 4 0 4 2 16 7 2 0 8 0 0 0 0 0 0 0 0 0 0 0 0 0 0 0
1623 1560 1865 1587 1555 1708 1488 1263 1421 1190 794 429 0 0 0 0 0 27 16 14 0 3 4 0 27 27 6 19 8 0 0 0 0 0 0 0 0 0 0 0 0 0 0
1741 1853 1606 2067 1816 1907 1649 1899 1877 1624 1273 351 12 0 0 0 1 2 17 23 22 6 5 4 0 0 17 17 5 0 0 0 0 0 0 0 0 0 0 0 0 0 0
760 1565 1803 2019 1728 2129 1897 2012 2275 1886 1608 1102 444 0 0 10 5 0 0 1 3 15 2 3 13 5 4 2 21 0 0 0 0 0 0 0 0 0 0 0 0 0 0
735 1109 2183 2009 2078 2100 2094 2207 2094 1996 1672 1480 970 78 8 23 39 10 0 0 6 1 8 1 13 5 12 3 12 0 0 0 0 0 0 0 0 0 0 0 0 0 0
1047 1481 1962 2220 2152 2174 2285 2317 1817 2239 1874 1740 1306 796 67 0 23 27 0 0 0 3 20 5 0 1 1 6 0 0 0 0 0 0 0 0 0 0 0 0 0 0 0
1944 1894 1623 1873 2147 2234 2381 2434 1895 2092 2202 1787 1252 952 427 12 0 19 0 0 0 0 0 12 3 5 0 3 1 0 1 0 0 0 0 0 0 0 0 0 0 0 0
2731 1972 2438 2146 2262 2351 2496 2583 2186 1863 2299 2135 1640 1145 788 321 13 5 0 0 0 0 0 0 3 5 0 1 1 0 0 12 0 0 0 0 0 0 0 0 0 0 0
2759 3068 2625 2685 2607 2428 2509 2616 2575 1635 2196 2249 1977 1425 875 678 301 71 32 49 0 0 0 0 7 44 45 48 115 234 111 32 55 17 0 0 0 0 0 0 0 0 0
2962 2843 2949 3017 2901 2580 2459 2759 2795 2596 2289 2307 2194 2041 1414 1045 765 69 19 43 25 31 48 0 0 0 4 134 267 404 428 246 150 26 0 0 0 0 0 0 0 0 0
3094 3028 2924 3075 3106 3015 2626 2649 2727 2772 2603 2401 2451 2385 2083 1550 1146 764 478 107 157 58 41 22 0 0 3 49 75 30 95 180 244 78 21 17 1 0 0 0 0 0 0
3197 3188 3127 3098 3380 3248 2640 2620 2471 2719 2891 2717 2544 2693 2516 2060 1453 1111 578 441 117 125 0 18 34 9 0 17 121 99 37 43 179 195 62 61 61 7 15 0 7 0 0
3371 3377 3251 3110 3125 3259 2527 1992 2541 2599 2831 3018 2861 2855 2677 2115 1448 962 646 571 505 391 172 2 0 29 106 42 50 49 84 41 16 51 67 99 162 129 85 46 15 0 0
3521 3478 3394 3358 3234 3325 2604 1836 1823 2565 2815 3004 3023 2882 2843 2260 1894 1355 658 424 238 368 399 405 81 125 303 250 261 332 197 202 30 137 64 52 68 13 1 0 0 0 0
3551 3581 3593 3564 3429 3416 2990 2126 1676 2012 2578 2896 2901 2984 2976 2405 2304 1931 1514 792 481 296 306 153 423 588 412 528 703 490 383 285 122 81 89 42 5 0 0 0 0 0 0
3700 3588 3672 3655 3586 3504 3085 2599 1867 2003 2297 2448 2874 3005 2902 2908 2854 1720 1831 1698 997 567 353 119 23 216 207 312 417 373 90 76 3 22 77 29 2 0 0 0 0 0 0
3734 3654 3626 3674 3673 3698 3480 2759 2303 2392 2250 2455 2601 2964 2544 2800 2754 1783 1863 1943 1768 1208 719 261 35 4 35 53 78 278 87 67 38 23 20 0 0 0 0 0 0 0 0

GFSMA_con_mlcape_030.txt.gz
CAPE
1460 1320 1542 681 624 480 0 746 1009 896 858 1 113 26 23 15 280 113 147 170 233 441 687 1242 1174 1192 1253 1333 703 263 883 1163 925 927 1164 1050 965 947 658 401 366 660 643
1290 1280 1231 856 1106 727 472 759 485 17 168 202 175 31 10 0 23 270 26 94 196 376 854 1001 1504 1220 1259 1266 1400 1184 501 267 794 1218 1060 1243 1006 777 740 410 399 782 808
1585 1047 1385 928 1128 1450 1212 1212 759 188 13 88 24 42 21 19 0 44 58 33 115 288 536 1078 1153 1540 1259 1259 1455 1316 1287 1206 1031 1193 977 897 1246 1286 1108 1048 992 661 677
1742 1675 1125 847 468 1321 867 617 789 522 313 180 22 21 23 12 1 30 134 222 149 170 553 1029 830 1208 1135 1296 1297 1394 1355 1416 1288 1253 1465 1390 1372 1177 1229 1229 1171 1169 1050
1485 1838 1259 1327 1403 529 992 659 567 722 31 6 29 3 32 10 17 21 13 225 173 174 225 561 677 756 798 820 1100 1173 1294 1414 1263 1201 1213 1004 969 1128 1007 638 953 1106 1043
1586 1776 1570 1457 1337 700 1313 1050 847 48 12 0 15 12 10 2 33 17 25 109 258 142 75 101 249 313 571 702 715 704 796 1023 1113 1169 1106 1117 1037 878 822 703 604 675 723
1703 1868 1554 922 1215 942 1234 910 642 212 0 0 0 1 0 0 12 33 15 0 24 110 147 261 384 249 327 649 426 590 703 741 789 871 893 873 721 593 516 568 568 526 546
1701 1513 1543 1307 1360 1284 1389 1250 1092 431 0 0 37 30 20 7 5 11 0 0 5 3 11 361 303 399 268 370 143 229 624 964 1009 843 607 521 624 698 627 520 416 394 494
1446 1723 1374 1401 1320 1299 788 1329 1254 811 97 0 4 74 8 8 12 7 0 0 0 0 0 7 124 219 264 0 0 0 0 0 25 33 5 0 7 34 20 0 0 0 0
1796 2131 1736 1647 1459 1569 1126 894 1590 864 376 48 0 0 12 114 5 6 0 0 1 0 0 7 4 0 10 0 0 0 0 0 0 0 0 0 0 0 0 0 0 0 0
1419 1752 1923 1715 1714 1353 1303 1166 1508 894 1488 82 0 0 0 0 0 33 6 5 0 3 3 7 19 3 3 0 0 0 0 0 0 0 0 0 0 0 0 0 0 0 0
1625 1802 2151 1903 1785 1435 1636 1247 1370 1759 956 1057 263 127 0 0 0 2 29 30 4 7 2 0 0 4 13 4 0 0 0 0 0 0 0 0 0 0 0 0 0 0 0
1863 1789 1833 2221 1777 1738 1870 1621 1698 2015 1317 1209 618 65 31 90 62 12 2 17 27 3 0 0 0 0 0 17 0 0 0 0 0 0 0 0 0 0 0 0 0 0 0
1015 1912 1544 2102 2091 2047 1810 2374 2064 1918 2124 1317 1522 76 63 45 35 11 5 0 0 8 7 0 0 0 0 0 0 0 0 0 0 0 0 0 0 0 0 0 0 0 0
1400 1358 1807 1773 1879 2012 2238 1847 2248 2357 2068 1927 1544 1276 48 49 79 65 24 0 0 0 5 1 0 0 0 0 0 0 0 0 0 0 0 0 0 0 0 0 0 0 0
1118 1776 2203 2093 2261 2338 2642 2367 2483 2021 2125 2269 1774 1461 498 10 0 69 23 1 0 0 0 1 0 0 0 0 0 0 0 0 0 0 0 0 0 0 0 0 0 0 0
2562 1436 2820 2549 2390 2389 2474 2658 2368 2171 2239 2066 2096 1592 1061 135 25 65 22 9 0 0 0 0 33 0 0 0 0 0 0 0 0 0 0 0 0 0 0 0 0 0 0
1878 2855 2267 2388 2625 2429 2500 2529 2623 1937 2326 2335 2087 1870 1597 870 189 215 404 14 0 0 0 0 23 0 0 0 3 33 0 0 41 48 2 0 0 0 0 0 0 0 0
3141 2403 3083 2710 2487 2588 2421 2737 2697 2615 1922 2693 2649 2230 1680 1381 904 126 143 285 51 123 209 7 15 104 111 254 48 45 203 217 70 57 11 1 0 0 0 0 0 0 0
2691 2870 2816 3053 3096 2830 2780 2660 2751 2778 2645 2203 2730 2725 2276 1572 1247 954 103 28 381 145 65 175 44 0 150 214 314 121 202 289 296 265 12 0 1 0 0 0 0 0 0
2866 2913 2923 3005 3022 3211 3035 2803 2691 2802 2904 2725 2517 2790 2655 2273 1618 1438 879 514 42 482 448 187 189 201 67 92 259 242 126 49 124 137 129 17 3 8 2 1 0 0 0
3216 3235 3283 3144 3101 3223 3153 2793 2745 2798 2985 2853 2807 2657 2858 2559 2188 1593 1375 813 672 102 224 296 230 159 172 110 205 122 109 29 18 97 52 53 69 53 32 18 18 4 0
3488 3413 3447 3465 3225 3261 3061 2772 2625 2787 2846 2893 2898 2926 2851 2779 2487 2024 1436 1207 719 632 336 166 96 104 226 254 281 280 252 153 86 61 5 4 28 9 0 0 0 0 0
3688 3624 3638 3672 3564 3513 3156 2754 2553 2628 2774 2805 2887 2959 2939 2841 2814 2415 1814 1301 1107 691 526 568 430 266 304 598 551 505 356 202 186 175 110 23 25 12 0 0 0 0 0
3880 3884 3815 3842 3837 3713 3366 2921 2501 2583 2503 2615 2949 3018 3077 3074 2918 2408 2122 1638 1333 1063 596 388 452 685 458 128 594 446 338 148 71 75 50 32 56 44 0 0 0 0 0
4076 4054 4024 3943 3919 3929 3744 3152 2739 2912 2590 2470 2640 2953 2938 3162 3022 2404 2310 2079 1772 1409 973 481 223 112 51 186 280 492 269 132 94 67 42 25 9 0 0 0 0 0 0

GFSMA_con_mlcape_033.txt.gz
CAPE
619 742 954 684 604 580 107 171 718 262 391 61 45 21 317 208 77 36 261 508 755 1135 1457 1232 1369 1219 1064 589 620 1017 1054 985 1072 1121 1141 982 799 884 527 333 352 649 695
993 864 812 481 484 243 77 375 348 0 32 51 32 28 69 116 68 32 150 421 516 842 906 1522 1188 1198 1177 1331 1066 322 264 965 1053 988 973 1090 931 840 799 481 364 726 836
1248 894 547 732 726 806 549 725 285 157 39 61 99 52 26 67 73 34 37 101 199 243 1078 1121 1462 1128 1314 1183 1340 1307 1111 263 409 899 1010 806 1150 1193 1180 1046 1056 758 615
1235 967 974 672 755 952 1096 847 482 317 235 112 31 46 25 13 65 62 36 37 50 79 762 863 889 1244 1090 1044 1386 1434 1309 1303 1272 1334 1378 1304 1268 1190 1026 1205 1205 1071 1103
1419 1431 995 745 1021 545 653 527 642 507 81 62 47 31 28 25 24 54 62 85 125 128 331 777 512 483 806 1030 1133 1288 1311 1342 1184 1085 1118 1057 965 969 1046 859 598 815 836
1108 1356 1290 939 618 439 618 858 356 5 0 0 7 4 8 17 9 22 142 104 102 104 85 267 357 462 468 692 790 725 991 985 929 965 958 971 912 908 842 758 584 612 632
1123 1511 1336 1032 942 634 974 502 30 58 0 0 9 4 0 2 21 13 57 40 84 35 19 85 108 136 338 668 403 402 591 640 801 795 893 825 728 591 540 511 504 529 536
1298 1443 1062 1024 892 948 927 502 791 248 0 0 15 11 1 0 3 0 0 1 14 11 78 91 129 109 180 57 175 423 686 813 901 783 537 411 483 588 525 428 322 224 213
1367 1316 1268 1095 1315 1090 1074 776 876 227 0 0 2 15 2 0 4 4 1 0 1 0 86 306 208 124 108 61 0 0 20 34 208 180 87 37 45 40 14 0 0 0 0
1016 1266 1343 1003 1282 951 681 603 796 444 221 0 0 0 1 16 0 0 0 0 0 0 0 14 50 101 13 0 0 0 0 0 0 0 0 0 0 0 0 0 0 0 0
972 1352 1568 1175 1108 1415 1098 697 905 990 730 173 0 0 0 0 0 18 0 0 0 0 0 0 0 13 0 0 0 0 0 0 0 0 0 0 0 0 0 0 0 0 0
673 1092 1855 1569 1181 1162 1050 843 985 1111 651 919 67 45 0 0 0 0 0 1 0 0 0 0 0 0 0 0 0 0 0 0 0 0 0 0 0 0 0 0 0 0 0
850 958 1373 1681 1556 1227 1215 1169 952 1409 753 865 667 0 19 0 0 0 2 0 0 0 0 0 0 0 0 0 0 0 0 0 0 0 0 0 0 0 0 0 0 0 0
1227 1159 1278 1828 1623 1420 1231 1389 1229 1323 1554 609 847 185 0 24 45 0 0 0 0 0 0 0 0 0 0 0 0 0 0 0 0 0 0 0 0 0 0 0 0 0 0
931 1349 1372 1629 1771 1535 1203 1572 1632 1377 1737 1497 606 586 58 1 22 40 6 0 0 0 0 0 0 0 0 0 0 0 0 0 0 0 0 0 0 0 0 0 0 0 0
1046 1106 1403 1560 1646 1706 1517 1299 1996 2139 1608 1834 1517 880 121 64 37 60 52 4 0 0 0 16 0 0 0 0 0 0 0 0 0 0 0 0 0 0 0 0 0 0 0
1455 865 1572 1554 1595 1624 1850 1599 1334 1788 2062 1825 1855 1539 1112 282 22 24 82 49 0 0 0 0 0 0 0 0 0 0 0 0 0 0 0 0 0 0 0 0 0 0 0
1353 1967 1649 1871 1929 1667 1615 1931 1723 1809 1824 1757 1981 1742 1501 1175 313 0 141 27 17 0 0 0 38 45 0 0 0 0 0 0 0 0 0 0 0 0 0 0 0 0 0
1416 1250 2114 2331 2104 2058 1976 1986 1969 1962 1969 2048 1934 1947 1731 1433 931 591 31 310 70 5 7 0 10 51 2 1 0 0 0 0 1 39 80 0 0 0 0 0 0 0 0
1659 2046 1544 1989 2528 2294 2080 2120 2039 1901 1960 1750 2112 2376 2017 1715 1382 1047 676 92 329 179 122 96 5 64 160 91 14 27 44 100 68 178 95 17 0 0 0 0 0 0 0
1920 2131 2313 2263 2289 2534 2429 2255 2192 2129 2016 2025 1755 1984 2434 2218 1772 1440 1130 607 93 380 247 164 124 47 4 141 300 155 48 64 139 138 108 26 1 0 0 0 0 0 0
1964 2177 2469 2266 2511 2671 2736 2394 2414 2398 2330 2187 2078 1945 2178 2336 2254 1797 1442 1068 551 7 328 275 129 111 37 0 60 203 184 130 133 88 69 46 0 0 0 0 0 0 0
2838 2394 2151 2653 2374 2619 2696 2642 2583 2645 2532 2516 2402 2364 2232 2428 2471 2328 1675 1379 1104 798 131 129 180 64 39 55 68 146 147 116 61 7 11 3 31 10 25 19 0 0 0
2915 3004 2905 2586 2880 2834 2671 2566 2518 2852 2759 2600 2721 2672 2547 2494 2515 2513 2356 1786 1428 1113 939 286 105 144 72 42 40 87 87 77 46 20 5 18 4 4 0 0 0 0 0
3168 3167 3258 3228 3119 3151 3016 2769 2489 2732 2829 2811 2748 2763 2865 2780 2727 2411 2513 2295 1834 1550 849 684 384 76 27 298 522 418 184 84 39 38 1 22 46 11 0 0 0 0 0
3401 3457 3388 3525 3421 3405 3331 2931 2762 2975 2866 2814 2809 2716 2639 2823 2859 2523 2539 2469 2267 1876 1359 930 454 243 242 193 249 251 154 78 43 43 76 11 21 41 0 0 0 0 0

GFSMA_con_mlcape_036.txt.gz
CAPE
431 589 600 279 379 387 201 144 414 390 215 43 42 359 467 249 94 98 641 1221 1417 1296 1315 1311 1016 522 456 870 1023 1005 1064 1218 1290 1101 1022 1005 831 917 468 261 303 520 588
620 688 663 470 501 332 184 23 320 11 39 55 51 266 218 109 48 25 124 552 719 1266 1410 1193 1333 1252 1198 668 404 774 1147 1169 901 967 1039 1108 925 848 770 449 246 447 664
773 567 541 326 341 271 183 286 255 43 47 50 91 60 69 62 28 11 112 168 438 815 1087 1608 1237 1246 1167 1441 1386 829 295 233 548 897 1032 888 1085 1099 949 864 849 819 666
1000 806 459 458 508 463 628 313 332 146 63 70 43 35 44 43 43 11 38 66 161 256 1037 1196 1299 1055 1305 1332 1468 1388 1366 1212 1083 1217 1351 1250 1139 991 1030 1071 1125 1114 910
1019 730 733 517 421 608 518 375 364 328 118 98 81 34 25 42 60 32 24 18 27 67 732 579 667 575 751 887 1253 1326 1426 1273 1159 1109 1063 1166 1130 1040 1045 891 685 642 707
1310 898 743 618 737 296 467 522 160 0 0 15 16 22 21 15 31 38 35 31 56 46 156 326 262 262 548 825 808 816 1116 1149 995 987 923 854 813 733 670 657 595 592 640
805 1185 860 885 503 427 515 252 16 0 0 1 1 0 0 0 8 25 48 49 40 50 29 106 140 205 241 422 448 361 507 667 759 603 474 689 660 595 486 494 510 482 358
566 985 974 814 818 559 506 430 271 0 0 0 0 0 0 0 6 8 28 29 33 31 33 66 52 36 113 151 42 263 481 560 783 773 506 345 392 465 415 276 164 89 67
708 993 884 874 742 782 666 490 496 136 0 0 8 0 0 0 0 0 3 8 13 3 24 50 74 39 53 1 0 17 86 111 230 301 157 51 55 49 17 0 0 0 0
874 1044 981 880 831 1048 892 639 688 214 19 0 0 4 11 1 0 0 0 0 1 0 5 81 66 70 14 0 0 0 0 0 0 0 0 0 0 0 0 0 0 0 0
964 1035 918 873 714 1024 742 619 639 350 335 0 0 0 0 0 0 0 0 0 0 0 0 0 31 14 3 0 0 0 0 0 0 0 0 0 0 0 0 0 0 0 0
735 989 967 925 893 985 883 693 577 867 607 442 1 0 0 0 0 0 0 0 0 0 0 0 0 4 0 0 0 0 0 0 0 0 0 0 0 0 0 0 0 0 0
584 765 985 1098 1298 1104 1034 956 739 927 616 806 253 59 0 0 0 0 0 0 0 0 0 0 0 0 0 0 0 0 0 0 0 0 0 0 0 0 0 0 0 0 0
463 529 914 1198 1473 1338 1094 860 878 867 1114 540 702 209 12 24 35 54 15 0 0 0 0 0 0 0 0 0 0 0 0 0 0 0 0 0 0 0 0 0 0 0 0
674 636 667 946 1103 1476 1252 1086 918 954 1093 1214 563 690 157 11 16 48 4 1 0 0 0 0 0 0 0 0 0 0 0 0 0 0 0 0 0 0 0 0 0 0 0
672 911 950 1078 1138 1365 1444 1259 1169 1093 1249 1295 1272 519 446 129 25 11 39 0 0 0 0 0 3 0 0 0 0 0 0 0 0 0 0 0 0 0 0 0 0 0 0
953 885 1203 1140 1318 1320 1441 1351 1235 1344 1355 1390 1540 1351 732 194 24 11 9 26 5 2 0 0 2 2 0 0 0 0 0 0 0 0 0 0 0 0 0 0 0 0 0
694 1106 1147 1297 1343 1495 1556 1485 1290 1308 1593 1757 1679 1577 1414 1190 584 0 3 9 58 4 0 0 0 20 9 0 0 0 0 0 0 0 0 0 0 0 0 0 0 0 0
754 858 1556 1370 1230 1452 1584 1674 1523 1376 1291 1444 1674 1705 1620 1528 1297 959 41 0 24 44 0 0 0 3 26 9 1 0 0 0 0 0 0 0 0 0 0 0 0 0 0
981 775 1099 1652 1799 1712 1586 1641 1679 1581 1496 1534 1526 1696 1660 1659 1598 1435 1043 313 4 48 71 3 0 0 1 8 0 0 0 0 0 0 1 9 19 23 3 0 0 0 0
1520 1264 910 1154 1791 1906 2117 1963 1804 1650 1675 1807 1694 1749 1848 1833 1751 1667 1448 1197 766 348 51 185 28 0 9 25 19 2 0 0 0 3 0 1 28 0 0 0 0 0 0
1219 1422 1471 1569 1353 1705 2028 1989 2180 2062 1849 1813 1795 1731 1670 1832 1844 1805 1762 1686 1365 1169 723 136 122 81 26 8 24 22 7 4 23 20 29 17 0 2 0 0 0 0 0
1871 1368 1322 1642 1682 1947 2020 2059 2090 2265 2203 2136 2064 1989 1958 1875 1859 1913 1476 1594 1635 1357 1264 659 361 58 29 3 0 8 37 18 17 11 7 26 7 2 0 6 3 0 0
2445 2249 1853 1693 1915 1909 1869 1937 2088 2340 2360 2305 2332 2308 2251 2242 2158 2043 2083 1657 1474 1512 1140 829 381 303 72 33 2 0 1 23 6 7 17 21 0 2 1 15 12 9 0
2556 2546 2596 2394 2063 2081 2140 1988 1984 2255 2387 2589 2628 2510 2528 2506 2408 2125 2228 2256 2002 1688 1430 1082 980 688 183 56 1 0 5 9 22 35 8 17 0 0 0 0 0 0 0
2728 2691 2658 2746 2764 2649 2310 2249 2200 2480 2458 2495 2600 2737 2531 2532 2592 2363 2382 2427 2458 2352 1835 1612 980 657 405 129 38 32 53 7 5 0 0 0 0 0 0 0 0 0 0

GFSMA_con_mlcape_039.txt.gz
CAPE
326 516 388 85 207 302 264 16 313 136 45 44 73 307 348 412 138 136 606 1287 1122 1249 1261 709 452 878 1169 1126 1051 1100 1278 1229 968 780 770 961 763 863 467 265 280 419 520
317 424 508 327 413 398 241 59 273 7 28 56 85 298 262 206 83 47 415 1087 1362 1160 977 1298 975 593 540 729 998 1087 1112 1006 960 1039 1107 1040 906 851 646 695 346 368 556
512 655 507 401 312 259 127 152 307 97 34 59 88 82 118 69 52 28 94 409 812 1123 1022 1011 1313 1203 1169 923 426 251 421 902 886 1007 1107 924 973 1055 933 921 938 1004 868
639 475 388 337 307 297 316 128 272 154 80 61 47 53 63 57 38 13 56 162 306 581 831 1141 791 1088 1100 1159 1275 1228 913 473 394 660 1002 1109 884 943 910 964 735 525 684
743 670 519 472 441 474 379 293 342 277 60 90 59 21 45 48 39 9 26 37 72 74 663 681 509 499 536 844 1089 926 1156 1169 1054 1030 984 899 895 794 849 678 509 542 434
1071 674 710 463 409 419 179 227 46 0 4 31 23 6 13 27 47 14 8 25 39 52 339 455 317 402 371 647 564 653 843 965 912 839 775 717 601 517 448 406 378 365 389
1203 660 569 523 488 277 371 262 16 0 0 0 0 0 0 0 24 37 38 43 69 39 65 121 68 76 171 469 494 459 476 608 680 643 523 390 319 361 270 252 243 258 296
982 1106 548 668 525 404 533 335 33 0 0 0 0 0 0 0 0 2 26 59 40 36 15 47 27 31 43 161 72 78 284 372 495 547 440 278 213 232 202 92 10 0 0
547 1037 952 790 644 615 435 358 269 0 0 0 0 0 0 0 0 0 0 18 29 18 8 11 31 0 27 30 0 0 8 25 148 138 69 14 10 10 0 0 0 0 0
450 876 865 737 704 688 698 575 375 163 0 0 0 0 0 0 0 0 0 0 0 4 0 0 30 43 24 1 0 0 0 0 0 0 0 0 0 0 0 0 0 0 0
460 706 956 827 809 773 861 802 535 440 56 0 0 0 0 0 0 0 0 0 0 0 0 0 34 53 57 20 0 0 0 0 0 0 0 0 0 0 0 0 0 0 0
397 619 855 891 755 678 804 677 561 452 288 33 0 0 0 0 0 0 0 0 0 0 0 0 4 65 41 15 0 0 0 0 0 0 0 0 0 0 0 0 0 0 0
451 526 764 883 767 777 780 699 495 574 543 535 165 0 0 0 0 0 0 0 0 0 0 0 0 39 60 3 0 0 0 0 0 0 0 0 0 0 0 0 0 0 0
481 446 713 894 848 873 1067 878 826 731 682 535 630 123 37 0 0 0 0 0 0 0 0 0 0 0 1 0 0 0 0 0 0 0 0 0 0 0 0 0 0 0 0
442 330 532 698 821 908 1221 1147 868 736 831 841 504 566 193 45 23 23 10 0 0 10 1 2 0 0 0 0 0 0 0 0 0 0 0 0 0 0 0 0 0 0 0
508 426 413 627 816 889 1107 1246 1108 835 876 941 936 736 598 424 65 15 36 25 3 5 4 0 5 0 0 0 0 0 0 0 0 0 0 0 0 0 0 0 0 0 0
486 604 535 599 745 752 869 1057 1311 1151 892 789 1076 1086 994 559 413 204 15 14 24 0 2 0 0 0 0 0 0 0 0 0 0 0 0 0 0 0 0 0 0 0 0
602 609 734 775 836 1010 994 1021 1182 1474 1231 949 990 1228 1210 1256 1027 509 85 12 1 0 18 20 0 0 0 0 0 0 0 0 0 0 0 0 0 0 0 0 0 0 0
668 698 771 1044 1056 1179 1257 1215 1231 1290 1442 1337 1113 1117 1262 1349 1170 1161 976 428 0 0 0 0 11 0 0 0 0 0 0 0 0 0 0 0 0 0 0 0 0 0 0
703 799 797 721 1018 1225 1275 1389 1426 1406 1381 1433 1454 1400 1382 1426 1398 1212 1091 1064 785 184 0 0 0 0 0 0 0 0 0 0 0 0 0 0 0 0 0 0 0 0 0
930 785 921 1084 987 1152 1471 1461 1436 1429 1441 1470 1426 1417 1451 1495 1431 1445 1368 1175 953 850 663 166 0 0 0 0 3 1 0 0 0 0 0 0 0 0 0 0 3 0 0
1264 1072 753 894 1128 1226 1192 1345 1572 1705 1697 1639 1574 1515 1466 1503 1581 1436 1337 1457 1420 1064 968 840 806 505 171 1 0 0 0 0 0 0 0 0 0 0 0 0 4 0 2
1107 1166 1202 953 833 1018 1152 1250 1403 1736 1721 1784 1852 1806 1772 1726 1694 1786 1508 1423 1286 1329 1465 1474 985 918 637 315 43 3 0 0 0 0 0 0 0 0 1 0 0 0 0
1353 1230 1112 1232 1301 1319 1245 1033 1232 1650 1811 1876 1892 1856 1860 1913 1905 1847 1911 1868 1622 1548 1253 955 1252 1496 991 681 105 36 20 4 0 0 0 0 1 0 6 6 0 3 2
1961 1847 1735 1489 1314 1405 1441 1411 1371 1643 1859 1985 2114 2117 2179 2182 2127 1932 2066 2161 2196 2046 1530 1321 1182 1175 1098 823 454 30 29 0 15 6 0 3 2 0 2 12 1 0 17
2211 2314 2394 2434 2141 1911 1701 1606 1418 1771 1853 1938 2166 2302 2271 2330 2311 2188 2294 2352 2406 2357 2285 2004 1565 1220 994 921 328 115 157 44 3 35 37 2 3 0 0 0 4 3 1

GFSMA_con_mlcape_042.txt.gz
CAPE
341 383 235 82 207 282 137 8 255 31 43 58 50 285 474 308 81 259 705 993 745 936 512 604 1285 1145 1129 1176 1299 1302 1054 1172 961 587 594 814 503 744 467 295 210 364 631
283 362 435 289 338 314 218 69 57 25 43 71 105 242 262 252 87 71 387 1031 822 721 1045 764 472 519 818 892 876 924 1049 1085 1092 1084 1102 946 776 798 635 732 623 751 674
212 315 341 400 329 285 85 221 176 54 47 69 88 172 168 118 53 29 183 441 940 939 556 768 975 633 597 553 511 674 767 827 672 788 997 771 755 746 895 988 980 728 712
317 446 338 347 271 299 306 173 215 82 74 62 68 62 84 60 45 16 44 162 279 447 909 624 547 997 1125 1067 982 633 344 172 153 261 542 626 734 694 779 617 681 491 462
434 527 343 297 365 384 316 280 198 323 83 87 40 37 59 61 40 20 42 59 111 164 483 649 486 287 479 575 847 770 800 984 1006 883 809 823 706 358 360 376 421 376 353
532 693 320 323 384 290 152 204 50 0 30 53 44 12 23 32 49 13 26 29 17 41 237 455 345 368 242 564 613 473 667 820 823 583 718 599 365 245 352 338 207 250 249
706 798 571 349 273 250 258 169 22 0 6 0 11 5 0 0 21 24 22 18 38 18 82 168 123 112 128 417 541 438 447 511 625 722 582 461 349 297 225 172 133 103 105
901 929 506 443 218 255 398 199 21 0 0 0 0 0 0 0 0 1 9 18 20 21 25 63 64 47 60 107 159 108 180 213 369 548 352 207 135 145 104 18 0 0 0
618 973 919 548 548 345 459 334 60 0 0 0 0 0 0 0 0 0 0 2 18 5 3 2 44 31 15 43 10 17 51 15 47 136 71 25 27 14 0 0 0 0 0
441 571 754 845 664 537 549 428 247 44 0 0 0 0 0 0 0 0 0 0 0 0 0 0 13 51 44 33 0 0 0 0 0 0 0 0 0 0 0 0 0 0 0
281 449 608 704 638 679 568 690 546 195 3 0 0 0 0 0 0 0 0 0 0 0 0 0 23 58 69 43 7 0 0 0 0 0 0 0 0 0 0 0 0 0 0
213 303 569 729 771 737 658 772 711 406 248 33 0 0 0 0 0 0 0 0 0 0 0 0 0 24 83 43 18 0 0 0 0 0 0 0 0 0 0 0 0 0 0
182 269 400 570 669 706 717 649 646 618 365 264 117 0 0 0 0 0 0 0 0 0 0 0 0 0 15 75 12 0 0 0 0 0 0 0 0 0 0 0 0 0 0
53 337 376 459 592 752 727 744 677 579 713 540 513 331 114 0 0 0 0 0 0 0 0 0 0 0 0 58 54 12 1 0 0 0 0 0 0 0 0 0 0 0 0
68 295 447 457 532 652 762 828 1043 868 788 795 606 456 423 208 21 0 0 0 18 9 0 0 1 0 0 0 13 50 21 0 0 0 0 0 0 0 0 0 0 0 0
94 310 466 536 501 637 730 820 1008 1108 947 811 869 802 641 455 339 59 21 0 0 0 5 0 0 0 0 0 0 1 3 0 0 0 0 0 0 0 0 0 0 0 0
66 163 419 452 461 534 671 847 983 1101 1134 1041 882 1008 943 812 685 462 167 40 0 0 7 12 0 0 0 0 0 0 0 0 0 0 0 0 0 0 0 0 0 0 0
162 165 452 500 488 522 647 795 795 966 1093 1225 1128 929 819 1052 1019 938 847 507 104 0 0 0 0 0 0 0 0 0 1 0 0 0 0 0 0 0 0 0 0 0 0
231 280 378 518 534 623 715 818 945 954 1088 1212 1358 1233 1096 970 994 1104 1101 1026 674 317 22 0 0 0 0 0 0 0 0 0 0 0 0 0 0 0 0 0 0 0 0
449 433 465 543 624 665 976 1031 1110 1204 1219 1295 1375 1443 1430 1273 1150 1196 1066 1070 1094 935 721 597 266 71 0 0 0 1 0 0 0 0 0 0 0 0 0 0 0 0 0
509 527 591 609 705 756 742 1094 1359 1267 1254 1312 1365 1439 1549 1554 1408 1315 1319 1184 920 787 826 566 522 369 243 175 124 28 0 0 4 0 0 0 0 0 0 0 0 0 0
805 746 718 757 674 749 786 644 864 1462 1544 1453 1311 1277 1346 1394 1438 1384 1281 1334 1506 1320 1168 1033 857 830 778 539 279 247 144 162 194 19 0 0 0 0 0 0 4 5 0
1002 980 871 864 868 873 745 745 809 1018 1253 1443 1484 1546 1597 1623 1562 1665 1480 1255 1216 1270 1461 1720 1601 1416 1291 1144 882 546 262 297 393 144 0 0 0 0 0 0 0 0 0
909 1077 1127 1072 926 887 742 655 752 1096 1186 1200 1250 1390 1524 1595 1691 1682 1730 1770 1777 1660 1372 1279 1481 1797 1838 1716 1314 1041 820 461 123 90 1 3 5 0 0 0 0 0 0
1141 1043 1083 1150 1173 1162 858 717 648 994 1243 1296 1526 1605 1601 1593 1700 1547 1809 1881 1999 2090 1879 1591 1553 1580 1458 1295 1108 1270 838 177 169 245 97 0 0 0 0 0 0 0 0
1551 1526 1391 1368 1265 1293 1181 1025 877 1216 1236 1312 1587 1796 1747 1925 1947 1799 1946 2131 2307 2364 2356 2308 2092 1562 1285 1327 984 623 1016 1168 907 520 352 0 2 0 0 0 0 0 0

GFSMA_con_mlcape_045.txt.gz
CAPE
774 860 744 575 790 833 465 718 728 322 445 285 626 868 919 788 281 303 854 662 744 754 559 1299 1374 1211 1052 1139 1308 1173 1078 1010 683 495 635 679 439 600 478 668 446 487 566
887 764 475 521 1043 1017 732 884 214 137 337 677 846 833 947 703 328 302 384 861 608 637 884 410 562 745 995 840 728 863 1043 1020 968 877 890 603 707 804 816 662 851 905 706
609 842 769 493 957 804 479 861 651 344 211 470 749 783 796 641 338 242 300 453 707 561 650 835 743 463 467 510 555 688 703 682 489 469 609 851 680 495 612 846 810 571 545
638 1064 910 1041 900 797 727 867 685 253 82 131 352 468 530 458 290 130 211 270 388 424 710 609 432 798 774 827 844 541 320 244 147 203 345 747 547 629 572 426 433 479 437
843 1038 990 972 983 1145 1122 1035 558 750 208 112 90 162 331 320 183 42 295 334 343 379 552 631 421 348 434 522 795 910 911 1019 903 898 818 701 716 539 344 396 347 292 308
879 1155 996 922 861 643 780 816 60 48 361 349 49 30 75 102 243 53 185 217 210 284 429 725 532 412 200 512 757 675 627 707 437 443 634 474 469 410 265 267 146 241 221
1010 1223 1094 878 915 857 661 616 100 49 58 68 58 37 28 21 134 133 156 198 285 242 325 489 409 315 242 157 429 473 416 513 600 657 613 592 358 300 187 146 126 82 76
1193 1468 1202 644 735 716 610 655 438 11 29 21 25 30 16 10 17 44 114 195 299 325 288 353 478 428 360 147 110 71 115 201 383 465 262 163 118 141 84 17 0 0 0
1137 1510 1302 1035 814 509 385 460 471 0 0 23 1 10 1 9 22 9 14 113 390 361 380 356 356 396 413 284 83 0 10 0 38 132 73 17 19 10 0 0 0 0 0
977 1370 1585 1232 901 1004 681 969 741 146 0 11 7 13 0 5 5 6 0 6 55 262 338 324 230 354 452 273 126 0 0 0 0 0 0 0 0 0 0 0 0 0 0
915 1148 1278 1070 666 971 844 1154 998 684 35 0 0 37 56 7 0 0 0 1 0 5 66 300 239 323 514 453 324 159 0 0 0 0 0 0 0 0 0 0 0 0 0
791 967 1196 1247 1356 1332 1284 1330 1167 997 822 226 0 18 100 123 87 20 1 62 23 65 127 222 235 251 406 553 445 95 0 0 0 0 0 0 0 0 0 0 0 0 0
660 802 892 1100 1188 1346 1423 1340 1419 1366 1155 874 563 19 0 0 6 65 34 118 102 224 153 202 239 260 302 529 536 236 76 0 0 0 0 0 0 0 0 0 0 0 0
257 732 740 972 1144 1391 1475 1414 1391 1462 1459 1365 1026 879 788 387 10 8 30 37 107 437 371 271 443 365 366 451 556 271 247 24 0 0 0 0 0 0 0 0 0 0 0
224 651 662 923 1050 1175 1328 1466 1449 1657 1490 1550 1673 1569 1289 1053 643 293 85 60 171 245 184 366 272 346 316 410 453 545 521 366 17 0 0 0 0 0 0 0 0 0 0
208 265 733 937 1175 1192 1336 1469 1486 1698 1924 1831 1572 1638 1429 1089 1067 811 581 340 224 241 280 309 312 380 379 191 228 169 380 285 87 0 0 0 0 0 0 0 0 0 0
334 380 656 834 1115 1234 1295 1441 1440 1591 1834 1957 1891 1659 1561 1757 1506 1305 1009 774 557 340 246 204 387 269 332 379 306 203 205 282 277 6 0 0 0 0 0 0 0 0 0
430 534 727 704 1009 1184 1295 1328 1285 1459 1713 1724 1890 1960 1804 1694 1630 1777 1692 1445 994 903 477 232 353 372 345 397 432 381 332 217 184 103 0 0 0 0 0 0 0 0 0
470 584 781 671 952 1083 1231 1295 1275 1453 1731 1724 1798 2007 1989 2016 1867 1664 1804 1656 1607 1580 1245 797 688 630 433 237 269 334 268 231 261 95 0 0 0 0 0 0 0 0 0
582 691 817 896 959 1078 1253 1310 1423 1477 1650 1867 1902 1985 2073 2168 2075 2061 2059 2015 2033 1828 1588 1431 1132 1060 1085 1000 753 448 433 464 361 215 125 0 0 0 0 0 0 0 0
769 806 890 932 1084 1114 1134 1231 1414 1659 1691 1834 2006 2118 2166 2170 1978 1986 2169 2239 2179 2019 1826 1596 1414 1285 1207 1167 1049 997 941 906 831 695 470 345 246 80 9 0 0 0 0
851 1053 1034 1106 1131 1159 834 804 1037 1452 1894 1967 1736 1951 2043 1779 1611 1311 1242 1345 1795 2296 2128 2026 1916 1904 2224 2075 1901 1820 1678 1546 1647 1549 1065 579 308 342 211 95 0 0 0
1067 1117 1129 1167 1269 1374 926 557 569 1081 1339 1572 1905 2132 2228 2070 1909 1989 1918 1380 1222 1255 1454 1941 2200 2439 2533 2614 2585 2503 2448 2348 2094 1944 1434 1343 1071 823 405 386 36 0 0
1457 1342 1366 1390 1389 1524 1176 775 595 870 1309 1629 1720 1760 1888 1896 2022 2062 2064 2094 2189 2253 2108 1533 1549 1897 2398 2677 2848 2751 2565 2153 1697 1585 1412 964 1073 1066 960 686 186 0 0
1377 1489 1638 1702 1519 1511 1113 800 721 1105 1273 1477 1805 1871 1914 1913 1929 1686 1601 1450 1743 2247 2338 2186 2066 1949 1813 1619 1396 1399 1601 1769 1696 1547 1722 1040 1030 1057 1012 874 666 65 0
1436 1482 1530 1765 1855 1810 1607 807 622 1210 1369 1469 1807 2027 1763 1741 1852 1634 1697 1914 2238 2543 2821 3114 3256 2469 1879 1815 1507 1017 1562 1740 1766 1758 1923 1739 1270 670 647 863 651 424 199

GFSMA_con_mlcape_048.txt.gz
CAPE
865 841 874 825 786 730 569 602 493 554 844 697 757 695 462 175 78 305 791 670 948 547 1131 1419 1404 1286 1053 1228 1351 1121 1176 887 523 558 776 687 591 634 654 759 697 913 676
1118 726 639 954 1090 909 730 548 363 108 77 215 772 594 471 341 247 155 386 577 482 807 568 457 786 899 1035 841 737 976 1111 989 912 744 756 565 797 880 807 836 842 744 527
842 820 824 758 1094 977 999 618 298 104 92 85 391 554 332 486 312 331 321 408 532 389 545 989 622 454 496 541 587 718 725 688 567 484 501 634 706 742 732 771 689 532 548
1304 877 686 824 1108 695 539 138 95 89 77 56 74 137 152 240 305 305 278 327 260 599 478 393 568 736 797 986 908 686 469 363 279 291 436 851 919 746 523 450 391 459 416
1533 1408 1038 1109 983 811 812 193 115 73 89 47 49 62 60 69 77 98 300 191 141 224 387 198 287 338 577 579 690 991 992 989 868 609 652 668 661 605 407 440 369 235 266
1519 1666 1101 841 798 429 652 659 238 110 110 68 25 27 53 51 62 51 65 68 14 91 137 566 639 398 86 326 833 800 734 813 827 800 719 678 357 379 323 331 134 203 190
1535 1899 1092 763 829 460 524 789 191 431 80 74 43 13 6 21 144 95 72 36 49 61 102 134 219 332 414 41 198 315 353 402 462 479 462 395 373 248 171 96 92 27 0
1701 1624 1214 825 1093 765 365 412 735 55 45 44 57 31 22 19 39 67 61 52 85 82 104 201 73 194 64 0 7 0 25 78 153 179 130 92 66 50 40 4 0 0 0
1645 1760 1100 1057 643 824 610 769 807 283 44 39 109 55 18 25 29 2 78 51 149 123 162 267 239 139 226 199 87 12 0 0 2 64 34 17 6 1 2 0 0 0 0
1547 1718 1563 1188 887 1028 918 865 830 130 242 22 17 17 45 43 40 44 0 31 130 183 244 268 230 287 331 237 203 0 0 0 0 0 0 0 0 0 0 0 0 0 0
1607 1490 1623 1180 1151 887 1136 1345 1378 937 0 35 29 13 74 94 62 41 44 85 90 82 118 328 260 268 405 367 313 359 0 0 0 0 0 0 0 0 0 0 0 0 0
1235 1599 1756 1822 1118 969 1468 1290 1272 1572 821 284 17 64 111 220 238 174 114 258 200 226 248 278 325 328 351 477 510 267 68 0 0 0 0 0 0 0 0 0 0 0 0
393 887 1696 1933 1630 1550 1641 1541 1406 1676 1521 919 1019 0 0 9 119 158 237 184 283 316 379 384 399 495 431 434 457 391 198 14 0 0 0 0 0 0 0 0 0 0 0
133 335 1487 1526 1721 1808 1816 1900 1686 1570 1541 1536 1538 1190 325 302 315 51 66 210 201 452 434 693 478 504 628 658 615 544 425 207 17 0 0 0 0 0 0 0 0 0 0
271 429 648 1268 1216 1500 1756 1835 1441 1861 1759 1795 1833 1820 1475 640 795 533 389 278 270 356 354 790 213 624 477 513 663 741 799 653 242 26 0 0 0 0 0 0 0 0 0
840 429 778 792 937 1399 1612 1868 1485 1701 1953 1910 1426 1532 1865 804 920 946 822 588 474 445 324 266 394 475 757 767 492 627 683 701 509 252 20 0 0 0 0 0 0 0 0
986 1194 782 713 1074 1546 1686 1878 1714 1507 2070 2079 1946 1747 1873 2008 1435 1018 937 835 758 644 489 255 225 343 909 1148 989 984 833 757 551 289 117 6 0 0 0 0 0 0 0
1269 1318 1172 1050 994 1182 1629 1956 1889 1397 1838 1963 2001 1990 1969 1791 2025 1994 1497 1376 905 809 655 791 817 570 581 693 796 1006 1077 688 378 250 153 34 0 0 0 0 0 0 0
1453 1316 1287 1352 1310 1112 1569 1856 1937 1865 1801 1932 2032 2028 2122 2249 2259 1885 1750 1488 1478 1789 1848 1758 1495 1092 907 1019 1113 1355 1228 1114 1026 693 283 76 7 0 0 0 0 0 0
1550 1529 1313 1426 1477 1205 1147 1580 1780 1933 1850 1889 2139 2175 2279 2441 2601 2736 2746 2613 2498 2333 1792 1718 1397 1020 781 840 1050 1210 1324 1374 1322 1374 1203 858 433 71 0 0 0 0 0
1613 1698 1512 1483 1580 1341 1023 1208 1394 1503 1802 1980 2090 2368 2410 2509 2569 2694 2644 2665 2622 2461 1878 1444 1297 1333 1385 1490 1739 1714 1908 1939 1958 2051 1994 1958 1806 1498 1073 5 0 0 0
1741 1822 1601 1587 1654 1449 799 699 963 1102 1383 1872 2078 2251 2418 2428 2412 2125 1928 1694 1743 2333 2870 2387 1877 1730 2393 2410 2192 2103 1916 1920 2248 2704 3034 2736 2567 2482 2211 1953 1495 408 5
1870 1937 1816 1737 1855 1937 1226 683 692 947 993 1467 1919 1995 1924 1506 1871 2230 2030 1898 1738 1508 1425 1823 2236 2437 2516 2509 2795 3003 2863 3074 3233 3207 3008 2764 2674 2534 2268 2103 1709 1053 416
2004 2001 1965 2042 2119 2139 1744 1245 752 1175 1329 1454 1591 1718 1956 1911 1841 1960 2208 2154 2167 2275 2367 2117 2208 2313 2269 2429 3105 3487 3234 3071 2993 2761 2580 2332 2439 2556 2455 2329 2009 1404 909
2125 2098 2100 2232 2259 2287 1722 1393 1150 1408 1467 1759 1838 1922 2134 2208 2171 1973 2054 1879 1866 1937 1748 1630 1754 1937 2077 2136 2153 2345 2210 2445 2630 2847 2867 2638 2718 2808 2616 2286 1849 1243 872
2271 2243 2326 2426 2416 2517 2295 1472 1268 1610 1498 1525 1887 2314 1916 1889 2046 1880 2035 1870 1938 2043 2452 2956 3584 2848 2443 2718 2456 2226 2522 2531 2643 2623 2760 2381 2308 1903 1468 1329 759 435 397

GFSMA_con_mlcape_051.txt.gz
CAPE
763 796 655 629 631 552 371 483 161 393 43 122 359 312 97 115 573 658 664 733 546 1050 1500 1411 1489 1079 967 1342 1185 1026 1033 720 498 682 781 741 697 742 746 619 678 743 561
1340 896 781 1015 937 229 393 403 611 124 133 78 104 148 218 101 234 606 728 564 604 532 382 767 707 896 867 788 730 1008 1134 938 804 556 557 660 652 542 556 658 677 658 541
1265 1288 899 660 937 623 593 157 51 45 60 257 29 209 52 296 150 282 697 557 489 653 710 575 482 407 495 480 512 574 550 532 439 361 270 238 621 675 562 616 427 475 490
1246 1344 820 396 619 471 642 58 31 29 51 58 115 101 91 92 106 216 170 620 926 797 501 538 750 789 738 903 885 734 559 403 404 378 418 645 877 801 659 390 463 404 336
1308 811 824 1036 1062 629 376 141 39 4 54 44 15 37 66 27 103 77 97 160 28 583 957 244 262 276 401 576 670 829 952 907 934 594 559 572 602 582 546 324 335 168 216
1383 1489 1140 905 937 184 545 647 234 52 32 16 19 43 57 48 39 69 29 43 0 54 652 704 576 448 185 218 573 750 657 688 820 773 812 780 543 390 334 268 100 119 119
1244 1570 885 1011 993 389 760 393 71 46 53 14 6 8 12 17 40 30 31 30 1 32 17 120 500 859 282 95 295 417 385 366 479 458 410 278 472 241 188 68 38 4 0
1437 769 1099 1122 740 938 975 684 425 79 29 20 60 29 17 27 52 109 20 21 63 87 174 219 60 104 311 378 690 0 0 21 92 203 207 105 53 52 58 32 1 0 0
1562 1485 1136 1273 1031 1423 655 820 732 417 97 8 64 64 26 18 107 3 87 100 210 204 183 281 237 175 174 344 95 45 0 0 0 2 12 4 1 19 11 0 0 0 0
1542 1535 1376 1459 1086 983 1246 888 975 549 511 32 1 27 60 53 43 183 16 62 153 196 272 284 327 352 379 340 290 8 0 0 0 0 0 0 0 0 0 0 0 0 0
1505 1539 1347 1438 1542 1144 1203 1389 1428 812 26 541 20 13 11 29 47 152 294 154 203 109 176 435 337 323 567 412 393 519 46 0 0 0 0 0 0 0 0 0 0 0 0
1143 1386 1540 1591 1448 1258 1617 1453 1339 1219 981 315 372 159 162 125 282 172 162 293 228 271 281 283 373 380 417 597 639 287 170 0 0 0 0 0 0 0 0 0 0 0 0
317 1150 1635 1790 1612 1568 1515 1608 1810 1518 1311 838 724 162 11 87 136 215 180 226 283 334 520 521 492 587 549 550 580 529 327 71 0 0 0 0 0 0 0 0 0 0 0
91 1736 1816 1537 1823 1894 1595 1718 1581 1505 1395 1340 1380 1114 671 128 316 255 181 366 430 573 744 505 560 661 698 744 755 503 586 289 111 0 0 0 0 0 0 0 0 0 0
180 401 1287 1522 1402 1383 1717 1738 1256 1619 1859 1903 1617 1613 1360 673 589 491 329 376 423 611 685 1380 300 660 429 406 598 857 825 867 408 184 19 0 0 0 0 0 0 0 0
650 648 561 796 1304 1300 1447 1906 1318 1735 1722 1625 1217 1906 1809 1219 847 925 800 606 426 463 503 395 545 491 646 691 667 772 742 617 505 455 274 79 1 0 0 0 0 0 0
1434 1273 1164 1075 1123 1148 1504 2084 1732 1628 1636 1722 1899 1673 1784 2023 1454 846 867 774 716 703 649 556 415 456 1118 1559 1455 1447 1193 1253 964 509 300 155 46 1 0 0 0 0 0
1663 1644 1755 1420 1189 1098 1765 1990 1785 1127 1825 1818 1825 1846 1800 1880 2291 2289 1954 1634 1133 1244 973 1010 979 1140 1442 1430 1437 1693 1353 1396 1144 909 463 214 66 2 0 0 0 0 0
2009 1635 1910 1973 1574 1295 1700 2120 2140 1863 1639 1655 1726 1976 2048 2104 2328 2071 2229 1522 1344 1803 2047 2070 1994 1724 1442 1351 1357 1709 1968 2018 1965 1589 1143 708 338 105 1 0 0 0 0
2159 2125 2217 2152 1905 1689 1505 1548 2000 2098 2054 1810 1957 2041 2151 2295 2577 2839 2670 2754 2545 2292 1892 1878 1746 1720 1415 1151 1212 1529 1833 1916 2157 2122 2115 1959 1550 661 393 140 15 0 0
2222 2396 2447 2296 2139 1809 1445 1456 1874 2105 2203 2066 2038 2155 2185 2338 2286 2734 2679 2724 2624 2661 2219 1857 1584 1353 1235 1407 2033 2046 2065 2403 2125 1890 2069 2919 3166 3064 2285 881 527 330 93
2331 2469 2449 2491 2200 1689 1115 864 1284 1634 1885 2133 2282 2403 2400 2275 2128 2107 2240 2283 2255 2688 3098 2455 1885 1712 2020 2186 2178 2126 2108 1967 2421 2804 3501 3398 3213 3134 3011 2920 2763 1877 1092
2484 2653 2635 2633 2501 2362 1304 777 645 1078 1538 1791 2002 2402 2373 1660 2082 2596 2441 2219 2035 1759 1634 1883 1935 2014 2040 2448 2787 2815 2398 2996 3658 3524 3210 3052 3033 2819 2827 2684 2586 2266 1754
2344 2551 2763 2822 2718 2722 1966 1212 713 1035 1189 1426 1982 2231 2440 2199 2249 2367 2554 2457 2726 2989 2824 2337 2279 2532 2887 2983 3114 3106 3314 3331 3298 3138 3195 3011 3051 3170 3224 2893 2243 1517 980
2616 2675 2931 2945 2853 2833 2046 1553 1230 1306 1355 1712 1974 1958 2085 2410 2759 2267 1924 1917 2187 2461 1798 1461 1440 1589 1769 1767 1592 2091 2702 2985 2945 2985 3219 3206 3196 2989 2575 1540 1198 798 592
2903 2567 2827 3079 3143 3153 2785 1775 1462 1817 1644 1713 2100 2381 2170 2098 2283 2218 2458 2561 2629 2820 2551 2435 2714 3005 2937 3073 2627 2339 2752 2964 3000 2851 2927 2788 2691 2289 1368 1209 835 392 144

GFSMA_con_mlcape_054.txt.gz
CAPE
763 803 221 74 744 307 256 126 761 714 652 507 256 249 340 721 783 558 332 747 1178 1318 1287 1377 996 815 935 1170 968 955 797 505 616 778 760 583 623 642 592 696 637 651 553
961 1170 1090 530 435 31 154 43 330 302 247 333 144 106 279 679 893 696 556 387 118 654 1118 1155 788 736 1093 907 816 1102 1062 765 601 327 322 561 670 595 613 614 577 531 550
1557 1489 860 350 174 686 1063 476 177 51 264 124 69 155 431 424 477 961 570 566 598 244 319 377 305 469 421 317 386 432 366 269 201 202 205 212 514 662 617 409 440 470 381
1247 1389 847 1056 856 336 23 16 35 52 129 123 76 69 201 122 144 563 706 780 757 804 794 727 494 395 499 677 762 659 526 389 402 440 498 629 793 678 574 362 359 284 251
1053 507 658 967 94 430 327 167 57 30 184 50 36 47 153 39 155 104 435 791 989 665 766 388 558 357 469 633 699 744 949 910 890 865 586 518 412 511 466 291 232 148 189
1280 584 643 996 1153 77 10 471 252 31 132 37 10 86 119 85 110 117 22 138 175 743 818 501 394 262 243 487 561 563 617 632 721 782 795 787 752 420 330 216 124 65 9
1341 523 913 961 857 786 109 779 91 46 167 30 12 1 1 10 16 155 138 32 13 742 956 952 701 1044 157 265 275 108 163 275 351 286 217 89 347 256 206 85 50 0 0
1315 1310 1025 903 539 962 1034 916 900 299 28 34 41 169 9 31 102 47 150 78 115 221 238 281 581 725 693 432 481 16 0 0 1 33 56 17 29 29 29 26 0 0 0
1413 1493 1339 1050 966 863 897 757 861 667 144 28 24 330 11 41 141 37 42 243 82 171 385 250 360 253 186 663 564 77 0 0 0 0 0 0 0 3 5 0 0 0 0
1359 1872 1229 1548 887 1090 686 1066 830 852 47 160 8 176 159 79 56 158 226 205 154 187 236 528 477 467 446 367 611 296 52 0 0 0 0 0 0 0 0 0 0 0 0
1788 1826 1512 1621 1285 1327 1090 1068 1080 760 916 416 2 10 4 94 60 313 169 243 210 406 440 305 506 629 562 492 537 273 77 0 0 0 0 0 0 0 0 0 0 0 0
1602 1918 1603 1675 1686 1331 1094 1394 1357 1160 859 938 526 692 30 182 348 418 495 473 426 227 330 441 389 392 782 636 529 647 294 43 0 0 0 0 0 0 0 0 0 0 0
1051 1451 1642 1525 1491 1516 1307 1444 1301 1689 1113 1322 643 620 496 113 193 232 266 520 380 412 533 517 547 566 550 592 779 573 324 155 4 0 0 0 0 0 0 0 0 0 0
875 1218 1805 1604 1632 1591 1705 1482 1432 1457 1494 1103 1380 997 919 1132 182 312 213 344 525 822 800 582 730 718 727 721 825 637 529 311 147 21 0 0 0 0 0 0 0 0 0
615 1606 1510 2231 1809 1951 1338 1693 1469 1050 1787 1624 1500 1506 1084 1314 1186 500 481 384 587 528 884 881 461 627 587 538 742 615 597 678 499 309 142 30 1 0 0 0 0 0 0
492 1865 1883 1691 1811 1855 1969 1779 1665 1239 1479 1874 1555 1919 1632 1158 1489 1155 1005 963 664 502 552 707 831 943 950 820 810 845 900 753 642 454 327 179 81 10 0 0 0 0 0
1577 837 1663 1835 1683 1545 1872 1884 1445 1775 1713 1354 1877 2038 1991 1664 1639 1986 1510 966 850 1041 964 936 1264 1132 1384 1471 1337 1249 1283 1164 1226 998 807 508 264 109 7 0 0 0 0
1176 2288 1226 1781 1329 1753 1752 1733 2037 1372 1808 1705 1643 1518 2144 2329 2020 1611 1887 1993 2059 2160 1643 1399 1384 1076 1237 1790 1891 1943 1882 1583 1433 1546 1171 887 628 304 34 0 0 0 0
1835 1445 2292 1569 1970 1510 1610 1901 2210 1765 1726 2287 2185 2031 1870 2028 2137 2722 2431 2008 1652 1823 1846 1765 2267 2639 2318 1922 1778 2002 2211 1904 1757 1805 1764 1507 1196 910 431 206 39 0 0
1646 1915 1798 2264 2138 1860 1573 2010 2458 2362 2068 1889 2271 1905 2206 2390 2348 2498 2394 2239 2361 2285 2032 1920 1817 2132 2226 1967 2175 2272 2202 2268 2152 2502 2251 1505 2192 2351 1674 1151 636 252 202
1921 2147 2121 2335 2393 2261 1824 1724 1914 2415 2384 2226 2128 2228 2282 2490 2498 2630 2898 2975 2835 2757 2809 2868 2812 2497 1952 1981 1896 2214 2552 2702 2243 1878 1890 3482 3577 3293 3299 2330 1630 1334 1077
1836 2155 2361 2343 2596 2391 1925 1350 1665 1768 2438 2367 2247 2216 2536 2320 1956 1769 1913 2234 2381 2545 2721 2985 2946 2416 2099 2061 2367 1870 1717 2091 1990 2894 3713 3159 3418 3258 3259 3050 2703 2099 1962
1844 2160 2399 2594 2619 2656 1823 1176 1135 1549 1825 2252 2555 2529 2598 2431 2160 2314 1892 1670 1775 1848 1890 2019 1900 1842 1746 1863 2276 2433 2562 2827 3053 3516 3250 3141 3383 3182 3208 3372 3036 1856 1247
1911 2125 2438 2628 2752 2783 2339 1262 896 1085 1476 1903 2064 2104 2217 2396 2047 2532 2695 2808 2544 2490 2319 1988 1980 2273 2527 2609 2694 2612 2810 2945 2723 3064 3110 2915 3124 3283 3322 2476 2125 1403 635
2214 2234 2513 2678 2626 2890 2535 1906 1004 933 1094 1159 1294 1402 2202 2751 2450 1741 1327 1481 1829 2189 2653 2546 2596 2408 2333 2279 2401 2397 1935 2025 3014 3116 3121 2904 2959 2871 2368 1977 1588 141 5
2344 2444 2495 2724 2891 2859 2693 2181 1542 1491 1356 1352 1588 1741 1743 1473 1451 1862 2394 2555 2354 2348 2617 2791 2729 2622 2726 3067 2998 2519 2968 3103 2929 3071 2895 2690 2589 2444 1790 1228 241 0 0

GFSMA_con_mlcape_057.txt.gz
CAPE
452 612 439 379 335 434 526 259 6 27 243 477 531 278 214 127 155 740 947 1091 1306 1179 1228 994 1124 909 990 970 959 922 640 415 696 776 390 425 430 359 418 512 546 446 425
732 490 200 606 219 52 239 108 301 39 260 411 99 447 557 512 189 111 480 970 1167 1264 1414 1262 757 867 1373 1158 943 983 912 589 454 218 172 173 417 499 597 461 450 433 416
914 991 457 153 206 565 588 563 434 159 271 237 84 207 672 726 627 405 218 166 550 962 1224 826 567 654 426 333 288 257 232 149 108 85 140 216 409 738 529 423 377 376 244
911 752 614 470 128 509 83 74 55 208 126 57 151 220 342 488 820 618 565 410 255 212 415 466 284 259 333 412 431 427 379 326 346 541 597 558 589 567 486 405 267 132 153
512 435 578 757 403 238 160 86 63 96 87 73 35 118 131 202 493 637 535 657 658 711 362 523 436 395 533 803 831 735 705 739 696 689 473 406 380 383 341 322 230 91 112
402 0 303 736 416 190 42 290 182 49 152 24 37 70 182 76 151 226 427 751 843 734 636 369 578 449 351 598 562 577 511 555 504 623 588 633 583 529 284 245 228 63 2
811 414 388 598 263 20 17 223 52 57 83 34 10 33 23 83 78 156 158 343 643 563 779 336 310 370 228 251 311 273 248 252 289 245 108 35 80 197 105 72 10 12 0
707 297 396 669 656 332 720 565 752 88 171 26 32 70 13 3 35 68 107 62 142 565 829 709 511 674 514 240 270 104 28 0 8 41 59 14 23 24 9 0 0 0 0
1007 1062 867 853 277 738 611 574 458 414 22 31 29 76 13 28 122 90 50 132 44 248 529 581 569 452 407 479 454 329 91 0 0 0 0 0 0 0 0 0 0 0 0
899 1248 865 672 720 764 827 329 640 575 36 33 5 33 78 78 38 28 114 156 84 325 292 218 401 313 223 363 554 449 158 0 0 0 0 0 0 0 0 0 0 0 0
1145 1182 1044 1360 744 639 474 745 962 999 695 621 11 39 0 11 93 267 155 136 74 140 170 233 400 353 359 354 439 401 285 43 0 0 0 0 0 0 0 0 0 0 0
1313 1535 1185 1056 998 892 911 940 1402 794 447 713 503 271 14 74 299 347 389 216 148 137 292 211 271 502 438 446 513 466 422 231 5 0 0 0 0 0 0 0 0 0 0
1233 1504 1244 1240 1362 987 973 666 1266 1220 921 686 788 492 580 539 216 308 183 284 429 254 234 244 287 250 400 464 469 544 524 282 105 5 0 0 0 0 0 0 0 0 0
932 1238 1257 1234 945 1243 1164 1105 1037 849 1090 769 795 1075 462 552 783 542 127 131 278 422 838 337 489 328 350 479 503 535 564 375 181 77 8 0 0 0 0 0 0 0 0
922 708 1387 1138 1131 1337 1157 1302 933 905 1477 1347 748 562 563 559 871 1039 350 201 323 305 438 719 689 718 483 516 568 652 460 396 281 261 170 52 10 0 0 0 0 0 0
252 913 1555 1346 1339 1207 1192 1562 1161 1291 1017 1511 1297 1587 1076 371 390 1646 934 763 699 458 345 494 471 1205 1063 849 778 638 514 550 646 574 363 339 220 150 17 0 0 0 0
1018 962 1517 1500 1617 1550 1455 1406 1378 1378 1219 1137 1595 1379 1552 1590 966 1383 1862 1586 991 782 701 653 1012 1237 1020 890 824 994 965 1075 998 901 793 746 680 551 242 33 44 12 0
287 1571 1449 1219 1371 1487 1535 1609 1544 1400 1375 1505 1540 1354 1629 2059 1606 1476 1401 1406 1614 1781 1585 1253 1075 952 1833 2129 1949 1824 1878 1962 1698 1489 1290 1102 935 886 832 545 506 207 19
113 487 1514 1575 1461 1310 1161 1353 1445 1258 1351 1371 1717 1574 1415 1258 2016 2110 1863 1932 2010 1911 2338 2157 2077 2268 2077 1703 1878 1918 2136 2173 2276 2113 1907 1817 1356 1822 1872 1455 1040 784 574
526 565 1104 1345 1210 1110 1275 1313 1449 1416 1422 1257 1756 1962 1845 1833 1785 1738 1948 2005 1881 1857 1790 1718 1616 1808 2151 2370 2294 2004 1601 1911 1865 1678 1457 1755 3264 3036 2616 2376 1768 1371 1077
278 1271 1228 1565 1525 1400 1279 1210 1427 1535 1678 1565 1338 1367 2089 1988 1855 2038 2180 2205 2359 2312 2280 2392 2476 2723 2790 2493 1965 1625 1354 1237 1978 1983 2335 3283 2892 3038 3332 2961 2585 2147 1547
1402 782 902 1398 1701 1846 1603 1342 1244 1611 2106 1999 1815 1778 1577 2013 2012 1887 2070 2355 2492 2484 2613 2827 2719 2534 1973 1595 1365 1463 1702 1889 2025 2590 3051 2767 2937 3004 3030 3137 3107 1802 984
278 1587 1452 1381 1398 1656 1779 1630 1374 1229 1326 1760 2025 2018 1926 1890 1889 2126 1993 1765 1632 1582 1765 1875 1743 1640 1621 1695 1954 2019 1848 2012 2115 2545 2898 2680 2923 2800 3013 3246 2079 854 0
727 607 1229 1667 1695 1695 1871 1688 1522 1266 1342 1292 1664 2158 2139 2037 2052 2071 2030 2062 1942 1680 1614 1545 1593 1936 2028 2109 2162 2049 2264 2550 2881 2579 2264 2891 2899 2778 2886 2198 909 0 0
1222 1043 1291 1657 1823 1951 1806 1822 1493 993 1068 1285 1373 1477 1669 1923 1928 1885 1673 1635 2138 2659 2915 2616 2516 2255 1929 1985 2003 2116 2580 2844 2615 2770 3069 2954 2801 2580 2311 1331 67 0 0
1069 1482 1316 1609 1924 1949 1987 1793 1581 1517 915 917 1088 1239 1495 1789 1941 2024 2105 1913 1603 1149 1253 1553 1886 1834 1958 2102 2109 1868 2507 2773 2859 2974 2770 2734 2667 1949 891 803 149 0 0

GFSMA_con_mlcape_060.txt.gz
CAPE
161 214 77 31 97 307 48 113 1 37 242 376 397 207 266 208 306 770 1030 984 1010 1169 1461 1232 1290 1039 938 1002 942 899 429 326 572 661 175 444 476 446 472 483 407 433 410
314 302 281 273 202 206 350 155 168 47 168 408 204 216 102 104 279 515 711 1078 1008 1247 1229 899 835 873 1153 1003 764 843 826 542 301 104 63 45 115 491 379 364 382 386 330
341 180 69 302 157 194 94 54 180 87 141 229 163 253 257 111 45 259 488 650 1038 1062 1320 1189 582 755 1032 647 425 520 324 119 50 81 116 206 326 615 567 420 317 261 191
506 432 111 83 55 376 165 18 239 155 92 79 118 373 378 487 351 128 141 291 467 668 1186 801 495 591 394 294 332 385 368 321 264 415 684 619 540 524 524 429 242 92 130
497 384 336 236 155 65 39 15 64 93 63 44 72 154 371 422 559 530 445 286 146 187 291 532 353 253 396 656 734 864 801 742 712 703 688 413 440 428 344 279 184 54 55
163 267 332 204 211 47 19 34 51 43 93 46 45 88 85 154 477 388 400 513 520 571 336 255 492 396 351 689 801 740 714 662 627 496 584 497 412 400 354 204 164 52 6
0 97 207 399 33 50 43 135 55 46 94 29 10 24 36 131 117 220 384 457 545 654 614 499 338 515 368 342 465 441 417 410 234 214 153 52 4 102 115 108 43 24 0
436 92 166 160 120 43 81 293 123 175 41 19 21 33 0 4 33 42 129 266 392 594 650 673 315 355 376 288 292 314 99 49 26 15 17 7 0 0 0 0 0 0 0
523 313 337 164 413 257 447 278 155 61 6 19 29 16 0 0 75 68 55 97 106 271 513 737 547 410 427 393 299 409 241 67 0 0 0 0 0 0 0 0 0 0 0
760 729 770 771 153 551 383 290 567 175 21 28 22 48 43 64 38 29 50 128 8 237 303 476 657 553 472 286 311 419 450 219 0 0 0 0 0 0 0 0 0 0 0
850 1081 707 583 524 591 444 104 642 611 339 200 11 30 10 11 70 174 150 120 74 51 195 247 208 353 278 246 322 438 551 302 135 0 0 0 0 0 0 0 0 0 0
975 892 775 791 556 501 350 456 756 409 344 578 182 106 20 89 244 320 260 208 94 63 119 127 120 229 222 197 290 396 440 386 279 94 0 0 0 0 0 0 0 0 0
952 1061 939 873 411 555 661 576 1107 926 442 391 616 360 322 416 260 272 97 321 310 257 150 199 162 167 271 247 263 411 475 446 371 240 15 0 0 0 0 0 0 0 0
850 1140 1102 978 917 657 793 540 700 745 671 426 556 726 524 420 731 638 193 79 221 284 424 480 319 210 173 239 269 334 423 427 383 304 80 4 0 0 0 0 0 0 0
830 1170 1171 1123 965 974 754 669 718 599 648 662 353 250 429 447 414 603 912 101 182 202 294 528 540 633 565 294 310 469 509 432 401 342 195 88 61 6 0 0 9 5 2
859 853 1120 1115 1013 816 919 856 649 711 700 1127 933 709 557 387 314 441 1464 736 473 395 354 315 376 820 1138 855 826 738 604 554 482 473 409 381 386 270 174 120 62 110 55
815 953 1027 920 1015 884 987 1035 842 776 920 860 1048 1095 928 1313 1224 935 1241 1363 1380 977 684 563 578 1112 1096 1054 1811 1706 1502 1362 1311 1392 1402 1232 931 768 760 527 470 517 190
491 646 710 1011 1097 1000 834 998 981 1110 971 1102 930 1133 1302 1528 1612 1442 1396 1267 1163 1270 1383 1207 1124 1509 1636 1909 1651 1746 2124 1999 2100 2174 1959 1645 1324 1156 1412 1844 1404 1029 738
90 1035 1310 1154 1227 1098 1109 1089 1068 1056 1130 1147 1236 1260 1201 1144 1301 1848 1795 1740 1610 1729 2091 2049 1946 1814 1759 1486 2086 2157 1896 1679 1608 1408 1670 1774 2089 2624 2367 2182 1935 1604 973
0 77 863 1390 1220 1186 1292 1205 1189 1119 1042 1048 1150 1141 1549 1522 1285 1164 1455 1527 1610 1636 1618 1534 1441 1505 1866 2224 2331 2280 2244 1495 1258 1640 1993 2187 2428 2555 2707 2786 2541 1867 548
20 0 133 835 1340 1172 1041 918 943 911 856 818 989 1196 1287 1732 1885 1701 1820 1775 1832 1824 1870 1921 1970 2285 2458 2437 2380 2062 1407 1463 1651 1760 2058 2633 2469 2611 2783 2870 2548 346 0
63 50 72 198 820 1325 1153 1058 1017 943 937 899 716 1209 1344 1280 1336 1760 1824 1924 2035 2051 2056 2106 2111 2114 2042 1855 1538 1559 1752 1846 1778 1910 2299 2339 2481 2688 2656 2817 567 0 0
0 109 218 497 1022 1261 1256 1028 955 1041 1017 1023 973 1323 1453 1611 1646 1557 1599 1862 1821 1983 2225 2271 2071 1895 1771 1667 1752 2008 2112 1901 1971 2172 2609 2743 2300 2697 2608 1591 0 0 0
69 0 289 493 609 1252 1386 1220 1084 1109 1055 1106 1224 1375 1507 1487 1611 1724 1691 1554 1628 1703 1662 1406 1456 1647 1615 1745 2014 2242 2079 2117 2363 2758 2566 2597 2756 2689 2354 0 0 0 0
640 170 184 846 793 901 841 919 961 1088 1144 1155 1111 1164 1306 1322 1291 1574 1774 1742 1731 1731 1811 1913 1945 2024 2114 2029 1711 1926 2137 2273 2492 2594 2731 2959 2669 2579 2045 82 0 0 0
791 814 482 376 916 1289 1371 1098 897 1134 985 1063 1172 1155 1165 1441 1420 1313 1430 1423 1432 1340 1349 1321 1419 1312 1370 1628 1715 1647 2183 2217 2530 2644 2641 2791 2708 1783 730 597 1 0 0

GFSMA_con_mlcape_063.txt.gz
CAPE
50 154 111 68 131 164 49 26 13 166 295 422 297 337 486 179 366 739 1106 1195 1161 1312 1283 1178 1234 1057 895 1046 768 829 271 229 459 473 68 278 401 434 406 325 366 310 236
130 276 73 103 267 196 248 139 126 96 171 385 284 239 198 139 265 674 743 899 826 1016 1249 1012 1061 823 984 885 755 831 725 541 302 123 70 95 120 389 487 341 302 323 218
312 301 253 264 176 97 171 326 198 151 203 278 141 152 135 107 199 428 529 681 920 1159 1354 908 628 686 1239 1161 697 692 704 311 158 177 157 269 396 467 323 286 256 148 125
409 292 87 228 67 293 169 92 119 194 160 147 111 223 228 145 102 238 318 307 603 859 1085 1374 861 471 587 470 378 389 450 461 441 456 671 685 542 507 398 350 228 66 73
549 432 195 167 156 101 66 36 65 94 50 36 106 291 405 393 347 221 194 150 210 380 428 789 759 415 508 635 701 731 887 872 802 814 754 575 469 561 522 296 168 48 1
430 406 385 248 24 44 62 39 69 35 45 40 99 179 289 321 461 500 395 335 226 153 169 130 208 373 330 454 787 847 788 733 645 655 530 476 250 156 312 236 157 47 0
210 245 355 288 214 35 35 51 30 45 66 36 15 30 28 39 103 352 455 402 440 424 500 489 283 312 355 421 526 639 499 439 467 352 297 103 0 0 40 0 0 0 0
5 184 179 207 24 37 112 193 66 244 64 11 16 23 5 0 49 63 162 250 332 487 468 554 481 405 250 323 272 298 476 196 30 31 15 0 0 0 0 0 0 0 0
500 224 317 228 169 60 255 217 78 79 17 6 18 5 0 0 19 27 21 52 164 227 425 460 503 453 227 179 313 383 439 433 131 8 0 0 0 0 0 0 0 0 0
842 299 178 264 399 325 416 213 348 69 12 11 18 57 18 18 14 6 16 52 51 47 81 218 410 525 426 301 284 258 263 372 401 180 1 0 0 0 0 0 0 0 0
826 752 724 902 450 481 480 349 519 360 51 57 16 29 11 0 3 67 101 74 89 48 115 192 224 321 361 379 317 237 287 434 485 395 184 1 0 0 0 0 0 0 0
861 874 827 746 602 478 592 162 497 570 367 429 100 28 10 59 136 158 180 164 91 77 61 88 139 150 138 186 200 202 289 374 439 447 288 166 3 0 0 0 0 0 2
906 911 899 723 630 505 517 370 566 465 357 412 319 87 66 272 111 134 49 215 249 218 171 87 104 110 97 133 164 195 247 324 350 345 297 242 130 24 5 0 1 22 3
812 1001 914 887 873 493 707 596 728 745 700 375 607 797 440 422 601 736 184 84 147 156 172 526 331 322 247 128 130 197 246 288 357 339 316 295 205 90 0 0 3 61 122
785 912 917 919 1035 856 586 831 538 661 833 638 387 366 406 516 420 412 881 84 140 134 209 254 362 518 683 443 336 338 402 523 645 709 543 458 430 223 149 133 173 158 138
802 917 940 855 1030 1085 930 763 738 701 638 572 742 533 361 288 431 341 1055 798 446 348 356 141 341 456 990 1092 964 1520 1495 1526 1575 1525 1461 1330 1261 1014 776 638 775 743 684
857 870 951 1017 934 1125 1060 948 816 757 775 585 871 1036 867 825 915 1162 907 1181 1161 967 820 773 646 1054 1274 1474 1588 1444 2014 1797 1617 1405 1112 1201 1250 1129 1520 1584 1517 1431 1042
246 666 879 1014 1006 1060 1065 908 904 996 884 846 954 969 1029 1094 1233 1497 1280 1287 1283 997 1103 1072 1075 1567 1670 1516 1379 1903 2128 1927 2003 1219 1342 1749 2066 2171 2277 2418 2147 1473 801
0 90 376 869 1054 885 999 991 930 989 1063 1063 1044 1254 1103 1099 1365 1406 1547 1661 1545 1557 1569 1593 1584 1502 1418 1446 1904 2094 2226 1999 1234 1492 1477 1991 2325 2260 2379 2357 1933 1015 288
0 0 138 705 927 778 990 1097 999 943 1013 1172 1164 1154 1254 1315 1446 1354 1204 1437 1629 1405 1469 1425 1383 1420 1606 1895 2107 1901 1454 1455 1633 1701 1638 1798 2300 2333 2488 2256 611 2 0
0 0 1 257 856 1292 1213 1102 1064 1114 1064 1067 1222 1219 1174 1247 1356 1656 1621 1496 1531 1640 1603 1633 1621 1602 1501 1456 1548 1745 1569 1597 1817 1692 1659 2037 2281 2385 2419 494 0 0 0
0 0 0 0 162 603 1172 1128 1045 1161 1166 1065 983 968 1050 1131 1218 1146 1425 1849 2035 1907 1757 1732 1837 1833 1715 1699 1548 1506 1498 1763 2045 1746 2027 2287 2464 2415 2151 0 0 0 0
0 0 0 0 0 161 344 752 964 1081 938 908 927 904 927 1026 1088 1385 1327 1214 1225 1497 1860 2137 2093 1926 1755 1688 1574 1586 1765 1904 1677 1729 2122 2613 2514 2492 395 0 0 0 0
2 0 0 0 0 87 32 24 274 921 1079 1007 1040 1002 1013 1062 1093 1383 1492 1509 1577 1480 1290 1177 1429 1773 1821 1864 1628 1792 1895 1660 1814 2072 2399 2612 2392 2557 48 0 0 0 0
61 35 0 0 0 3 100 60 99 754 958 981 982 1033 1164 1159 1219 1096 1411 1257 1324 1556 1619 1483 1481 1402 1303 1366 1258 1466 1498 1695 2064 2230 1962 2487 2473 2485 379 0 0 0 0
391 237 74 0 0 117 58 116 183 573 870 974 1091 1017 811 975 1117 1081 1108 1180 1102 1161 1205 1061 1111 1035 945 1136 1008 1056 1567 2089 2178 1994 2208 2510 2474 2136 1110 236 0 0 0

GFSMA_con_mlcape_066.txt.gz
CAPE
97 169 235 77 173 30 103 0 114 352 413 545 480 445 633 355 555 864 1162 1292 1211 1409 1292 1208 1191 959 801 984 703 790 354 267 329 160 77 120 75 302 484 371 270 364 230
145 118 84 104 231 261 235 157 115 172 312 462 408 496 411 241 433 694 907 1076 1000 1098 1368 1036 1089 768 900 837 683 753 728 561 215 109 129 174 240 267 518 237 226 242 171
187 150 309 204 253 135 303 431 322 230 319 378 318 263 306 242 260 518 585 837 982 1074 1324 1061 732 674 915 1156 856 577 570 394 282 304 307 435 534 381 347 329 210 141 101
411 224 175 275 214 329 222 163 178 267 252 236 233 280 243 222 233 338 418 480 593 825 973 1355 1315 746 647 733 541 489 576 617 602 585 617 580 532 438 343 298 250 66 22
452 233 129 243 147 214 109 36 135 250 176 163 259 261 411 457 348 252 258 301 314 509 481 590 936 872 582 756 780 842 856 862 702 666 648 546 525 432 419 385 154 47 0
382 303 298 93 200 82 62 56 125 97 120 118 99 258 456 506 591 551 513 359 275 192 167 170 129 194 363 428 524 790 946 683 549 441 394 353 210 16 0 203 122 75 0
348 263 320 149 76 56 49 56 45 103 108 21 41 71 90 68 133 247 536 540 450 461 419 452 517 360 283 344 449 496 639 735 414 176 142 97 20 0 0 0 0 0 0
96 146 291 208 135 41 157 129 66 247 93 9 16 11 0 0 14 127 133 279 355 383 477 506 514 544 477 300 241 406 483 451 566 241 22 0 0 0 0 0 0 0 0
168 80 224 254 29 33 254 263 96 110 28 5 6 19 5 0 10 58 100 50 57 149 220 351 462 486 495 384 240 205 304 372 437 544 333 21 0 0 0 0 0 0 0
659 373 173 324 276 311 217 144 320 170 19 22 0 60 34 18 59 119 34 94 104 109 51 85 162 307 439 496 446 429 381 311 312 431 541 418 30 0 0 0 0 0 0
837 511 299 340 277 368 402 329 430 284 51 35 18 22 17 13 57 161 209 201 141 158 98 121 200 225 260 312 300 337 306 280 248 317 428 520 376 194 109 110 162 115 37
800 741 719 504 302 361 531 355 343 518 370 236 145 28 15 125 188 188 212 240 183 173 152 107 89 135 145 123 133 193 233 223 224 248 313 389 387 355 327 246 271 315 404
675 693 750 665 384 493 459 436 250 471 441 381 329 122 53 407 238 270 82 202 326 342 350 201 282 238 191 149 135 119 160 164 219 299 436 461 440 411 391 328 294 235 256
457 640 778 768 599 601 495 356 446 640 487 360 575 753 473 463 602 677 663 169 225 181 215 557 446 631 660 485 396 452 860 960 1040 1186 1236 1167 1000 906 817 721 570 442 393
343 592 696 629 675 745 525 584 527 464 533 550 396 421 492 566 489 403 865 251 257 237 261 266 410 508 958 1098 1138 1476 1499 1758 1536 1263 990 1000 983 906 855 881 948 1117 816
367 446 615 748 645 865 793 583 541 642 526 591 747 574 364 339 398 448 725 791 590 533 503 253 513 708 1233 1643 1585 1544 2030 1781 1753 1465 1281 1348 1760 1827 1851 1768 1584 1276 981
327 473 703 872 757 711 753 934 641 627 672 694 565 769 801 796 740 1029 1150 1142 1088 878 1203 1179 837 1163 1613 1748 1536 1801 2244 2179 2016 1466 1377 1499 2077 2098 2174 2133 2032 1405 918
197 632 777 867 838 840 783 825 902 766 614 716 794 773 888 1070 1105 1114 1451 1366 1311 1232 1157 1238 1269 1567 1476 1422 1600 2029 2293 1971 1644 1777 1419 1561 1995 2248 2286 2087 1557 869 356
3 43 311 697 852 932 982 987 1051 934 809 803 871 904 985 1038 1038 1287 1474 1404 1607 1606 1524 1408 1482 1528 1533 1622 1758 1897 1765 1702 1750 1860 1577 1702 1891 2237 2196 1632 569 0 0
0 0 8 89 293 502 762 913 823 965 966 825 872 1050 1116 1180 1266 1288 1330 1370 1364 1437 1497 1475 1530 1486 1600 1833 1804 1666 1566 1712 1708 2068 1595 1575 2046 2201 1450 195 0 0 0
0 0 0 1 107 287 550 779 822 858 951 827 840 855 974 1114 1105 1139 1250 1565 1549 1511 1516 1600 1587 1641 1604 1731 1712 1849 1696 1615 1845 1845 1538 2048 2408 2442 401 0 0 0 0
0 0 0 0 0 130 263 481 909 1113 1029 932 859 949 1025 1021 995 905 928 1080 1455 1721 1788 1805 1680 1492 1739 1848 1718 1730 1701 1688 1887 1859 1949 1963 2558 2414 381 0 0 0 0
0 0 0 0 0 0 5 31 177 734 1056 941 918 979 927 920 865 972 802 815 927 932 1135 1527 1488 1776 1748 1754 1662 1797 1722 1726 1817 1731 1890 2124 2371 2179 18 0 0 0 0
0 0 0 0 0 0 0 0 0 159 419 718 887 947 929 909 924 949 982 974 1086 1296 1233 1131 1216 1417 1515 1615 1651 1678 1541 1472 1544 1680 1994 2280 2010 2118 37 0 0 0 0
0 0 0 0 0 0 0 0 0 0 23 92 295 478 729 908 912 754 1023 917 1065 1100 1271 1060 1225 1291 1255 1192 1127 1209 1263 1427 1537 1825 2039 1976 2235 2039 256 0 0 0 0
126 13 24 0 0 25 0 0 0 1 0 0 65 205 279 762 803 682 853 769 827 879 1034 1062 970 876 761 842 622 657 1192 1282 1439 1922 1942 2076 2162 2035 1329 92 0 0 0

GFSMA_con_mlcape_069.txt.gz
CAPE
668 794 659 620 701 577 498 449 960 935 1183 1217 1175 1193 989 649 802 784 865 1249 1315 1338 1299 1157 1183 989 811 803 707 704 553 443 321 240 150 243 227 320 702 476 294 364 314
695 641 508 717 838 945 749 781 782 934 1104 1098 1104 1181 799 606 828 923 884 989 963 1089 1348 1032 1126 804 962 925 676 661 724 577 298 269 330 303 430 581 548 525 329 245 215
789 348 953 756 826 774 1025 1066 1052 962 995 946 959 946 855 713 684 954 931 1024 994 938 1263 1261 902 711 695 973 743 558 444 421 423 488 449 506 788 451 457 375 391 221 125
806 822 728 590 887 999 866 878 907 910 887 855 936 942 914 869 776 967 986 959 919 888 902 845 1360 1149 762 897 896 714 734 754 836 798 665 675 501 442 558 664 326 229 43
973 696 705 952 802 824 469 600 843 910 746 758 745 884 1101 1116 1126 845 1000 1009 902 927 880 633 504 693 762 741 766 908 1015 979 740 595 456 463 440 356 138 216 280 169 27
876 735 731 839 865 640 431 619 690 589 715 674 416 681 1023 1126 1212 1193 1160 1074 1028 954 814 909 948 644 287 442 567 624 765 927 766 464 398 250 156 43 0 3 106 47 49
893 833 693 644 686 434 423 434 493 619 586 461 498 450 573 723 722 723 924 1037 1082 1011 1048 1055 1138 1078 823 584 406 519 557 596 770 714 194 50 0 0 0 0 0 0 0
839 809 880 571 600 286 469 419 407 717 608 271 290 352 167 224 343 537 655 644 764 830 830 1034 1180 1208 1256 1057 796 319 399 539 640 757 749 302 8 0 0 0 0 0 0
364 551 832 769 556 469 799 666 473 568 317 170 243 285 220 270 527 501 609 483 451 568 713 777 955 1090 1170 1159 1061 860 527 316 359 444 668 749 546 94 0 0 0 0 0
887 548 786 826 501 441 861 857 961 650 124 191 163 374 350 374 483 482 536 532 550 548 580 604 704 838 1015 1103 1014 803 491 367 324 328 435 628 710 570 337 155 59 18 0
1031 1037 718 915 725 1022 837 837 835 171 204 172 154 314 283 326 631 818 523 641 685 637 626 607 691 789 899 894 916 850 375 272 239 237 296 416 584 764 790 670 610 486 374
905 1281 1063 937 1017 1018 858 1005 1007 1074 940 724 645 442 271 559 848 843 845 935 790 852 883 819 745 791 830 847 651 270 286 391 532 691 853 956 1050 1021 935 959 1005 945 858
1292 1253 1271 1152 942 982 771 1213 887 962 1084 1065 1063 780 564 1083 1185 1175 792 692 767 894 1073 1121 1374 1525 1301 1364 1284 941 1324 1245 1372 1073 869 788 779 890 1191 1194 1117 961 907
1040 1304 1257 1018 1165 1193 1106 1038 1161 1103 1116 1115 930 1432 1245 1273 1430 1479 1548 837 752 741 892 1041 1329 1432 1926 1897 1895 1709 2230 2255 1446 1568 1077 1059 1355 1463 1024 1063 1103 1083 1080
905 1156 1303 1264 1271 1282 1325 1067 1130 1050 1287 1386 1230 1237 1329 1421 1306 1193 1486 1127 989 798 750 1003 1103 1595 2023 2359 2094 2253 2648 2233 1797 1271 1261 1210 1772 1867 1830 1843 1701 1472 1230
886 1058 1155 1309 1327 1361 1291 1186 1199 1325 1113 1209 1273 1349 1131 1086 1122 1223 1331 1422 1441 1490 1115 1329 1341 1729 2219 2501 2016 2452 2929 2255 2466 1606 1448 1198 1755 2051 2104 2152 2009 1605 1157
863 1030 1118 1218 1424 1386 1534 1433 1374 1192 1309 1368 1245 1258 1445 1639 1208 1312 1656 1792 1699 1503 1443 1420 1854 2027 2316 2532 2264 2584 2649 2526 1730 2007 1688 1275 1530 1954 2135 2112 1663 992 609
824 884 1106 1285 1528 1555 1567 1514 1093 1383 1206 1200 1306 1370 1203 1524 1810 1927 1769 2002 1884 2102 1736 1761 1910 1969 2303 2400 2561 2735 2362 1859 2405 1943 1695 1410 1574 1921 2024 1740 949 198 0
808 879 1063 1303 1451 1551 1544 1463 1494 1197 1580 1380 1405 1461 1485 1757 1759 1702 1983 2010 1955 2241 2306 2112 1897 2045 2179 2151 2266 2093 2504 2654 2076 1725 1484 1551 1880 1902 1570 572 0 0 0
197 586 784 900 1326 1594 1642 1695 1683 1727 1840 1733 1615 1575 1579 1727 1823 2113 1982 2141 2121 2056 1993 2188 1811 1857 1865 2165 2403 2096 1754 1839 2127 2193 1496 1872 2374 1358 301 0 0 0 0
195 137 386 605 756 960 1178 1363 1533 1544 1455 1585 1782 1676 1483 1478 1395 1499 1560 1727 2060 2193 1954 1777 1697 1653 1617 1582 1519 1908 1872 2061 2000 2551 1758 2175 2762 3278 76 0 0 0 0
329 269 204 178 447 566 360 466 918 1352 1485 1409 1539 1660 1621 1114 850 724 749 864 1211 1835 2044 1853 1496 1381 1837 1967 1791 1811 1852 1989 1465 1791 2190 2199 2773 3135 1328 268 0 0 0
368 301 204 207 95 251 208 117 126 782 1372 1563 1568 1628 1625 1371 1297 1539 1114 652 585 583 900 1417 1521 1529 1506 1666 2060 2061 1985 2259 1753 1495 1858 2313 2882 2918 805 0 0 0 0
311 366 341 284 208 216 23 0 0 261 920 1183 1388 1459 1502 1565 1701 1466 1536 1587 1583 1575 1300 945 1238 1570 1924 2175 2341 2192 2338 2104 1893 1766 2299 2518 2465 2938 710 0 0 0 0
440 395 414 425 354 231 19 0 0 88 335 876 1053 1173 1349 1236 1107 585 1003 1373 1530 1602 1324 1300 1219 1366 1205 1055 1243 1624 1505 1269 906 833 2174 2870 2260 2889 1047 239 0 0 0
604 504 395 414 417 416 219 0 0 43 78 138 537 897 624 642 695 226 204 777 1218 1049 1155 1143 1526 1037 650 821 435 889 1387 1285 979 1106 1719 2400 2053 2660 2286 1027 9 0 0

GFSMA_con_mlcape_072.txt.gz
CAPE
850 770 868 808 754 810 869 1226 1296 1485 1452 1257 1148 1049 771 813 731 490 429 673 1262 1177 1199 1053 928 863 672 629 573 627 780 722 329 342 406 387 501 751 769 746 498 345 279
1027 943 913 890 919 847 999 1143 1367 1249 972 1020 1145 1031 893 978 1120 1099 962 743 565 861 1213 869 913 701 907 1248 946 637 531 491 513 542 514 466 963 569 573 550 577 336 202
1315 1168 1084 978 887 1183 1371 1379 1351 1235 737 931 1145 1138 919 904 1008 1107 876 944 1051 600 819 1099 822 585 556 745 782 699 630 700 778 846 738 765 728 506 555 765 534 364 148
756 870 725 743 1071 1136 1002 944 1038 826 718 785 929 775 798 714 926 1108 902 879 822 966 831 535 918 1035 806 818 1034 935 957 902 925 752 657 647 514 484 408 413 619 338 158
634 609 783 865 1334 966 805 698 887 785 659 624 561 717 845 728 861 728 1000 1017 798 715 591 557 422 498 669 849 740 693 842 978 841 548 423 281 149 121 17 7 166 232 201
999 670 712 934 998 605 663 767 837 799 692 599 443 471 527 493 581 581 684 678 821 929 661 867 846 631 512 341 475 659 784 855 841 751 317 80 9 0 0 0 0 20 68
1362 1102 884 842 930 514 883 1172 771 757 337 582 385 235 233 555 398 290 430 414 630 702 742 829 908 676 720 708 637 462 478 667 810 782 826 548 120 0 0 0 0 0 0
1035 1015 1014 939 718 398 980 1000 992 247 271 486 273 309 181 314 294 273 329 318 461 490 499 689 840 1081 1144 914 838 541 445 455 561 681 767 902 793 409 64 0 0 0 0
1356 1314 1439 644 1206 723 307 953 899 933 112 335 813 339 332 251 471 263 406 215 529 387 452 582 712 879 1224 1265 1282 1219 975 528 453 580 659 734 846 877 685 337 111 4 0
1201 1148 1433 1407 1460 693 818 995 969 860 490 29 166 399 1029 753 581 342 157 265 350 329 437 351 413 664 1110 1204 1094 1165 745 395 336 396 533 629 798 967 1083 941 630 352 147
1253 1230 1375 1494 1457 1084 1151 1135 1561 1106 348 53 62 313 752 854 1399 685 189 173 186 314 393 468 600 687 1169 1394 1299 1019 293 389 732 949 1050 1154 1221 1364 1482 1454 1575 1322 1044
1175 1340 1273 1543 1440 1277 1324 1106 1523 1456 959 583 215 533 465 821 743 619 430 447 478 570 636 773 935 1151 1341 1439 1177 1124 1276 1226 1383 1000 913 978 1115 1457 1359 1559 1639 1622 1692
824 1276 1167 1016 990 1103 1098 976 1662 1204 1518 840 1105 487 568 1041 1260 1203 780 596 674 764 851 994 1337 1595 1599 1716 1869 1696 1999 1999 1542 1581 1101 1092 1537 1776 1726 1486 1496 1363 1362
945 1118 1270 1083 1299 1252 1128 1127 1021 761 897 1238 1449 1568 860 1146 1329 1293 1205 968 602 565 1101 1833 1288 1422 1880 2158 2109 1941 1936 2411 1654 1476 1303 1163 1746 1893 2094 2141 2028 1722 1419
871 1572 1014 956 990 1365 1497 1497 1201 1226 1231 1397 1141 1219 1258 1161 1219 1202 1270 1199 1070 799 810 1528 1263 1777 1873 1968 2251 2069 2251 2229 2208 1673 1579 1166 1619 2066 2115 2046 1951 1713 1314
1036 1097 1629 1451 1116 1285 1605 1834 983 1331 1282 1034 728 1338 1599 926 1275 1169 1115 1179 1226 1117 996 1310 1365 1736 2407 2301 1973 2194 2037 2317 2486 1554 1602 1233 1638 1787 2032 1981 1676 1100 730
1027 1459 1446 1491 1528 1311 1534 2051 1483 1204 1784 1428 1053 1215 1630 1663 1037 954 1210 1250 1220 1210 1012 971 1555 1908 2783 2756 2668 2603 1936 1606 1102 1646 1471 1258 1445 1675 1881 1678 1021 435 2
1052 1463 1634 1492 1546 1552 1836 1849 1429 1155 1270 1321 1517 1309 1340 1143 1804 1643 1349 1297 1120 1303 1328 1161 1374 1736 2119 2338 2335 2577 2153 1601 1854 1396 1191 1223 1500 1710 1553 1058 148 0 0
1049 1230 1483 1623 1413 1445 2075 2089 1557 1460 1701 1609 1627 1504 1591 1414 1404 988 1563 1098 1242 1545 1632 1647 1534 1484 1685 2023 2040 1919 1895 1978 1438 1118 924 1315 1857 1619 941 170 0 0 0
1001 1026 1283 1529 1580 1077 1412 1700 1957 1623 1610 1563 1866 1834 1551 1579 1729 1947 1806 1954 1954 1648 1345 1543 1414 1336 1385 1530 1838 1462 1120 1133 1568 1557 1286 1149 1836 1335 379 0 0 0 0
1041 982 900 1084 1408 1543 1110 1434 1914 1851 1884 1787 2023 2152 1826 1340 1489 1788 1821 1846 1888 1891 1379 1188 1248 1301 1275 1256 1583 997 1105 967 1232 1284 1811 1064 1620 897 189 0 0 0 0
1227 1119 1023 777 782 778 782 920 1527 1894 1869 1867 1864 2131 2053 1616 1370 1143 914 634 1015 1756 1856 1694 1283 1199 1497 1589 1250 981 1053 824 958 1123 1110 748 1185 2396 3160 1636 14 0 0
1076 1257 1193 1026 868 767 232 323 571 857 1106 1448 1676 1677 1877 1479 1640 1730 1208 718 674 633 674 1145 1338 1282 1184 1230 1436 1669 1441 1382 1321 1291 917 663 1035 2159 3299 94 0 0 0
1199 1209 1304 1349 1236 1134 562 159 123 627 796 1000 1224 1516 1700 1438 1355 1690 1687 1425 1549 1515 1367 1081 1100 1268 1387 1406 1710 1826 1816 1857 1532 1271 1118 1239 1240 1219 3247 1548 0 0 0
1246 1202 1188 1328 1422 1342 744 372 104 277 227 684 1018 1294 1623 1708 1672 1238 1364 1164 1263 1287 1060 1228 1244 1187 1257 1183 969 961 662 464 251 143 266 408 1030 1311 2943 2254 266 0 0
1087 1249 1269 1274 1303 1434 1233 529 166 378 345 216 365 925 1097 1186 1419 1244 1589 1234 950 683 695 589 1043 1100 990 1229 734 993 1015 482 160 81 145 679 964 1046 1543 2569 1807 6 0

GFSMA_con_mlcape_075.txt.gz
CAPE
654 887 896 857 819 848 878 1040 1474 1199 1035 988 895 737 633 572 451 423 161 889 814 1000 852 940 729 759 694 744 546 524 762 732 508 565 604 522 884 681 630 762 643 363 202
995 786 780 819 844 1148 1359 1340 1470 1140 863 868 921 889 1061 919 1011 1051 847 428 359 675 857 660 680 593 840 1201 1054 737 633 604 666 794 743 935 738 644 549 684 595 360 154
1277 992 504 769 896 1328 1358 1262 1037 995 881 914 1043 915 742 949 839 875 1023 1319 690 491 551 690 592 479 488 643 880 809 735 765 781 827 474 480 563 429 440 714 852 444 156
1234 1540 718 706 708 941 1033 1081 1063 917 1087 980 816 784 596 573 719 736 523 945 1414 1270 808 733 701 661 629 711 897 848 835 799 704 454 317 247 199 169 124 82 277 474 319
1214 1098 617 959 1482 1019 828 700 868 651 549 843 624 671 740 630 896 467 576 719 440 711 1069 607 485 481 561 728 710 636 653 672 647 537 295 151 67 4 1 0 0 211 260
1055 1141 1032 979 1806 661 718 973 994 624 712 673 372 520 641 358 250 369 513 572 613 723 542 741 1201 859 459 342 326 468 605 750 778 776 759 459 76 0 0 0 0 0 20
1088 1286 838 973 1690 836 983 878 789 767 521 443 778 372 193 277 235 132 280 322 384 635 520 663 899 876 927 806 631 360 403 498 691 864 854 859 860 589 228 27 0 0 0
1196 1111 1101 632 883 755 1138 936 911 775 283 487 947 638 260 189 133 228 190 178 433 394 417 650 598 986 1171 1208 1274 771 616 505 592 691 781 803 822 921 871 627 252 55 0
1199 1305 1563 1158 666 1177 571 1014 859 935 598 104 360 658 890 303 228 330 233 239 372 362 342 433 616 841 1256 1436 1317 1540 965 618 490 574 748 895 1002 1057 1103 1106 903 594 248
1356 1350 1208 1358 1009 827 848 596 474 1331 519 119 128 306 1048 1148 1423 48 124 151 210 354 370 353 546 641 1121 1589 1168 1290 935 403 523 925 1204 1259 1252 1307 1446 1584 1585 1435 1017
1366 1225 1452 1447 1499 1330 684 1211 1391 1076 231 308 215 334 502 454 693 1059 102 136 222 273 319 629 604 697 1237 1416 1334 914 1043 1227 1385 1048 1079 1157 1290 1822 1977 1715 1856 1891 1942
1076 1262 1390 1561 1544 1528 1107 1028 1255 1321 1243 823 715 335 663 695 1129 394 234 567 416 563 569 720 920 1049 1283 1567 1523 1393 1637 1731 1572 1587 1159 1124 1488 2017 2159 2087 1898 1782 1765
553 1390 1433 1634 1345 1445 1159 1130 1412 1334 883 736 354 1024 512 758 1238 638 884 789 761 690 898 1120 1220 1404 1603 1702 2172 1445 2190 2086 1568 1673 1220 1134 1490 1978 2052 2196 2178 2018 1896
676 1667 1427 1176 1296 1409 1341 1290 1307 834 879 965 758 1227 1365 770 984 996 1165 1095 640 765 954 2248 1159 1340 1733 1991 2351 2106 2146 2161 1607 1977 1370 1360 1211 1870 1934 2098 2041 1805 1495
684 1512 1325 1256 1236 1277 1392 1384 1059 818 1306 1081 1102 962 1156 1039 628 997 818 892 1344 1177 943 1794 1194 2087 1861 1762 2161 2336 2166 1820 1782 2173 1493 1166 1375 1601 1836 1910 1685 1166 802
865 957 1363 1406 1288 1232 1403 1563 1215 1368 1079 983 539 1078 1116 1148 841 794 865 949 965 1115 1159 1239 1276 1812 2648 2579 2229 2487 2550 1998 1773 2191 1463 1040 1364 1436 1783 1595 1161 495 19
1193 1239 1814 1631 1649 1472 1374 1626 1789 1437 1394 1301 1268 1070 1712 1728 1332 738 643 796 938 1062 1028 896 1337 1978 2890 2620 2755 2994 2631 2348 1905 1491 1174 1128 1237 1537 1695 1327 427 2 0
1118 1074 1629 1635 1730 1690 1671 1675 1571 876 1403 1342 1325 1290 1153 1260 1884 1689 1471 1436 1226 1749 1488 1746 1460 1233 1703 2164 2700 2842 2420 1718 1861 1330 980 1136 1319 1725 1448 842 25 0 0
1380 983 1444 1556 1438 1469 1803 1884 1728 1482 1531 1413 1366 1384 1378 1510 1544 1449 1607 1086 1187 1642 1592 1632 1649 1461 1366 1551 1819 2233 2517 1975 2112 1126 664 970 1379 1674 1121 352 11 0 0
1483 1368 1277 1697 1780 1340 1328 1841 1845 1794 1804 1799 1765 1584 1477 1553 1795 1908 1740 1926 1582 1606 1367 1242 1112 1165 1214 1352 1542 1606 1425 976 1052 1229 1309 1353 1263 1052 591 36 0 0 0
1596 1534 1414 1458 1543 1612 1138 1479 1666 1674 1758 1934 1886 1821 1832 1529 1451 1826 1745 1804 1632 1948 1339 1105 1022 1046 1076 1273 1798 1920 1202 1031 1206 905 857 1360 1272 929 378 0 0 0 0
1786 1822 1625 1411 1339 1011 704 858 1282 1664 1831 2080 2103 2283 2281 1575 1333 1096 1236 1293 1469 2175 2376 1926 1498 1319 1859 1613 1201 1253 1221 917 641 875 1143 1124 530 548 1346 604 172 0 0
1902 2023 1863 1714 1672 1543 667 308 773 991 1593 2147 1936 2249 1967 1211 1626 1904 1293 713 391 210 331 969 1366 1548 1401 1498 1455 1734 1253 1736 1506 1048 889 606 733 1034 1459 646 95 0 0
1641 1693 1893 2104 2094 2016 1256 553 191 891 1173 1279 1626 2035 2004 1978 1959 2186 1992 1882 1855 1667 1279 831 828 985 1382 1715 1783 1755 1985 2291 1979 1717 1692 1411 771 715 873 720 108 4 0
1443 1543 1683 1917 2158 2242 1653 1077 439 468 517 1075 1392 1322 1590 2025 2208 1482 1715 2084 1918 2037 1188 1305 1322 1405 1369 1110 992 1108 797 387 209 83 47 79 101 192 380 1223 131 0 0
1597 1537 1580 1606 1826 1951 2087 1527 838 961 688 739 884 1124 909 1168 1494 1711 1587 1628 1731 1752 1969 841 1052 1087 938 1094 774 848 1082 886 391 164 41 62 102 180 415 764 1030 7 0

GFSMA_con_mlcape_078.txt.gz
CAPE
1179 988 630 963 650 846 563 1151 1233 1513 940 947 944 665 502 716 378 609 756 592 325 597 728 769 636 587 685 838 574 519 521 496 527 607 641 849 802 659 574 604 629 332 119
899 771 574 1260 1315 663 1583 870 1525 902 1176 743 752 971 918 909 1099 272 316 370 179 440 315 506 435 425 741 854 905 665 544 484 618 753 724 663 704 492 402 755 693 406 160
1591 804 1013 755 995 1509 1574 1228 1628 1113 842 1013 1001 915 877 935 420 1085 700 497 389 582 468 348 276 224 294 441 618 648 573 547 369 408 256 209 207 267 340 262 695 428 223
931 0 869 676 926 1177 1491 412 1164 661 1102 504 785 915 818 823 671 933 1160 1241 758 687 658 576 434 479 461 430 560 514 476 381 422 300 134 79 58 45 70 57 71 325 293
1424 1454 635 220 947 1416 1293 557 806 765 1228 1058 861 1007 610 642 702 606 459 723 1035 1186 1134 397 595 381 408 521 533 483 460 569 611 647 589 368 132 80 47 20 0 5 179
1194 1403 852 1269 1447 1432 768 847 1072 633 724 471 468 583 680 894 864 635 461 805 548 681 937 900 903 586 261 500 376 388 533 647 739 806 864 937 944 748 323 107 10 0 0
1253 1253 1526 990 1692 770 363 1231 1090 846 1047 754 767 767 513 101 132 433 610 632 524 947 727 667 1480 1337 467 866 440 351 424 490 564 691 833 916 947 995 1093 947 481 120 0
1161 1263 870 564 919 1214 1024 1170 1130 932 812 545 765 857 480 414 351 228 347 388 570 471 636 750 721 1070 1386 1323 1073 776 838 663 638 734 825 939 1110 1212 1235 1238 1151 863 433
1164 1390 1040 1376 324 1364 831 955 985 751 679 138 154 895 817 962 353 129 174 312 306 585 392 445 1023 1039 1280 1782 1599 1452 1215 737 722 882 1248 1336 1347 1367 1530 1631 1638 1508 1155
1144 1260 1361 1623 1143 494 706 975 891 805 519 532 158 276 869 679 1396 332 373 220 672 333 529 634 668 1001 1124 1516 1718 1448 1077 938 1159 1216 1214 1340 1389 1926 2222 2009 1850 1915 1844
989 1055 959 1306 1149 660 118 741 1079 1094 1300 1049 376 674 356 1443 1244 1523 205 278 398 365 386 675 969 884 1290 1461 1388 1126 1270 1425 1513 1443 1341 1242 1461 2146 2396 2473 2328 2027 1907
1188 1042 894 1459 1561 723 967 85 1071 1112 1167 1111 563 1052 1115 768 1157 1557 453 243 473 555 545 685 854 1287 1519 1993 1527 1396 1747 1830 1735 1425 1175 1316 1239 2078 2258 2435 2456 2317 2126
1028 1176 1476 1622 1100 1244 1077 1336 1144 1307 888 714 1520 534 1643 618 1219 1281 1356 879 765 640 1182 1212 1252 1479 1795 2224 1988 1944 2091 1949 1856 1487 1333 1338 1092 1850 2036 2239 2204 2019 1831
681 882 1172 1529 1584 1242 1379 1386 1315 1226 1377 372 573 854 1242 1230 1330 828 1308 1245 1437 1075 1088 1605 1347 1747 1963 2061 2204 2166 2020 2145 1855 1561 1712 1325 1028 1599 1839 2013 1578 1307 1087
730 799 1018 1312 1249 1129 1446 1354 837 1019 474 934 1683 519 791 1092 1112 598 952 1035 1118 1464 1652 1420 1024 1584 1997 2449 1977 2524 2468 2568 1912 1662 2008 1277 987 1344 1816 1751 1141 609 94
294 13 383 1049 1298 1419 1197 1236 1496 746 1132 812 546 1189 378 171 1359 1499 769 1003 1023 1148 1238 1321 1723 2316 2485 2605 2563 2987 2823 2432 2602 1768 1801 1232 925 1373 1719 1456 618 24 0
810 17 0 168 1171 1349 1260 1444 1046 988 1045 791 1429 1420 1064 1499 879 1913 1800 1604 935 1240 1518 1538 1771 2744 2318 2266 2491 2868 2873 2662 2470 1585 1599 1193 887 1427 1609 1141 131 0 0
1249 743 274 537 997 1454 1462 1306 1356 1537 1154 1353 876 881 1279 1659 1324 1440 1295 1328 1373 1296 1316 1511 1522 1198 1035 1492 2903 2408 2727 2363 2132 1828 1510 1071 843 1317 1447 791 17 0 0
1555 1370 949 1515 1536 1270 1321 1338 1304 1605 1131 1428 1667 1476 1190 1561 1418 1290 1544 1856 1624 1908 1598 1415 1348 1843 1901 1540 1736 1994 2408 2213 2531 1470 984 809 774 1148 1270 469 5 0 0
1847 1560 1396 1688 1310 1548 1647 1502 1432 1434 1385 1510 1609 1681 1856 1659 1621 1408 1569 1546 1555 1738 1394 1446 1266 1004 1097 1322 1837 1724 1909 1402 920 1527 1005 1134 878 868 929 312 8 0 0
1870 1899 1723 1462 1766 1487 1612 1516 1811 1680 1136 915 1445 1773 1922 2172 1833 1842 1807 1842 1840 1549 1672 1416 1204 1286 1248 2007 2025 1842 1536 1833 1476 871 595 1743 1086 631 337 74 0 0 0
1649 1864 1953 1892 1532 1932 1220 984 1355 1883 1906 1922 1285 1469 2119 1759 1867 1179 1145 1275 1447 1573 1571 1737 2038 1974 1511 1888 1738 1564 1380 1040 577 1636 1506 978 1068 765 790 124 106 0 0
1596 1717 1941 1992 1902 1774 1265 395 425 1246 1784 1953 1714 1495 1702 1482 1924 1588 1015 904 698 448 742 918 951 1089 574 323 711 692 1002 1071 1301 1007 1027 927 995 1207 1280 732 266 26 0
1291 1479 1781 2050 2173 2171 1756 1158 614 486 1185 1183 1461 1940 1845 1580 1558 1910 2259 2062 1527 1202 849 377 171 98 154 229 590 763 831 1497 1977 2039 2009 1677 1409 1188 1289 562 387 91 0
1018 1157 1268 1552 1944 2236 2060 1623 1274 883 734 837 1332 1320 1238 1954 1970 1408 1188 1427 2238 2415 2214 1732 1522 1064 701 504 636 1143 964 713 541 372 386 184 129 207 263 262 7 0 0
118 799 1177 1396 1527 1750 2234 1982 1368 1402 1287 975 772 860 1090 1227 865 1296 1921 1695 1233 1058 1970 2298 1390 846 836 903 864 897 1078 906 858 807 642 169 190 191 114 493 122 3 0

GFSMA_con_mlcape_081.txt.gz
CAPE
258 557 651 847 1190 193 418 887 1084 1484 758 654 511 485 458 445 148 243 331 146 425 1190 544 571 547 455 696 854 535 548 432 488 480 588 674 993 777 584 452 555 493 230 48
569 0 373 837 607 735 685 867 1208 935 645 379 558 606 393 385 345 239 305 370 241 219 430 552 332 443 697 670 812 540 419 348 459 570 521 304 509 444 333 565 845 373 139
810 783 674 894 635 838 525 756 980 1188 520 786 572 609 479 648 275 365 365 144 238 389 402 370 240 54 76 148 313 459 447 340 385 295 239 240 208 214 214 177 296 571 306
155 233 718 531 992 1272 295 628 731 641 606 586 708 711 479 582 500 572 566 353 311 302 320 404 313 182 161 204 318 383 280 336 314 369 444 299 225 162 77 70 53 176 398
702 817 1257 556 1283 976 996 499 761 913 922 773 729 773 665 558 460 779 876 802 614 676 329 395 474 276 348 435 420 388 497 542 653 825 918 997 940 584 295 155 47 0 64
1230 979 698 865 1059 946 712 604 775 688 409 572 471 429 533 545 497 542 418 764 857 891 837 516 819 433 301 495 562 546 545 596 754 797 863 991 1093 1140 1151 888 455 137 0
1142 1022 853 969 853 677 566 562 1077 606 797 364 493 549 612 501 586 479 417 575 564 819 924 683 822 865 549 634 647 608 525 669 762 815 931 1090 1197 1307 1351 1328 1245 935 401
1190 1089 800 707 260 675 1104 1022 960 815 730 428 419 729 317 86 73 159 482 544 398 721 705 728 1061 1092 1057 958 993 825 894 907 884 989 1319 1437 1415 1469 1692 1727 1659 1540 1224
903 1127 499 1007 615 1031 917 923 635 450 628 4 41 705 509 487 176 23 214 242 177 455 588 672 680 810 954 1430 1542 1469 1320 1131 1114 1437 1388 1432 1477 2022 2288 2167 1831 1840 1770
864 1227 1251 1004 583 686 549 1063 1354 883 907 587 232 575 519 703 625 87 168 77 270 468 215 274 777 730 950 1173 1788 1603 1465 1368 1373 1292 1472 1356 1521 2230 2542 2578 2360 2026 1928
1022 1118 959 1151 616 226 418 587 1006 823 978 987 515 1045 484 1343 1269 1275 84 35 204 280 202 447 572 698 902 1315 1409 1084 1351 1571 1666 1289 1343 1372 1310 2248 2482 2616 2553 2409 2211
808 771 793 1027 818 366 411 406 934 935 526 847 1120 656 1362 543 837 1237 413 116 215 255 261 501 642 690 935 1414 1327 1457 1654 1748 1895 1369 1453 1277 1062 1967 2209 2424 2404 2285 2113
981 813 790 1134 836 855 691 610 1160 938 621 220 1041 429 1067 1115 1203 1089 1258 528 350 526 441 702 961 1496 1474 1595 1516 1800 2007 1818 1941 1552 1622 1249 981 1594 1957 2069 1738 1685 1517
762 934 1007 1140 1047 395 1025 892 801 807 954 102 84 301 497 728 1144 1125 932 957 1094 1171 1132 1089 1116 1117 1856 1979 2104 2133 2248 2024 2130 1844 1520 1526 971 1303 1807 1615 1174 884 347
433 877 994 1027 1016 956 958 1210 720 526 949 661 330 1259 314 256 321 1216 1301 1044 844 1088 1135 1167 1007 1378 2070 2018 1863 2236 2344 2462 2036 2174 1999 1669 964 1167 1623 1345 656 95 0
544 547 365 579 1002 1070 1057 1104 822 618 634 270 544 470 883 571 24 562 1493 1407 1116 878 963 1230 2001 2271 2316 2044 1900 2177 2317 2130 2128 2258 1930 1435 946 1011 1493 1111 233 0 0
340 232 249 19 408 997 1200 1025 735 985 823 451 623 1342 980 1303 995 701 690 1151 1237 1430 1187 1350 1552 1697 1186 924 1364 2152 2358 2066 2148 2002 1553 1408 961 801 1357 936 124 0 0
634 255 0 79 345 794 1182 1067 991 575 767 851 586 774 709 1220 1470 1470 1215 860 1234 1313 1522 904 849 852 1150 1598 1616 1855 2560 2023 2229 2052 1990 1537 952 683 1131 770 122 0 0
588 348 66 18 414 722 1035 1264 892 1285 1110 913 814 942 583 821 675 972 918 749 1046 1251 1412 1533 1364 1643 1663 1065 795 1010 1378 1944 1325 1713 840 875 783 567 811 729 127 0 0
1372 1018 1144 949 1092 1078 1279 1387 1144 924 1103 1210 1069 1432 1385 1022 961 1082 833 748 954 902 922 1107 1014 865 746 984 1790 2210 1792 1469 1420 1154 588 838 643 513 556 539 157 5 0
1838 1694 1339 1456 1577 1195 1285 1495 1476 1095 1007 1006 1062 1253 1306 1694 1643 1464 1261 1103 1065 1117 1164 1133 1506 1806 1920 1891 1683 1577 1120 1100 900 552 485 944 885 539 358 184 51 8 0
1687 1670 1547 1515 1280 1710 1267 1139 1434 1338 1363 1183 892 762 1157 1227 1515 1897 1584 1502 1431 1195 1350 1292 1183 1309 1439 1452 1345 242 97 0 1 739 601 291 770 913 647 139 52 26 0
1315 1474 1614 1840 1493 1494 1507 1351 996 1368 1444 1465 1214 1144 1258 1214 1080 1422 1266 1245 1078 966 921 724 527 584 643 319 73 0 0 52 252 431 1188 764 977 991 1077 735 278 83 33
643 1348 1278 1378 1551 1876 1783 1335 971 763 815 1377 1870 1800 1645 1378 1178 1171 1476 1524 1266 1005 806 650 492 196 55 107 128 124 203 394 716 1092 1359 485 574 276 284 397 302 113 22
13 253 910 1097 1258 1347 1390 1683 1537 1037 889 789 817 1091 1527 1449 1430 1355 1315 1419 1663 1662 1689 1488 1279 1062 980 722 540 668 615 688 601 378 420 409 284 154 37 226 94 28 27
0 0 65 274 969 1084 1242 1280 1267 1115 1118 1077 982 881 740 924 1116 1292 1321 1366 1396 1256 1379 1695 1556 1458 1183 1084 763 497 636 579 581 382 339 440 231 162 65 119 79 0 0

GFSMA_con_mlcape_084.txt.gz
CAPE
249 482 746 877 1093 67 388 845 974 1051 645 514 454 626 401 31 56 96 193 228 903 1262 549 449 438 427 626 744 454 505 480 498 500 589 739 851 839 714 447 648 616 296 50
324 424 498 745 890 506 224 670 1073 848 368 358 294 302 250 89 51 58 31 174 468 761 554 581 516 561 822 770 878 611 459 367 412 506 508 253 278 460 447 485 956 590 191
285 173 526 637 456 585 840 727 946 738 540 503 328 300 274 256 199 239 223 127 262 316 230 505 442 295 203 119 262 380 439 410 370 356 326 187 246 228 232 256 237 727 500
520 583 662 695 856 1126 580 669 694 652 525 410 457 517 408 315 290 329 307 128 189 134 255 273 284 281 186 231 319 420 483 451 504 596 687 787 680 491 343 164 146 145 450
67 377 776 586 1021 1117 307 506 615 718 795 587 561 611 477 398 233 376 469 300 316 362 62 270 399 322 370 576 661 704 694 699 783 866 998 1133 1194 1218 1085 778 424 182 56
1107 816 653 776 1171 869 849 581 670 740 431 477 484 357 511 482 322 400 482 644 539 619 496 340 578 643 409 393 810 1002 881 852 813 881 1031 1110 1252 1375 1444 1458 1288 908 414
1051 465 534 628 636 668 742 567 474 513 596 329 309 348 542 370 399 398 373 640 660 660 761 755 588 839 781 635 655 689 924 1013 1117 1218 1264 1470 1552 1567 1701 1790 1780 1619 1308
862 997 726 569 543 612 608 964 832 683 586 406 414 418 175 61 24 168 370 354 480 721 804 888 792 723 912 1023 936 1138 1072 1082 1271 1455 1587 1497 1457 1944 2193 2236 1883 1768 1755
842 746 312 702 383 878 843 799 394 459 336 121 148 500 439 196 119 36 297 351 464 403 592 725 702 892 918 1018 1200 1495 1528 1388 1399 1529 1540 1473 1527 2185 2521 2570 2342 1965 1931
885 658 759 679 522 432 505 851 1213 836 496 475 280 563 597 722 253 7 135 249 43 397 356 489 512 586 724 871 1217 1652 1478 1530 1563 1358 1415 1436 1369 2269 2546 2597 2527 2380 2145
899 1075 603 575 431 245 488 630 923 722 928 606 767 1001 1078 1349 953 940 76 69 121 281 301 181 194 478 633 737 1064 1224 1410 1477 1612 1389 1365 1251 1158 2078 2389 2551 2480 2366 2219
850 889 902 781 670 376 513 355 749 758 658 694 755 1035 837 728 958 1114 712 20 71 106 149 107 252 493 552 757 1378 1118 1465 1540 1604 1724 1294 1322 1015 1643 2095 2190 2053 2068 1925
771 833 903 762 539 168 262 427 688 968 600 164 540 334 829 996 1049 989 1002 456 201 191 255 262 384 822 673 824 1187 1465 1809 1850 1732 1768 1538 1462 1058 1354 1809 1611 1517 1452 1143
601 941 891 941 832 722 427 558 798 715 720 567 162 334 504 348 611 1264 1043 882 706 863 879 718 1013 852 1129 1525 1443 1812 1968 2038 2025 1683 1857 1484 1286 1120 1636 1249 864 355 23
512 661 845 891 822 777 573 755 579 630 464 697 391 480 808 279 56 774 1270 1183 743 833 993 1417 1392 1325 1843 1831 1800 1700 1947 2150 2082 1946 2038 1830 1288 880 1504 1102 362 42 0
413 624 854 875 764 669 489 824 749 549 410 363 173 331 423 773 560 528 674 1013 1177 882 856 1348 1997 2190 1847 1272 945 1531 1827 1948 2027 1948 1878 1484 1068 769 1228 1066 287 13 0
488 500 491 489 566 578 978 1063 838 627 529 538 213 624 750 1067 1073 1174 893 685 928 1037 959 981 1129 957 953 1153 1403 1218 1173 1647 2292 2042 1800 1799 1055 744 808 1035 346 29 0
501 397 265 207 63 399 773 1092 862 696 625 778 467 270 524 744 991 1312 1032 794 952 1311 1243 1207 1139 1197 1342 1191 836 1073 1515 1731 1670 1437 608 762 926 775 627 805 532 52 0
701 467 328 14 3 174 562 973 1007 829 576 557 1001 592 710 561 435 485 437 595 590 850 1040 984 994 1069 848 639 1101 1609 1505 1435 1271 1041 594 625 597 622 553 488 536 128 0
775 598 432 279 111 50 393 726 960 976 872 975 910 831 807 886 813 644 688 827 711 625 698 616 527 654 795 1149 1631 1524 1150 646 490 178 253 539 625 271 313 345 296 149 1
896 651 585 505 471 605 822 715 1187 1113 833 746 880 1005 1013 1195 1326 1175 1212 1195 1004 943 734 613 756 830 636 905 1393 1504 1132 488 0 4 50 189 224 419 435 332 170 83 17
575 978 1056 1190 1352 1534 1447 1286 1149 1078 1051 1014 831 821 836 1057 1058 1101 1416 1508 1589 1083 997 948 592 461 728 937 1039 978 399 0 0 69 301 165 522 75 91 303 217 160 76
180 643 1034 1079 1193 1239 1328 1181 1112 1044 1114 1160 1130 1020 921 820 738 873 999 1235 1267 1153 1339 1229 960 720 386 103 17 0 0 15 51 114 343 287 484 129 263 286 76 38 49
43 145 446 892 1002 1200 1182 1118 1051 851 933 1075 1180 1261 1209 1154 1093 1119 1000 869 852 980 977 893 913 816 667 641 393 317 223 298 427 431 605 279 223 50 171 192 84 16 26
0 0 3 96 422 739 958 815 831 948 948 812 724 853 1061 1207 1497 1416 1261 1217 1118 1096 1268 1081 892 873 897 918 757 549 638 463 354 253 345 346 2 56 126 53 2 3 1
0 0 0 0 0 17 78 377 743 680 806 901 899 835 790 866 885 761 792 952 1004 967 1077 1127 1156 841 731 718 615 553 910 943 634 483 316 179 1 92 89 59 57 1 0

GFSMA_con_mlcape_087.txt.gz
CAPE
321 501 811 818 924 280 375 777 964 732 499 616 1143 874 630 69 0 193 324 510 757 862 581 508 532 598 630 807 744 537 578 544 427 573 689 781 654 667 510 607 751 490 190
287 560 598 727 874 709 317 530 888 684 358 259 548 535 402 27 18 21 22 186 511 1098 883 677 617 614 781 1041 789 719 493 381 387 449 401 319 260 326 490 594 701 991 490
323 233 478 720 541 558 846 743 921 479 352 287 278 286 201 91 51 93 39 74 236 512 454 476 560 446 442 420 316 388 489 559 557 565 609 582 516 493 473 456 468 417 803
542 430 621 649 827 969 568 572 507 527 411 343 370 318 240 238 189 188 239 204 131 123 248 426 363 383 413 431 523 639 789 842 810 847 946 1079 1220 1297 1140 848 577 417 335
437 632 679 725 817 1043 261 482 556 638 622 481 497 496 399 344 191 208 255 319 164 260 121 169 458 447 478 720 1036 1196 1187 1184 1081 1013 1087 1193 1311 1400 1511 1541 1402 914 468
165 625 739 579 1105 824 764 463 581 580 437 420 461 392 236 442 371 172 318 356 416 396 475 433 304 606 775 740 628 751 1062 1170 1134 1262 1377 1467 1572 1673 1783 1847 1875 1770 1289
767 638 533 822 715 723 650 527 531 507 564 315 302 387 224 430 368 381 311 409 548 624 596 736 703 691 727 950 936 959 1074 1132 1218 1412 1662 1678 1535 1781 2088 2242 2075 1977 1969
542 664 413 491 477 581 591 628 903 613 504 386 304 429 138 42 68 88 209 401 387 591 709 765 820 790 675 773 960 1169 1345 1479 1457 1500 1686 1425 1401 2055 2391 2570 2489 2012 1891
533 854 662 617 513 673 544 695 450 367 327 262 175 218 473 199 102 20 162 238 341 374 424 527 674 688 758 856 962 1092 1412 1531 1563 1505 1497 1384 1300 2093 2457 2617 2536 2346 2061
826 695 449 785 452 468 667 800 1213 850 457 518 371 499 471 687 258 20 78 205 201 194 330 365 456 488 504 565 713 1003 1356 1426 1518 1529 1356 1349 1238 1906 2326 2591 2480 2348 2198
776 737 526 509 449 335 452 558 713 751 772 661 831 822 957 921 888 724 132 97 25 121 223 220 221 222 205 402 554 819 1243 1265 1352 1502 1354 1429 1183 1611 2122 2344 2186 2164 2074
767 650 711 251 437 342 297 415 914 606 596 873 554 947 848 935 1013 1003 641 131 45 88 123 124 117 150 303 370 549 1206 1224 1364 1467 1404 1580 1359 1389 1214 1809 1859 1743 1768 1520
719 863 760 564 458 472 498 375 487 895 555 224 387 383 578 750 943 1008 894 681 150 150 272 288 201 335 870 650 594 1124 1369 1694 1891 1747 1472 1597 1483 1031 1472 1516 1090 905 367
624 790 810 791 637 451 210 417 527 778 677 666 331 324 685 259 444 1136 994 780 393 496 658 756 1000 817 889 1229 1400 1311 1676 1882 1991 1897 1842 1689 1598 1141 1079 1378 662 164 5
489 529 744 851 744 697 606 450 466 512 483 416 554 446 481 626 339 350 859 1072 640 752 901 1496 1734 1450 1772 1597 1493 1297 1433 1657 1729 1951 1907 1793 1398 1073 818 1302 744 86 0
345 478 620 774 818 695 596 447 701 496 465 365 333 212 270 653 765 925 546 827 889 811 787 1147 1629 1681 1198 948 1171 1101 926 1028 1226 1894 1554 1589 1380 1022 746 954 904 180 3
215 410 403 694 785 690 632 429 664 730 647 280 419 402 617 786 1021 1152 1098 706 897 1044 876 826 1032 1082 1191 1146 912 1106 1407 1526 1692 1415 491 823 783 850 769 667 792 346 28
555 332 362 500 505 503 542 661 968 891 705 425 467 444 99 481 645 1044 1170 801 640 739 855 845 903 928 956 771 755 1198 1373 1063 1029 925 503 475 502 577 670 591 492 485 76
540 388 353 305 256 89 217 567 836 954 817 665 418 464 788 515 424 354 461 379 434 555 645 605 475 643 600 504 899 1253 1264 1090 781 145 0 225 605 381 204 303 296 261 193
609 544 400 260 123 15 9 286 599 766 837 820 765 709 599 638 653 634 587 574 702 729 646 578 511 410 527 820 1071 1070 1016 1033 844 36 0 126 264 168 235 308 246 159 120
183 560 624 457 308 208 123 133 301 684 798 741 813 792 785 812 834 1033 1134 988 991 1052 966 765 740 698 463 434 553 801 825 586 41 0 0 105 79 157 137 146 103 203 130
15 99 439 702 702 673 602 657 791 778 911 1033 911 844 848 718 731 749 891 887 1112 1146 1224 1151 1042 916 823 669 497 264 162 1 0 0 153 97 141 104 108 126 120 147 41
0 0 26 276 614 797 964 957 1005 1027 1186 1112 995 961 925 1000 920 832 681 554 571 614 837 1195 943 926 994 952 744 534 418 315 154 143 245 200 262 106 141 79 177 136 21
0 0 0 0 27 223 278 407 424 546 799 824 905 1006 1057 1002 890 980 1026 1027 964 869 688 483 630 911 992 930 673 590 506 397 299 345 371 318 244 107 67 8 45 2 0
0 0 0 0 0 0 2 5 55 372 504 751 744 720 897 908 894 847 762 681 749 1051 1135 942 807 766 757 720 590 455 640 581 608 543 453 520 419 154 2 0 0 1 0
0 0 0 0 0 0 0 0 0 39 329 451 646 663 604 624 686 635 678 798 814 698 650 662 656 499 428 418 316 207 583 638 742 675 647 446 211 119 144 30 4 26 17

GFSMA_con_mlcape_090.txt.gz
CAPE
417 586 753 849 903 188 456 674 854 726 317 590 1224 806 669 310 0 233 418 530 803 1005 711 624 621 638 729 948 1174 1045 831 685 505 503 731 734 616 521 653 510 732 829 407
369 588 563 766 830 598 333 630 902 399 279 304 804 789 491 171 9 37 108 76 533 870 1364 870 781 685 685 897 840 660 707 611 609 729 758 769 725 618 563 548 615 818 978
298 266 496 669 472 564 715 690 574 404 317 245 292 340 373 222 92 101 109 78 109 325 624 659 677 606 553 613 647 653 781 899 946 972 1035 1214 1384 1431 1181 863 720 564 556
543 440 603 685 815 877 487 492 498 473 327 309 327 321 299 329 304 281 319 347 258 185 155 384 620 552 576 784 929 1143 1144 1148 1232 1192 1211 1323 1502 1532 1453 1525 1266 871 566
481 618 631 612 825 814 327 540 522 599 564 413 465 513 447 412 433 316 328 349 381 319 383 304 303 561 778 1050 1216 1238 1234 1286 1358 1381 1524 1711 1840 1819 1741 1812 1801 1631 1084
186 578 676 528 958 842 716 564 478 551 415 321 375 401 310 280 496 376 334 431 452 490 490 565 669 641 694 1001 1234 1158 1231 1357 1429 1447 1643 1850 1681 1807 2196 2326 2240 2097 1865
665 679 545 612 625 673 558 535 659 473 572 468 441 505 221 355 416 433 437 444 553 611 721 696 732 803 794 716 845 1027 1287 1555 1670 1693 1706 1576 1511 1995 2364 2610 2597 2107 1927
606 497 382 488 471 510 536 603 676 550 459 269 174 282 229 79 59 89 93 285 477 516 608 706 784 826 859 824 905 1088 1268 1535 1703 1700 1667 1467 1400 1949 2394 2644 2556 2334 1949
421 672 565 361 416 508 466 579 413 528 322 381 164 208 547 327 89 32 185 268 358 411 444 396 464 587 647 671 731 754 938 1248 1517 1680 1546 1547 1327 1732 2285 2610 2464 2318 2151
510 564 568 363 468 526 568 681 1030 762 479 671 522 488 428 761 599 94 90 173 220 268 256 365 428 419 444 413 456 621 773 1208 1312 1388 1632 1474 1501 1554 2138 2337 2188 2171 2070
715 660 378 611 292 339 296 525 769 739 730 579 851 824 743 620 731 793 376 135 118 122 165 278 315 285 229 271 426 562 967 1174 1295 1383 1411 1594 1540 1331 1941 1999 1853 1879 1700
610 569 523 327 285 250 268 331 814 495 460 752 432 818 833 932 1105 962 831 496 106 120 158 231 220 264 357 667 690 740 1152 1331 1718 1843 1599 1528 1535 1382 1414 1740 1346 1314 808
680 523 543 519 209 386 325 285 509 793 360 220 192 348 355 594 1080 989 909 775 179 198 382 474 699 518 773 1013 1217 1107 1218 1555 1776 1882 1819 1764 1614 1390 965 1494 975 442 153
594 497 690 678 479 453 233 253 295 610 646 569 399 338 631 308 233 694 1069 1009 579 501 630 1419 1035 1281 1318 1735 1484 1351 1453 1415 1188 1620 1795 1688 1707 1353 954 1134 985 203 19
448 535 690 581 635 555 403 259 335 491 473 330 289 328 258 469 723 395 672 974 755 745 894 1508 1886 1995 1706 1334 1246 1319 1143 1039 1036 1492 1385 1122 1467 1314 971 786 1019 351 20
272 347 458 499 485 516 566 452 464 388 391 429 235 184 179 300 796 1036 749 696 704 773 853 993 1453 1164 1207 1358 1068 1217 1481 1407 1538 1054 496 619 737 838 859 736 745 606 79
59 55 213 457 598 514 595 477 278 505 540 372 231 229 338 536 762 1037 1141 792 830 928 899 919 1011 1143 1131 1024 863 1230 1351 1214 937 523 55 221 490 426 604 633 546 530 255
240 224 251 262 400 626 664 617 286 401 556 568 323 251 318 250 422 619 1038 982 798 632 539 404 611 620 603 613 582 806 1210 1223 1169 928 38 0 37 322 113 186 247 261 208
410 361 299 231 222 277 299 423 496 501 595 431 567 462 343 515 337 352 290 440 471 456 630 576 466 580 616 462 666 1218 1277 1221 1198 785 18 0 69 150 53 105 155 162 119
443 433 377 308 279 192 50 32 34 403 556 559 465 536 530 471 537 584 572 472 531 591 733 784 797 723 641 826 807 640 585 661 284 77 0 0 111 82 83 96 99 38 63
25 220 477 443 397 286 208 120 32 145 362 544 639 661 663 636 548 531 681 878 784 749 857 1087 1063 1070 1084 924 898 834 769 626 478 90 0 175 259 244 236 166 111 76 47
0 0 85 303 423 543 540 295 231 445 633 658 695 890 816 658 695 622 538 554 761 930 971 914 924 799 1006 666 864 978 877 739 654 211 372 347 293 199 228 328 167 77 79
0 0 0 0 24 140 36 121 246 581 839 965 993 1034 992 967 826 850 710 553 470 406 494 740 732 801 729 658 800 818 669 548 498 464 328 338 487 158 362 380 27 0 11
0 0 0 0 0 0 0 0 0 120 436 664 794 878 890 886 913 855 820 810 862 845 748 616 740 957 956 963 842 853 726 470 328 351 314 374 552 264 425 285 66 0 0
0 0 0 0 0 0 0 0 0 0 140 390 505 579 653 772 770 598 645 552 667 711 770 542 484 510 511 447 482 477 436 415 368 406 490 495 523 399 425 224 154 3 0
0 0 0 0 0 0 0 0 0 0 0 74 234 336 381 412 461 221 399 569 639 692 753 784 791 623 446 531 243 151 534 576 544 528 633 517 557 366 422 353 148 87 209

GFSMA_con_mlcape_093.txt.gz
CAPE
1056 1312 1301 1497 1105 886 1192 1375 1644 1161 867 920 1732 1494 1226 650 214 301 408 286 728 915 1090 842 778 784 834 969 1182 979 927 840 802 787 957 893 757 618 632 812 664 860 840
1028 1155 1219 1382 1342 1127 1098 1451 1259 1097 869 1223 1514 1406 1121 617 428 504 453 363 129 557 847 1024 908 777 633 731 836 749 830 967 1175 1236 1250 1282 1375 1316 1144 962 876 769 826
651 910 1230 1082 1078 1302 1232 1442 1201 1157 943 818 894 995 995 828 664 741 837 779 646 230 303 668 679 641 687 854 1027 1148 1197 1243 1348 1401 1389 1498 1640 1747 1825 1675 1387 1055 707
977 1009 1183 1310 1563 1186 1150 1240 1082 1159 959 983 1042 1012 976 947 1039 1018 1046 1154 1167 916 669 265 498 668 734 991 1373 1570 1576 1568 1552 1663 1800 2007 2115 1931 1914 1777 1731 1611 1162
998 1176 1200 1167 1619 886 1025 1225 1137 1295 1209 1123 1059 1126 1166 1054 1190 877 1086 1133 1219 1165 1192 971 707 636 767 1184 1441 1519 1514 1543 1704 1774 1899 2087 1937 1994 2316 2366 2275 2072 1868
824 1306 1292 1146 1721 1501 1265 1220 1144 1155 1151 1060 807 911 1007 946 1197 1270 1086 1115 1301 1332 1371 1408 1609 1508 890 951 1019 1191 1446 1838 1897 1926 1976 1843 1661 2178 2520 2721 2720 2364 2162
803 1298 1225 1276 1317 1450 1155 1478 1239 1276 1247 1007 1032 1017 825 776 1104 1122 1246 1235 1308 1336 1503 1674 1756 1656 1674 1214 1098 1056 1379 1758 1916 1880 1905 1633 1598 2108 2513 2736 2688 2571 2140
1203 1145 1019 1129 1090 1159 1206 1384 1207 1089 938 792 763 974 770 587 748 592 687 867 1133 1284 1257 1364 1523 1668 1766 1672 1340 997 996 1265 1707 1884 1767 1685 1489 1905 2432 2624 2532 2470 2338
986 1220 1010 983 993 1100 1175 1259 1161 1169 1008 1151 988 977 1132 709 725 416 666 958 1042 1185 1221 1141 1215 1364 1420 1385 1274 1384 832 1175 1450 1605 1752 1651 1649 1715 2346 2290 2267 2301 2218
931 1181 1296 1030 1171 1317 1133 1413 1617 1307 1380 1414 1559 1318 1302 1583 1399 661 667 649 625 868 895 1056 1074 1131 1101 1123 1001 946 927 1303 1553 1672 1592 1741 1666 1552 2231 1976 1938 1954 1812
1137 1203 1113 1094 979 974 1138 1316 1464 1568 1446 1529 1646 1705 1592 1462 1672 1668 748 680 675 676 811 876 926 1013 1131 1403 1700 1334 1158 1403 1815 1938 1868 1716 1748 1655 1739 1893 1549 1341 870
1320 1241 1066 1103 937 865 949 1100 1368 1192 1310 1299 1404 1552 1623 1718 1906 1826 1722 1533 696 683 897 1105 1101 1096 1430 2056 1539 1193 1181 1309 1634 1768 1829 1811 1755 1659 1299 1720 1238 852 394
1098 1025 1005 894 807 853 846 993 1302 1115 930 982 768 1086 1135 1359 1875 1744 1905 1700 905 952 1313 1545 1887 2131 1631 2395 2409 1237 1561 1341 1125 1257 1575 1644 1600 1545 1252 1278 1097 438 87
739 888 769 783 975 1014 968 984 922 1336 1497 1399 1101 953 1298 1292 1114 1389 1779 1824 1557 1401 1639 2187 2489 2727 2742 2172 1756 1495 1832 1416 1032 992 1298 885 1318 1392 1171 889 1003 407 37
921 1081 681 532 934 1126 1071 682 727 1064 1283 1258 1202 1164 882 1011 1603 1349 1488 1842 1483 1369 1500 2160 2423 2521 2092 2152 1690 1917 2342 1767 1410 1102 493 500 642 784 903 781 736 599 107
789 902 947 945 688 1050 1161 925 995 926 1039 1181 1047 794 906 882 1176 1672 1768 1518 1475 1425 1256 1525 1858 1984 2158 1903 1431 1800 2152 1650 921 535 93 0 94 359 489 653 605 571 297
414 488 667 716 981 793 911 657 683 1043 930 1080 923 877 857 1124 1056 1387 1863 1648 1556 1438 1224 1298 1578 1648 1516 1819 1231 1218 1175 1949 1415 1210 897 74 0 161 141 143 239 344 316
495 512 478 610 611 502 649 892 916 837 729 684 1038 838 719 842 1082 1278 1292 1779 1592 1696 1101 929 959 847 1242 1433 1415 1491 1379 1045 1424 1242 950 91 0 108 49 87 93 117 181
424 387 573 634 654 687 827 1072 1108 857 588 785 786 1053 1056 1141 993 737 904 805 701 1115 1125 1107 967 1206 1396 1366 1524 1324 1516 1462 776 364 247 10 6 105 111 75 64 29 30
817 830 832 774 636 616 552 444 543 645 661 595 602 572 722 1044 980 1185 1273 1309 1044 998 1093 1389 1196 1226 1334 1533 1843 1428 1233 1325 1447 1305 621 67 230 315 223 110 89 128 27
286 654 949 920 846 681 531 479 381 341 460 623 843 752 1082 870 849 887 960 973 795 644 972 912 850 917 945 924 881 1057 1558 1592 1343 1257 753 594 282 390 263 199 366 281 47
81 140 326 505 561 349 115 239 362 642 812 953 1215 1031 937 664 771 529 527 520 701 789 735 682 767 912 1452 1309 1164 1184 1137 1184 823 633 992 357 209 330 341 198 168 93 3
0 0 0 32 65 22 0 0 30 698 1124 1195 1223 1243 977 1013 1126 1132 760 582 461 411 458 911 1086 1321 1217 1498 1343 1451 1332 1363 1110 740 679 453 286 323 477 273 442 215 7
0 0 0 0 0 0 0 0 0 116 452 822 1083 1216 1301 1179 1184 1125 1036 1283 1145 1178 1089 855 826 1176 1429 1515 1697 1573 1516 1304 1069 847 996 863 454 461 643 691 611 261 1
0 0 0 0 0 0 0 0 0 21 117 219 405 644 673 833 92 39 594 1168 1372 1404 1183 846 648 578 514 417 404 761 1019 953 733 646 875 974 770 683 890 791 820 345 24
0 0 0 0 0 0 0 0 0 0 0 0 39 14 0 0 0 0 0 490 965 1297 1258 1363 1352 1219 897 1243 715 461 968 1060 952 869 902 920 752 772 804 625 773 800 765

GFSMA_con_mlcape_096.txt.gz
CAPE
1366 1334 1678 1379 1256 1246 1548 1686 1410 1427 1311 1408 1438 1339 1063 606 278 59 0 56 414 767 1021 1002 940 865 863 872 997 945 946 1062 1136 1285 1396 1405 1398 1365 1149 993 1037 833 1028
1422 1371 1552 1510 1251 1172 1366 1470 1479 1133 963 967 1192 1157 887 474 690 370 80 40 6 178 454 785 765 793 760 781 968 1078 1183 1276 1455 1651 1600 1593 1671 1780 1831 1764 1444 1163 898
1732 1496 1407 1292 1314 1625 1855 1490 1258 1065 673 632 899 1071 841 896 892 1115 743 612 620 185 168 400 617 633 678 971 1328 1539 1657 1763 1844 1912 1949 2078 2162 2245 2219 2030 1953 1831 1349
1808 1559 1200 1248 1646 1484 1365 1153 997 765 795 743 1070 979 854 839 1123 1147 1021 1280 1411 1301 881 487 527 738 908 1304 1606 1710 1802 1846 1961 2069 2145 2247 2336 2222 2307 2343 2219 2058 1869
1799 1370 1308 1663 1848 1265 1265 1044 1087 1188 1011 939 793 818 841 868 987 820 1155 1449 1366 1605 1664 1102 927 923 911 1134 1277 1517 1773 2009 2084 2064 2196 2132 1923 2279 2609 2791 2726 2560 2318
1847 1505 1421 1711 1750 1394 1219 1227 1571 1305 1258 1134 645 644 693 872 1043 1086 1001 1257 1437 1664 1521 2001 2091 1760 1265 1054 1106 1238 1588 2028 2108 1988 2041 1803 1802 2262 2621 2832 2807 2764 2318
1437 1802 1276 1639 1674 1580 1808 1897 1305 1526 754 827 776 571 486 799 994 1011 989 1174 1276 1262 1503 1867 2216 2280 2170 1768 1401 1021 1382 1620 1992 2089 1939 1778 1664 2096 2532 2651 2644 2615 2482
1582 1639 1466 1350 1586 1388 1863 2080 2039 1042 789 1316 791 831 484 376 523 632 794 836 1258 1070 1314 1754 2021 2162 2229 2023 1580 1252 1111 1340 1730 1890 1894 1761 1691 1966 2457 2297 2396 2431 2342
1398 1652 1578 1403 1533 1771 1340 1765 1760 1796 736 1326 1896 1295 732 581 457 387 751 822 1240 1109 1351 1606 1666 1808 2040 2063 1664 1693 1237 1421 1728 1878 1813 1830 1747 1632 2384 1973 2059 2055 1885
1109 1229 1688 1529 1785 1331 1526 1826 1696 1667 1950 1140 1327 1791 2235 2234 945 502 416 547 1000 1028 1290 1225 1337 1664 2051 1991 1696 1302 1189 1461 1824 2030 2101 1952 1876 1759 2124 1856 1668 1404 1011
1361 1123 1630 1638 1890 1305 1900 1914 2050 2150 1428 1500 1184 1684 2191 2063 2310 1123 437 369 589 768 961 1137 1306 1533 1951 2298 2054 1344 1035 1236 1565 1736 1858 1991 2004 1878 1642 1880 1406 953 397
1364 1267 1433 1632 1730 1524 1584 1546 2084 2057 1927 1779 1689 1806 1619 1643 1634 1357 966 889 593 739 993 1121 1386 1605 1872 2129 1966 1519 1379 1344 1094 1030 1482 1650 1774 1880 1678 1669 1353 796 283
915 1343 1433 1365 1306 1701 1547 1387 1282 1746 1687 1477 1758 1372 1517 1647 2010 2035 1600 1103 768 889 1196 1378 1729 2078 2007 2359 2350 1303 2037 1500 1447 1015 1249 916 1220 1552 1518 1359 1267 639 173
720 1124 815 932 1281 1352 1559 1734 1160 1020 1247 1314 1648 1835 1256 1448 1563 1741 1995 1809 1154 986 1378 2113 2170 2313 2481 2345 2045 1512 2044 1943 1316 1211 505 399 598 897 1128 1070 1045 622 129
1172 918 679 655 761 989 1326 1465 855 1415 1694 1450 1354 1499 1223 973 1163 1359 1722 1851 1677 1200 1292 2410 1808 2514 2159 2070 1902 1604 1816 1553 1453 680 156 32 0 171 566 773 766 692 234
1399 937 907 781 766 831 1202 1479 961 1125 1580 1360 1025 1131 1181 592 931 1017 1132 1148 1411 1475 1082 1613 1554 1867 2073 1694 1370 1359 1346 962 1110 861 1119 1093 173 31 268 283 408 488 442
1285 1077 827 687 842 699 768 967 1038 1125 1430 1169 1279 1252 1201 1101 698 645 888 1027 807 841 946 872 1396 1437 2054 1787 1678 1681 1182 988 559 1071 873 798 118 0 99 96 129 168 263
915 996 1156 960 805 846 1045 1010 993 946 1183 964 746 938 1038 586 868 825 723 795 905 1020 794 597 722 831 1340 1442 1409 1810 1265 709 608 460 348 245 18 0 45 55 66 55 62
698 616 744 764 733 990 927 1011 1364 1248 942 781 822 763 927 822 925 428 388 395 280 376 554 537 510 523 762 1227 1286 1306 857 1011 971 497 414 183 9 55 160 91 48 29 34
919 591 702 783 837 1347 1273 1270 1297 1382 1202 898 881 784 682 780 991 1123 1296 1047 1078 1138 728 561 391 248 336 576 910 579 321 393 718 666 659 370 222 278 268 181 74 132 160
920 970 1187 1335 1382 1364 1067 1348 1138 1076 1075 935 897 1021 932 811 812 814 911 951 1173 1006 462 147 263 207 281 520 652 427 446 430 431 600 450 620 186 15 18 21 24 121 93
524 823 983 1207 1164 941 45 97 380 1173 1218 1177 1292 1515 1319 1056 778 549 577 542 705 1033 1183 933 546 433 738 1030 952 859 711 486 515 419 460 279 150 128 46 83 139 164 114
167 166 297 616 68 0 0 0 0 752 1358 1466 1429 1353 1232 544 810 906 783 575 423 442 492 889 992 1098 1113 1234 1381 1575 1053 1031 904 602 511 399 470 395 151 143 369 355 351
90 91 112 89 0 0 0 0 0 273 969 1294 1311 1354 1452 1361 17 338 1147 985 1042 1251 1199 1153 1009 1333 1641 1505 1485 1573 1394 1451 1464 1038 758 518 431 442 449 402 524 519 373
12 24 63 11 0 0 0 0 0 237 493 763 523 74 106 20 0 0 565 1193 1195 1216 1300 887 848 779 759 680 572 786 863 835 744 627 656 436 353 369 392 434 452 522 456
1 2 3 0 0 0 0 0 0 0 0 22 250 2 0 0 0 0 0 90 409 761 448 317 488 579 757 1200 955 1031 1335 1184 1060 882 782 1043 1037 928 779 598 448 448 576

GFSMA_con_mlcape_099.txt.gz
CAPE
1080 1207 1241 1214 1050 1462 1514 1114 973 1139 1091 942 472 490 233 290 74 0 0 108 316 586 827 743 763 725 736 815 982 1116 1212 1332 1455 1695 1822 1774 1775 1830 1855 1611 1274 1150 871
1497 1224 1169 1338 914 1343 1469 1038 1348 725 841 344 717 611 328 278 529 84 0 4 4 120 330 593 652 732 868 972 1232 1479 1620 1704 1840 2009 2080 2111 2167 2188 2219 2192 2167 1772 1351
1949 1450 1058 1074 1021 1258 1586 1296 847 759 314 169 696 754 527 703 826 987 596 581 329 128 237 412 575 671 766 1018 1562 1877 1933 1992 2104 2158 2213 2332 2327 2383 2314 2321 2259 2265 2105
1655 1487 1083 1160 1124 1339 811 819 524 493 488 530 787 838 616 620 983 1208 1236 1462 1515 1123 677 705 737 874 1006 1378 1737 1885 2016 2134 2157 2135 2206 2313 2182 2299 2629 2770 2748 2602 2350
1869 1404 1317 1379 1927 1068 841 616 461 907 687 540 711 739 811 703 1138 937 1657 1786 1603 1902 1545 995 1124 936 1001 1223 1346 1517 1815 2123 2136 2067 2087 1935 1939 2295 2690 2926 2936 2862 2547
1660 1871 1315 1392 2003 1340 978 1316 1814 655 1052 945 750 625 775 823 1045 1118 1441 1653 1734 1848 1276 2091 2442 1817 1479 1335 1092 1195 1575 2015 2174 2172 2046 1835 1797 2208 2616 2783 2788 2786 2649
1613 1913 1547 1539 1569 1759 1727 1264 1335 1624 438 485 1460 488 421 832 1089 1036 1304 1478 1466 1137 1487 2202 2249 2512 2236 1781 1336 1060 1481 1659 2059 2118 2070 1829 1706 2120 2421 2442 2544 2586 2525
1658 1600 1635 1587 1758 1387 1854 1770 1910 1647 374 683 1074 995 440 647 728 769 971 1199 1434 946 1326 1775 2080 2443 2279 1978 1911 1259 1339 1507 1857 2088 1941 1870 1821 1746 2299 2033 2217 2224 2097
1431 1864 1878 1776 1531 2193 1611 1811 1341 1512 1017 509 1635 1895 1342 945 592 714 866 1158 1276 1001 1128 1575 1589 1875 2369 2052 2004 1561 1301 1497 1911 2234 2318 2062 1890 1755 2226 1805 1746 1572 1380
1250 1462 1558 1681 1960 1676 2001 1952 1360 1911 1522 735 525 1211 1740 2080 2103 531 516 849 1009 990 1130 1306 1256 1771 2021 2021 2111 1168 973 1222 1559 1822 2058 2204 2142 1970 1828 1919 1491 1099 632
1310 1068 1406 1536 1762 1581 1610 2188 2036 2298 1207 1761 1003 1111 1783 1177 1084 1394 598 540 748 710 853 1018 989 1198 1790 1922 2278 1553 1156 1227 1084 1053 1200 1811 1992 2195 2021 1892 1593 1047 483
1126 1171 1398 1516 1763 1869 1880 1760 1998 1998 2385 2086 2044 1539 1304 1470 1520 1333 835 540 791 664 658 695 1008 1143 1233 1662 1951 1487 1642 1569 1373 1266 1066 937 1213 1675 2082 1991 1738 1263 655
767 1502 1284 1381 1461 1804 1634 1617 1837 2085 1850 1980 2083 1736 726 1144 1219 1445 1338 994 522 668 848 965 1187 1422 1847 1781 2060 1027 2106 1839 1079 1085 577 353 551 1008 1459 1671 1651 1314 706
483 1481 1181 1229 1167 1560 1554 1416 1128 1098 1335 1443 1619 1962 1794 969 1259 1217 1352 1175 1139 591 940 1726 1304 1771 1538 2186 2127 1311 1731 1443 1239 831 272 99 14 5 397 988 1181 1118 693
1155 1116 662 811 936 1052 1308 1418 937 1047 1454 1658 1648 1587 1333 1008 687 1167 1215 984 1070 959 627 351 1661 30 613 1700 1632 1635 1433 1342 763 996 422 948 828 348 111 436 572 735 668
925 1094 551 674 759 839 964 1383 1161 890 1178 1367 1134 1149 1353 873 840 600 772 794 790 850 736 1122 1562 2067 2185 2068 1547 1906 1809 1255 1046 848 664 802 455 89 20 79 179 227 356
1011 912 1125 995 950 1003 1047 1247 1244 1202 1574 1189 1306 1500 1160 1343 933 660 840 711 599 642 715 786 1001 1531 1667 1532 1796 1974 1923 1743 773 491 720 575 213 16 0 34 84 126 129
961 1067 1077 1157 1205 1094 1121 1379 1279 863 1288 1159 910 852 923 793 1032 1107 507 543 425 625 693 492 441 319 421 1098 1533 1890 1546 1092 751 640 577 302 212 0 0 26 53 37 45
1021 886 1036 953 858 994 1338 1403 1406 1369 1062 1079 896 843 820 735 751 584 826 697 426 385 518 541 370 250 224 258 474 1367 1421 902 1096 455 356 288 149 41 67 63 66 31 12
813 858 916 1131 1011 1041 772 1303 1323 1310 1155 925 910 939 847 816 948 909 797 1136 847 626 573 583 362 318 314 201 217 518 518 286 349 529 451 433 379 284 118 70 87 50 26
692 819 811 939 1091 1027 474 564 1294 1307 1398 1267 1228 1118 1083 937 761 889 929 963 1187 1135 945 760 300 114 173 1024 915 506 819 531 571 486 463 398 279 176 177 10 54 95 43
668 936 943 1229 1126 85 0 4 233 1217 1105 1253 1186 1259 1318 1198 918 632 290 247 498 955 1149 1096 700 685 899 1104 1034 1124 1342 677 605 588 530 655 466 436 395 404 49 149 158
343 538 654 329 42 0 0 0 0 163 989 1233 1368 1193 1417 699 821 1248 878 544 563 400 371 796 1062 1194 1310 1544 1564 1647 1400 1280 1170 1107 992 1249 885 750 460 399 246 329 315
186 238 257 60 0 0 0 0 0 20 633 1213 1144 1308 1457 983 0 59 547 847 1137 1195 998 879 1207 1536 1635 1524 1807 1665 1636 1345 1408 1445 1447 1234 1049 726 546 474 310 286 385
135 196 164 37 0 0 0 0 0 279 630 769 265 92 417 98 0 0 117 800 1166 1170 1007 742 765 667 738 800 783 917 834 601 664 790 1131 1098 1212 1121 1152 1276 1061 705 305
35 50 0 0 0 0 0 0 0 0 44 7 520 0 0 0 0 0 0 10 319 586 448 208 29 204 377 754 641 718 1106 891 1131 1240 949 1271 1164 1230 1004 1022 1052 1120 1184

GFSMA_con_mlcape_102.txt.gz
CAPE
1098 1150 674 341 598 511 1102 1397 1345 1331 1399 586 351 167 234 134 12 1 9 78 158 302 471 476 585 601 674 819 1083 1336 1526 1651 1739 1918 2115 2180 2131 2070 2059 2085 1727 1300 1026
1391 580 575 822 995 1149 1149 890 286 559 935 464 609 508 289 516 393 0 0 0 0 47 169 487 523 636 820 1046 1339 1676 1906 1962 2098 2240 2245 2282 2304 2224 2140 2202 2077 2117 1667
774 0 486 822 1023 605 927 1249 1076 1001 552 562 656 591 709 743 1024 351 98 57 41 94 141 348 499 650 855 1101 1549 1922 2021 2117 2170 2151 2169 2296 2349 2364 2544 2521 2480 2386 2257
1459 1248 1344 942 1468 1707 1981 1490 1143 978 562 846 851 874 780 785 1179 1296 1313 890 651 461 592 641 782 914 1019 1213 1593 1757 1920 2020 2037 2068 2070 2110 2048 2282 2640 2898 2866 2744 2584
765 1159 1009 648 1085 1901 611 964 788 845 889 837 664 832 870 884 1142 1378 1689 1809 1673 1408 1048 903 857 910 1114 1304 1388 1487 1699 2018 2147 2057 2037 1865 1899 2226 2599 2826 2879 2886 2769
1608 1441 1782 1176 1384 1589 963 1435 846 661 1530 828 1076 877 934 1008 1114 1282 1724 1656 1593 1631 1491 1627 1454 1276 1181 1437 1214 1276 1549 1834 2053 2094 2061 1825 1680 2107 2349 2505 2657 2711 2636
1346 1935 1677 1057 559 1199 932 1169 1549 1850 1051 1098 1592 724 567 853 1136 1134 1525 1593 1525 1851 1477 2160 2843 2165 1500 1601 1299 1128 1375 1507 1868 2108 1975 1844 1797 1777 2205 2086 2295 2350 2287
1505 1655 1543 1746 679 1313 1448 1551 1670 1935 593 832 1285 1731 732 990 986 977 1148 1339 1311 834 1505 2238 1976 2129 2506 1923 1729 1204 1275 1516 1895 2214 2275 1989 1857 1761 2086 1853 1884 1745 1560
1234 1334 1710 994 1459 1320 1529 1636 1682 2079 1327 527 525 1866 1631 1106 556 529 652 1165 884 1218 1383 1331 1920 1902 2153 2240 1668 1290 1020 1191 1544 1909 2163 2219 2073 1900 1779 2006 1617 1310 943
1243 1093 1339 1402 1435 237 715 1928 1624 1656 2211 1364 485 995 1018 1329 1492 841 764 845 1128 1227 1236 1510 1383 1647 1947 2039 2101 953 875 1028 1112 1114 1202 1880 2040 2102 2038 1936 1715 1224 687
1184 1023 1340 1420 1544 1286 1147 630 1749 1777 2156 1972 2095 1320 887 1876 1416 1268 619 499 796 1112 549 643 1231 1691 1664 2176 1854 1160 1181 1249 1076 1131 992 1077 1300 1764 2189 2167 1927 1521 957
1173 1020 925 1389 1490 99 356 1615 1742 1552 1955 1620 1963 2153 552 319 457 490 922 633 787 550 813 786 685 1340 1942 2090 1444 1345 1603 1441 1060 872 581 519 641 1021 1527 1946 2080 1744 1293
359 705 1151 1035 1206 1123 1371 1423 1591 1670 1929 1630 1853 1862 463 155 156 510 1744 332 520 754 689 671 330 265 301 23 132 1158 1611 1649 1091 703 420 103 91 131 207 726 1452 1667 1376
37 705 845 989 1211 1443 1095 1106 1084 902 1649 1505 1470 1558 1562 1512 892 1244 1151 137 733 625 64 1 72 12 17 0 40 643 1697 1360 1039 702 478 352 707 521 325 305 595 995 1048
32 226 129 850 726 1059 664 1138 928 901 877 503 898 1699 1104 1070 1089 1138 858 871 932 646 284 32 0 0 0 0 14 1767 2026 1772 1071 1143 733 671 629 476 57 68 186 342 436
7 0 1 519 800 657 740 859 1080 957 1003 317 1119 1151 1179 1159 1081 992 1251 831 1299 803 687 140 51 81 0 310 356 2063 1836 1654 1397 1337 414 480 496 285 7 0 7 100 171
76 108 566 809 828 674 746 941 958 871 796 895 862 865 946 1008 566 638 560 426 596 685 638 826 532 708 557 681 1731 2000 1757 1748 1319 510 468 448 441 216 4 0 0 0 8
889 783 989 873 976 871 842 1016 1010 972 991 1071 1001 1014 941 467 930 1060 1073 1070 896 910 800 700 740 887 690 498 529 1739 1730 1635 981 914 604 523 438 162 42 7 2 6 0
651 1034 896 803 529 787 843 843 823 1054 946 958 1066 991 887 973 621 664 644 636 674 594 226 250 240 375 372 471 458 648 1085 617 1159 490 335 320 298 160 125 62 40 29 28
435 734 650 700 752 1105 905 924 1156 931 919 1145 941 866 988 972 678 734 595 763 693 690 741 1028 1234 1067 628 965 1148 1046 990 1684 951 790 457 628 327 270 135 32 68 11 0
321 597 669 665 280 145 51 97 250 787 735 1030 1012 964 1136 841 606 535 759 751 514 431 552 551 492 748 938 859 937 1045 1306 821 572 788 642 849 719 527 499 482 290 96 12
164 367 258 584 172 0 0 0 0 556 659 734 767 945 1077 771 796 561 376 362 154 133 163 322 258 466 624 731 939 1298 995 1106 1199 1389 1005 646 873 1181 1388 963 634 143 151
84 73 268 79 0 0 0 0 0 67 347 478 614 718 687 457 42 57 475 460 362 361 286 402 434 642 919 1127 1446 1253 1307 1448 1055 1057 994 1050 1201 1189 1270 1327 340 227 221
59 105 117 0 0 0 0 0 0 9 108 587 1037 1299 1117 12 0 0 22 435 857 736 967 704 547 825 1262 1348 1096 1121 1089 1049 1221 1191 1264 1177 1149 1330 1449 1516 1158 620 421
4 89 88 0 0 0 0 0 0 0 452 604 31 0 3 0 0 0 0 19 231 717 130 46 62 29 43 85 200 360 349 524 469 643 917 1137 1004 800 1123 1244 975 849 570
67 2 0 0 0 0 0 0 0 0 0 0 0 0 0 0 0 0 0 0 0 0 0 0 0 0 0 58 139 151 438 652 661 563 953 497 24 0 43 177 460 720 1401

GFSMA_con_mlcape_105.txt.gz
CAPE
497 78 0 0 168 295 312 561 853 891 1048 381 47 65 24 0 0 0 0 0 5 66 157 237 336 469 600 786 1033 1354 1596 1750 1823 2009 2200 2236 2220 2057 1957 2040 2003 1507 1208
582 261 144 166 360 381 411 106 177 560 636 424 133 69 144 2 0 0 0 0 0 14 156 314 396 556 752 1035 1308 1643 1939 2036 2099 2190 2194 2242 2285 2224 2178 2114 2087 1994 1955
173 340 552 498 793 515 1021 205 494 570 385 341 453 171 311 322 0 0 0 0 1 77 158 361 486 618 792 1086 1424 1800 2047 2074 2115 2090 2011 2103 2166 2253 2566 2577 2417 2335 2176
528 936 848 826 1201 1547 1455 1769 1376 871 570 443 447 431 558 555 797 18 18 3 21 88 308 505 617 776 988 1257 1476 1721 1796 1931 2007 1998 2014 1848 1902 2153 2542 2842 2881 2740 2632
1069 1235 1354 1100 1762 1486 416 1073 648 1012 450 592 657 585 438 708 841 928 668 508 435 412 383 606 728 804 1012 1520 1576 1536 1587 1787 2026 2051 2006 1873 1753 2039 2273 2554 2713 2772 2699
1474 1511 1743 877 539 1212 959 1144 1183 1654 1406 606 1133 681 522 757 888 1160 1394 1218 1057 892 721 839 1011 977 956 1231 1570 1362 1452 1683 1804 1969 1960 1874 1750 1957 2084 2103 2352 2475 2422
1577 1607 1456 112 0 1142 1446 1476 1539 1705 1142 1173 1169 807 724 734 868 913 1300 1262 1151 1255 1314 1306 1357 1378 1364 1158 1356 1249 1347 1458 1723 2082 2100 1889 1817 1704 2143 1781 1861 1857 1730
1303 1628 1309 1023 855 1068 1618 1364 1412 2030 1315 632 1288 1356 438 555 691 834 1010 1290 1133 1309 1351 1760 1950 1980 1763 1470 1306 1280 1136 1272 1646 2005 2233 2166 1948 1833 1777 1851 1577 1335 1104
1157 1250 954 710 730 744 706 849 1897 1983 1654 1624 1238 1509 1297 929 671 468 519 862 772 753 1005 1707 1583 1704 2070 1821 1730 1225 944 895 1010 1225 1403 1821 1980 1985 1924 1955 1599 1207 754
1118 1020 767 501 770 57 0 483 1683 1932 1792 1586 1652 1405 1082 1343 1182 323 403 632 400 705 891 835 1449 1087 1281 1280 1320 1102 919 932 805 997 1016 1285 1346 1667 2103 2073 1800 1390 830
1186 1056 1312 1258 926 530 850 1199 1063 1821 1736 1483 1433 997 846 553 265 647 677 467 507 551 299 207 580 401 667 725 575 299 431 1226 1066 931 750 679 815 1134 1632 2162 2166 1726 1264
626 1065 1028 1092 953 512 354 638 1610 1738 1768 1608 1241 682 206 189 12 440 237 8 23 205 204 249 227 84 319 63 0 5 36 431 881 923 549 360 233 246 429 973 1762 1917 1561
363 538 632 1000 843 606 256 670 1080 1245 1588 1523 1472 876 452 412 9 1 574 379 0 21 329 91 138 109 72 77 0 7 26 100 415 976 702 452 373 528 475 391 794 1365 1360
168 312 559 867 832 1027 1062 1088 616 879 1010 1111 907 1476 1058 579 480 307 353 55 0 29 158 0 1 13 0 0 0 0 11 268 1282 1112 1062 825 510 634 499 95 248 465 608
9 214 281 314 459 884 993 1004 798 602 775 649 489 809 1307 1332 1177 879 682 234 662 356 304 57 2 44 35 10 0 0 61 469 1540 1295 1254 800 371 482 409 3 7 66 200
68 271 74 57 266 735 744 669 950 883 819 466 11 1229 1052 926 891 391 422 296 480 359 370 260 115 294 181 4 0 193 500 827 1520 1250 1143 478 378 389 365 9 0 0 24
6 0 0 299 577 793 650 758 677 695 472 732 685 879 643 614 973 1034 702 1008 730 786 740 703 376 385 399 327 158 345 879 1484 1369 1122 980 675 418 394 364 109 0 0 0
265 325 535 862 823 911 771 840 928 928 951 685 672 826 727 680 390 690 655 607 525 524 400 109 287 453 373 411 697 757 836 1756 1781 961 395 369 275 340 370 186 52 0 0
753 940 845 827 687 673 707 830 876 723 644 754 709 794 810 789 909 527 320 234 672 568 484 651 739 753 731 869 564 663 1139 1053 634 895 400 418 591 400 270 195 110 42 0
271 372 528 755 595 329 323 364 497 554 603 679 861 855 788 699 559 589 580 446 683 411 449 350 365 319 386 683 793 499 345 566 435 909 731 519 295 509 559 584 684 583 106
12 150 473 277 113 43 9 7 41 228 467 550 725 777 618 561 418 426 465 529 628 337 58 0 0 9 3 120 115 686 745 701 699 788 534 462 653 885 1074 1164 1243 947 523
0 37 39 24 0 0 0 0 0 87 476 703 549 362 463 153 119 121 237 393 230 246 184 284 314 257 337 493 679 844 945 652 604 821 752 752 1002 1054 1155 1329 1338 782 98
0 4 0 0 0 0 0 0 0 0 126 295 406 483 327 0 0 0 16 350 410 313 300 405 437 421 519 540 784 739 743 686 595 593 825 987 899 921 871 804 1032 705 414
17 0 0 0 0 0 0 0 0 17 115 228 136 174 21 0 0 0 0 68 250 117 41 48 175 113 109 178 69 55 233 416 520 535 497 426 871 189 21 20 120 339 517
10 3 0 0 0 0 0 0 0 30 193 1 0 0 0 0 0 0 0 0 0 3 0 0 0 0 0 0 0 4 72 219 340 396 468 183 75 0 0 23 299 249 493
6 0 0 0 0 0 0 0 0 0 0 0 0 0 0 0 0 0 0 0 0 0 0 0 0 0 0 0 0 0 0 0 0 0 84 0 0 0 0 143 32 262 164

GFSMA_con_mlcape_108.txt.gz
CAPE
407 171 0 0 130 224 290 367 370 686 1053 646 524 335 69 0 0 0 1 106 83 174 260 353 445 576 703 881 1099 1445 1761 2034 2098 2217 2435 2468 2190 1947 1956 1868 1891 1786 1390
435 180 0 104 232 346 403 302 172 1 389 340 0 16 7 0 0 0 0 11 31 81 285 474 577 689 869 1142 1418 1708 2034 2237 2288 2421 2410 2348 2419 2396 2340 2339 2183 1956 1743
373 233 285 427 479 482 687 471 294 287 499 321 60 48 28 9 0 0 3 9 49 197 377 523 715 729 881 1199 1536 1792 2081 2188 2172 2198 2140 2151 2214 2272 2539 2771 2693 2469 2184
34 292 409 505 35 5 1064 1200 1082 1253 587 336 305 228 292 19 17 3 6 11 67 165 289 560 705 776 921 1326 1782 1840 1894 1911 2095 2189 2113 2017 1934 2194 2493 2746 2892 2918 2788
1014 1298 1107 894 801 943 574 1127 770 1123 681 433 380 424 508 548 499 161 90 145 178 223 275 461 840 878 979 1326 1806 1904 1747 1724 1954 2129 2207 2094 1831 2117 2276 2415 2557 2629 2412
1181 1431 1118 609 147 1080 1409 1509 1504 1612 1365 381 649 749 541 478 642 828 420 566 551 506 525 499 729 1042 1067 1088 1294 1626 1555 1688 1781 2013 2142 2067 1877 1799 2231 2015 2078 2098 2015
1409 1326 1224 191 640 975 1523 1499 1517 1447 707 744 999 726 523 390 578 691 938 1149 890 902 755 869 875 996 1033 1151 1130 1340 1503 1610 1778 2000 2267 2317 2051 1903 1896 1952 1783 1588 1361
1105 1115 1098 737 748 829 778 1211 1899 1525 1543 1390 1121 791 308 433 439 676 709 1119 1047 1054 1146 1181 1415 1670 1552 1352 1439 1485 1323 1177 1283 1788 1763 1789 2132 2083 1898 2064 1721 1355 926
1143 971 790 707 551 416 111 734 1474 1839 1260 1348 1216 1436 863 677 612 320 442 589 665 698 797 1251 1402 1557 1679 1494 1174 926 935 748 1272 1443 1640 1316 1435 1724 2018 1968 1938 1369 828
948 1084 652 540 572 1 23 831 1007 1699 1360 1208 1321 944 620 763 836 353 364 405 446 386 507 580 1000 1240 1117 1115 939 951 733 596 691 876 1220 1189 875 1019 1531 2139 2135 1692 970
871 1152 415 763 634 423 654 900 1282 1303 1477 1079 821 391 400 232 312 402 396 71 291 356 337 383 499 747 490 349 0 124 107 375 564 581 572 940 505 314 567 979 1813 2185 1483
579 840 1163 1055 600 535 327 344 1265 1376 1446 1150 762 144 170 52 162 167 282 113 63 44 344 288 285 440 418 194 25 18 0 11 386 500 548 928 706 177 622 549 773 1773 1911
397 509 735 876 586 409 4 148 970 890 1147 871 1190 852 221 268 6 108 478 331 47 0 97 241 105 142 189 205 113 14 0 11 272 609 828 1296 1148 374 474 457 137 804 1571
257 311 415 757 761 769 743 870 782 636 852 691 587 731 1050 551 236 457 366 245 311 145 255 105 9 27 28 32 0 0 0 0 21 216 728 1404 1136 527 327 441 0 52 360
180 193 408 314 437 573 692 800 795 626 609 569 240 376 834 995 636 450 355 148 450 389 337 276 117 32 80 50 58 8 13 149 406 680 1001 1181 917 471 329 388 24 0 4
125 37 277 171 219 384 672 761 702 602 633 638 177 375 741 555 764 699 540 365 519 328 334 295 237 114 300 310 201 81 66 171 397 1100 935 454 418 445 378 324 296 10 0
65 109 80 0 209 467 705 646 576 595 500 317 465 397 414 585 440 642 579 674 380 502 370 286 168 250 393 514 593 579 543 766 1486 882 478 424 486 336 250 259 265 215 49
9 0 0 189 545 631 736 605 512 677 457 474 396 504 463 714 389 489 463 290 301 437 301 121 230 537 580 628 544 507 1062 1047 736 583 562 624 173 126 256 308 275 364 459
308 232 457 551 571 594 624 570 642 621 670 605 588 494 570 574 516 584 341 248 362 432 439 426 456 436 447 503 545 414 476 398 595 719 630 386 554 723 814 716 741 789 602
195 282 435 678 364 116 100 115 243 242 361 359 497 595 590 678 555 416 449 436 416 387 183 71 19 0 12 196 324 424 286 675 436 611 576 447 784 838 824 971 1034 881 300
78 72 173 114 56 26 1 0 4 33 221 33 330 399 244 183 211 175 217 310 424 325 251 54 47 57 50 229 414 568 462 576 513 552 471 450 718 739 789 301 296 717 454
19 59 2 0 0 0 0 0 0 0 95 360 291 255 42 20 37 33 92 194 302 253 166 170 159 142 136 339 415 383 475 261 137 543 478 468 555 690 34 0 0 262 456
47 3 0 0 0 0 0 0 0 1 39 255 277 261 55 0 0 0 14 235 217 115 103 186 164 165 200 234 222 113 0 4 81 209 533 369 430 151 7 0 36 80 465
47 0 0 0 0 0 0 0 0 8 42 68 81 15 0 0 0 0 0 0 63 0 0 0 0 0 0 0 0 0 0 16 81 137 361 101 0 0 0 0 55 0 89
0 0 0 0 0 0 0 0 9 15 0 1 0 0 0 0 0 0 0 0 0 0 0 0 0 0 0 0 0 0 0 0 0 39 2 0 0 0 0 0 5 3 46
2 0 0 0 0 0 0 0 0 0 0 0 0 0 0 0 0 0 0 0 0 0 0 0 0 0 0 0 0 0 0 0 0 0 0 0 0 0 0 14 0 0 0

GFSMA_con_mlcape_111.txt.gz
CAPE
274 7 0 1 49 153 238 273 337 232 102 319 174 633 374 28 19 35 166 520 358 309 374 459 595 747 917 1091 1349 1685 2080 2395 2477 2384 2302 2228 2130 2010 1911 1792 1689 1621 1613
297 79 6 219 377 393 518 448 321 300 238 282 0 10 78 11 0 0 0 21 146 191 326 572 780 888 1061 1326 1614 1858 2083 2269 2281 2283 2254 2229 2313 2312 2508 2623 2360 2024 1803
294 128 214 305 261 92 773 893 807 686 695 539 23 9 7 13 0 0 0 0 1 159 329 591 775 918 996 1244 1715 2050 2047 2222 2189 2182 2158 2099 2021 2139 2333 2575 2770 2258 2215
184 303 352 268 1 1 669 553 722 717 710 355 239 64 22 4 3 0 0 0 0 79 172 492 752 867 960 1252 1854 2188 2114 2081 2070 2266 2298 2219 1980 1956 2191 2269 2138 2259 2375
409 936 778 444 531 881 1155 1056 1171 1063 563 338 300 239 236 254 55 19 27 44 65 71 119 222 460 855 1148 1446 1692 1831 1981 1909 1987 2038 2302 2295 2120 1873 2050 2107 2008 1815 1648
1044 1160 741 316 658 1032 1350 1368 1442 1306 1053 347 366 485 385 264 330 429 337 123 162 201 257 297 334 618 909 1092 1279 1464 1742 1703 1709 1865 2216 2451 2354 1987 1864 2115 1842 1678 1370
1044 1001 777 0 640 1016 1096 1729 1524 1069 791 713 778 552 386 344 290 431 433 635 654 564 518 668 656 878 1040 1283 1259 1452 1215 1225 1386 1628 1698 1788 2099 2309 1924 1907 1872 1609 1196
1103 740 835 653 602 515 787 1505 1599 1163 1277 1132 1104 354 216 275 267 224 358 450 634 742 812 971 1176 1657 1618 1483 1375 1247 922 948 1372 1481 1442 1442 1450 1779 2104 1840 1958 1631 1178
1131 929 730 491 442 178 382 984 1489 1198 1109 1045 1033 825 461 492 433 235 348 360 449 582 800 959 1246 1435 1551 1572 1352 976 917 845 1070 1079 1103 1108 1082 895 1394 1896 1913 1787 1287
695 1023 650 492 271 0 473 877 1064 1263 956 922 562 411 427 553 641 279 267 323 313 417 516 732 966 1033 1232 1195 1135 932 721 170 617 652 587 825 1128 982 502 1088 1549 1777 1539
686 929 557 434 425 319 561 976 1060 996 1030 622 296 275 281 156 121 273 304 116 147 303 290 352 434 684 687 476 164 1 11 0 2 134 376 657 1054 1463 943 882 839 1487 1804
507 819 904 538 597 479 391 553 1033 1165 973 768 294 172 204 89 103 94 161 89 124 53 92 284 255 243 310 355 253 203 121 0 0 103 59 330 563 1458 1302 556 584 691 1666
296 507 794 841 591 343 93 1 776 688 957 805 770 453 204 43 16 184 323 235 101 6 11 119 230 141 57 35 21 3 0 0 0 17 389 825 875 1127 807 452 483 42 818
209 249 421 775 560 397 175 517 677 584 727 589 361 723 686 263 114 304 279 156 358 209 173 208 10 22 14 36 60 107 109 62 46 199 856 610 485 734 614 369 428 9 15
256 194 316 466 621 548 611 696 702 463 449 395 287 163 738 611 299 190 197 61 234 180 202 219 110 11 116 153 224 270 223 171 150 713 491 441 434 437 367 343 430 337 58
158 51 183 211 219 280 407 647 706 601 411 392 186 57 511 458 574 490 420 287 283 322 209 236 265 72 112 307 457 622 595 653 960 712 472 326 158 280 307 300 313 337 355
154 29 54 132 54 180 357 563 508 509 503 268 235 386 280 419 383 447 391 521 311 290 342 158 75 149 340 510 445 515 685 634 530 592 640 428 298 420 472 484 457 580 704
21 0 7 30 0 321 554 580 526 606 529 360 198 204 365 492 532 358 459 345 207 311 273 105 97 287 448 549 487 303 351 484 413 610 484 287 758 895 859 904 921 716 347
84 48 48 181 487 545 540 522 528 554 599 671 537 475 459 498 499 495 332 254 229 381 315 315 254 237 110 92 131 218 457 343 530 626 630 481 722 760 345 158 387 312 14
173 273 326 432 463 217 176 158 207 362 368 386 488 506 490 516 508 387 300 259 330 303 229 137 87 0 0 79 233 295 167 344 308 385 525 467 499 616 0 0 69 312 187
47 87 219 153 70 58 14 0 0 26 105 134 225 331 232 118 103 88 61 80 132 212 205 169 81 87 107 148 271 364 277 201 60 424 340 399 547 289 0 0 36 293 34
4 44 39 25 0 0 0 0 0 0 45 170 160 160 78 3 3 14 11 29 99 151 110 100 63 30 39 183 232 143 128 8 30 298 202 349 107 0 0 0 0 0 0
29 17 3 0 0 0 0 0 0 0 22 144 223 224 24 0 0 0 6 1 0 0 28 112 67 23 0 0 0 0 0 0 26 45 312 228 0 0 0 0 0 0 0
35 4 0 0 0 0 0 0 0 0 10 11 16 14 0 0 0 0 0 13 0 0 0 0 0 0 0 0 0 0 0 0 1 0 0 0 0 0 0 0 0 0 0
0 0 0 0 0 0 0 0 0 0 4 0 0 0 0 0 0 0 0 0 0 0 0 0 0 0 0 0 0 0 0 0 0 12 0 0 0 0 0 0 0 0 0
0 0 0 0 0 0 0 0 0 0 0 0 0 0 0 0 0 0 0 0 0 0 0 0 0 0 0 0 0 0 0 0 0 0 0 0 0 0 0 0 0 0 0

GFSMA_con_mlcape_114.txt.gz
CAPE
217 0 4 30 111 248 320 333 220 258 230 196 25 466 77 14 0 0 55 299 472 493 513 532 619 818 1043 1293 1570 1897 2144 2398 2509 2375 2485 2508 2481 2394 2469 2577 2111 1782 1650
290 43 23 316 366 286 489 450 407 353 417 257 0 3 126 12 0 0 0 0 338 225 323 516 797 965 1112 1360 1698 2017 2218 2047 1969 1968 2013 2064 2138 2231 2406 2575 2628 2417 2031
142 129 27 259 115 74 732 534 556 618 681 436 24 0 2 0 0 0 0 0 0 90 294 503 802 1036 1181 1315 1675 2139 2121 2019 1977 2108 2248 2197 2136 2080 2132 2008 2246 2260 2054
242 240 249 133 16 392 933 785 761 544 417 289 202 34 7 0 0 0 0 0 0 0 86 283 615 878 1099 1416 1783 1968 1973 1834 1901 2065 2239 2326 2303 2112 1944 1819 1825 1871 1577
192 501 574 371 690 1107 1069 1214 1136 730 381 221 286 180 120 156 28 0 0 1 0 36 71 111 264 547 944 1400 1485 1607 1900 1773 1756 1828 2011 2335 2487 2332 2033 1884 1848 1616 1316
897 996 584 244 802 1158 1387 1337 1011 1108 530 351 369 301 311 240 222 364 414 385 222 224 355 397 483 571 755 1132 1289 1258 1564 1452 1355 1560 1675 1720 1777 2074 2166 1975 2027 1754 1438
854 891 579 59 930 928 1330 1432 1031 885 866 530 659 434 330 273 263 245 305 404 596 806 820 781 903 888 1036 1180 1345 1311 1092 1199 1644 1581 1473 1403 1293 1283 1623 1948 1934 1834 1415
889 612 427 374 742 499 1145 1374 1127 918 892 739 791 221 238 238 269 282 334 414 474 564 817 985 1014 1082 1443 1554 1375 1417 944 797 1029 1070 936 1156 1291 1001 768 1389 1885 1950 1509
805 869 695 594 489 65 791 1066 1121 919 771 693 663 600 346 415 353 308 379 391 440 568 713 846 1047 1325 1398 1448 1434 1089 902 721 190 131 505 1062 1404 1536 994 684 1336 1896 1663
829 745 632 332 79 0 691 866 1054 953 711 637 442 286 328 510 572 370 291 338 347 432 481 591 792 875 964 957 729 611 124 73 5 0 136 338 839 1417 1702 671 920 1365 1594
524 855 677 445 162 99 600 909 809 838 664 353 255 251 225 119 97 300 367 241 116 211 411 423 375 370 407 403 410 248 148 123 0 0 287 841 1063 1325 1524 952 815 683 1392
367 661 781 54 481 310 307 676 880 882 691 394 171 194 181 74 113 97 175 148 166 157 78 85 164 247 214 140 97 48 12 0 0 209 549 818 850 1049 967 717 584 148 840
290 430 626 631 611 425 166 12 586 648 803 631 530 327 216 0 15 270 273 232 177 63 39 144 182 116 132 73 83 78 227 96 139 313 501 486 436 647 777 544 441 86 99
237 209 374 680 614 399 40 0 537 453 560 610 357 565 531 202 102 267 244 198 289 262 218 274 105 81 116 173 238 333 443 391 372 489 391 242 313 458 581 426 378 352 78
228 168 195 453 566 495 411 485 606 327 320 282 185 212 656 619 187 169 138 53 112 117 177 203 209 56 175 399 625 844 838 797 644 544 452 338 235 211 341 334 285 307 299
187 137 129 210 365 352 365 432 561 579 422 290 107 13 339 467 509 388 411 155 189 233 106 146 290 71 200 453 441 733 592 437 485 521 417 265 357 482 450 496 529 527 518
157 138 61 75 134 113 192 337 450 533 412 306 246 238 342 284 306 346 440 355 239 207 249 243 84 56 246 557 566 407 610 678 571 614 250 301 645 643 607 463 434 331 349
80 73 58 98 67 0 206 380 411 413 432 446 325 143 184 362 413 352 275 417 270 147 209 146 51 186 294 298 154 151 405 597 625 530 372 355 530 150 3 78 128 14 0
52 7 0 0 41 201 383 450 406 379 481 463 484 424 321 337 378 401 432 280 188 197 250 240 222 86 28 0 60 187 366 303 324 398 356 405 427 0 0 9 0 0 0
93 127 135 232 315 368 315 292 209 234 229 340 492 499 477 459 427 450 309 242 186 229 203 199 126 47 5 89 163 334 278 276 0 467 241 405 326 0 0 0 0 0 0
52 38 94 120 83 66 33 31 12 14 48 149 277 418 318 182 133 88 99 58 45 27 104 160 119 63 66 77 167 240 165 23 23 488 183 380 0 0 0 0 0 0 0
79 49 25 19 7 0 0 0 0 0 0 30 154 214 66 1 0 0 6 45 56 97 114 103 72 76 85 105 67 0 1 0 0 31 174 378 15 0 0 0 0 0 0
24 14 0 0 0 0 0 0 0 0 0 30 122 129 6 0 0 0 0 0 0 0 9 96 76 17 0 0 0 0 0 4 42 0 0 108 0 0 0 0 0 0 0
13 6 0 0 0 0 0 0 0 0 0 0 1 0 0 0 0 0 3 28 0 0 0 0 0 0 0 0 0 0 0 0 12 0 0 0 0 0 0 0 0 0 0
1 0 0 0 0 0 0 0 0 0 0 0 0 0 0 0 0 0 0 0 0 0 0 0 0 0 0 0 0 0 0 0 0 0 0 0 0 0 0 0 0 0 0
0 0 0 0 0 0 0 0 0 0 0 0 0 0 0 0 0 0 0 0 0 0 0 0 0 0 0 0 0 0 0 0 0 0 0 0 0 0 0 0 0 0 0

GFSMA_con_mlcape_117.txt.gz
CAPE
463 77 265 492 713 889 914 965 804 863 981 613 400 1007 487 208 61 0 131 76 363 507 602 683 796 1028 1278 1505 1738 2002 2246 2419 2382 2296 2293 2165 2129 2132 2012 2213 2469 2502 2231
714 340 353 963 965 910 1177 1184 1085 1057 1199 544 286 448 573 177 22 1 51 117 299 502 409 703 922 1102 1241 1404 1588 1872 2157 2112 2096 2129 2205 2186 2134 2024 1961 2036 1946 2349 2473
562 652 385 786 605 483 1455 1244 1268 1255 1237 511 389 309 273 155 40 0 23 65 122 98 333 567 789 993 1090 1377 1649 2016 2212 2139 1987 2026 2166 2288 2301 2245 1982 1886 1778 1534 1898
771 682 752 660 503 1146 1702 1642 1466 1112 947 791 675 464 320 255 208 153 110 173 263 240 263 223 364 613 932 1229 1674 1866 1886 1984 1859 1930 2002 2189 2374 2408 2177 1995 1870 1694 1539
701 937 909 1071 1548 2097 2149 2082 1623 1189 876 741 657 598 559 681 500 278 395 443 385 367 518 510 332 441 706 1259 1550 1470 1567 1721 1471 1502 1729 1834 1846 1974 2207 2070 1985 1854 1564
1200 1651 1299 1024 1795 2173 2291 1814 1641 1439 1082 964 647 725 841 839 798 1042 1054 1032 1053 941 1126 1211 1276 1304 810 876 1218 1410 1437 1334 1452 1615 1533 1524 1438 1411 1663 1954 1962 2022 1748
1631 1662 1172 797 1604 1797 2053 1924 1616 1737 1658 1188 1373 898 862 799 801 678 849 1041 1221 1477 1630 1682 1788 1753 1791 1373 1252 1286 1362 1026 1401 1348 944 1219 1393 1107 919 1333 1738 1954 1858
1456 1515 1203 796 1354 1241 1934 1924 1820 1341 1534 1501 1314 616 605 640 809 817 891 943 1182 1167 1293 1613 1920 2233 2398 2310 1950 1374 1272 987 707 402 200 814 1429 1528 1034 814 1194 1714 1875
1533 1489 1298 1180 1092 702 1567 1831 1727 1534 1382 1155 1257 1288 788 708 906 870 985 1012 1037 1244 1462 1509 1788 2098 2077 2173 2087 1771 1056 560 204 30 79 326 695 1414 1577 724 877 1173 1721
1293 1327 1196 961 885 264 1155 1628 1859 1633 1579 1275 959 822 971 1318 1174 884 913 866 870 1036 1156 1269 1257 1399 1495 1529 1076 716 329 163 157 6 154 596 1035 1189 1506 802 644 545 1271
1338 1374 1210 969 576 385 1156 1581 1548 1604 1296 824 832 826 714 566 551 882 727 842 569 452 562 893 1021 945 956 636 739 542 27 15 6 21 355 582 815 1299 1018 735 242 45 496
950 1181 1321 822 864 761 718 1434 1587 1633 1442 806 694 716 756 579 593 498 601 738 565 740 462 327 455 702 852 663 369 134 193 197 154 231 439 407 559 964 872 911 501 92 104
576 777 812 733 820 1030 734 543 1183 1427 1655 1386 968 983 721 124 375 852 825 861 677 720 507 975 644 611 590 736 835 391 568 463 248 337 310 202 319 420 695 655 521 480 158
739 800 804 778 775 929 802 388 569 1235 1153 1441 1204 1190 1425 689 592 997 892 646 753 907 826 746 918 627 796 1033 953 892 1682 662 513 448 313 207 254 248 355 397 377 437 432
715 633 573 735 996 1084 804 708 590 875 960 1034 913 682 1205 1495 727 808 700 495 565 270 384 640 585 751 826 1274 974 1744 1417 458 462 502 247 298 452 518 482 435 403 279 195
394 696 554 534 865 1088 1155 932 959 1215 1085 979 801 424 541 1135 1141 1065 1016 805 683 682 348 591 564 832 786 1047 880 1165 1036 693 358 334 172 425 457 330 332 275 154 55 70
560 409 388 450 528 677 733 788 671 835 931 943 801 611 696 1049 764 783 996 985 801 782 451 255 681 522 735 1120 1371 1071 790 991 849 412 182 371 28 0 68 64 50 11 3
509 545 394 260 254 422 412 599 700 721 587 559 500 627 710 632 737 696 834 837 795 856 597 659 618 583 807 828 681 857 752 600 861 359 233 266 0 0 0 0 0 0 0
396 298 192 114 296 327 243 614 802 862 673 686 737 824 731 760 625 347 498 638 735 727 720 676 701 782 610 319 395 835 1200 1074 250 431 397 134 0 0 0 0 0 0 0
256 352 391 377 326 434 991 913 550 566 552 642 486 782 950 834 668 668 297 483 536 360 402 548 665 596 438 690 692 700 486 612 245 784 426 0 0 0 0 0 0 0 0
171 190 223 253 511 488 373 290 368 391 377 406 598 487 604 106 17 58 171 289 146 113 102 133 181 405 434 301 375 581 218 206 625 122 861 77 0 0 0 0 0 0 0
51 163 132 22 20 22 0 0 0 60 75 77 247 738 124 0 0 0 0 1 30 172 172 241 197 157 306 419 330 17 90 185 260 0 456 15 0 0 0 0 0 0 0
58 94 60 2 0 0 0 0 0 0 0 59 192 843 47 0 0 0 0 0 0 0 5 453 470 339 44 89 0 3 227 290 317 0 6 144 0 0 0 0 0 0 0
56 43 1 0 0 0 0 0 0 0 5 0 0 62 10 0 0 0 0 0 0 0 0 0 0 0 0 0 0 0 67 117 0 0 0 35 0 0 5 0 0 0 0
36 4 0 0 0 0 0 0 1 0 0 0 0 0 0 0 0 0 0 0 0 0 0 0 0 0 0 0 0 0 0 0 46 0 0 0 0 0 0 0 0 0 0
4 1 0 0 0 0 0 0 0 1 0 0 0 0 0 0 0 0 0 0 0 0 0 0 0 0 0 0 0 0 0 0 0 0 0 0 0 0 0 0 0 0 0

GFSMA_con_mlcape_120.txt.gz
CAPE
500 533 794 782 977 1036 1108 1227 1074 1115 851 506 639 409 168 185 128 255 305 54 319 711 925 972 1024 1178 1399 1649 1878 2115 2365 2591 2566 2453 2453 2440 2294 2161 2144 2232 2225 2343 2470
991 807 1100 995 1197 1360 1218 1169 1184 1001 515 491 716 497 236 199 219 325 452 377 240 475 529 739 949 1151 1353 1526 1751 1945 2205 2279 2264 2247 2321 2338 2367 2269 2121 2042 2059 1940 2093
1379 1651 1013 1130 1099 1385 2143 1572 1330 957 498 419 603 753 649 518 329 361 467 524 463 192 325 590 796 951 1068 1236 1591 1886 2037 2059 2056 1998 2051 2155 2222 2133 1970 2110 2044 1813 1626
1706 1699 1127 1138 1513 2034 1523 1058 804 558 620 540 455 392 604 690 905 833 764 891 991 883 636 461 468 559 746 1086 1494 1844 1815 1781 1746 1626 1698 1738 1582 1632 1783 2161 2149 1948 1659
1624 1570 1065 1495 2445 2096 2086 1585 1125 829 582 499 434 636 620 647 956 772 1188 1262 1221 1150 1236 957 735 637 733 958 1408 1557 1466 1539 1465 1618 1623 1515 1535 1383 1527 2010 2169 2103 1774
1754 2071 1284 1780 2352 1872 1891 1865 1811 1533 1138 867 474 687 771 646 859 1141 1201 1076 1457 1722 1519 1925 1980 1815 1348 1098 1096 1317 1460 1355 1515 1588 995 828 1363 1539 1303 1653 2024 2107 1922
2165 2287 1239 1443 2013 1949 2227 2274 1993 2091 1471 1724 1028 835 870 842 755 818 952 1007 1211 1283 1368 1838 2264 2153 2080 1829 1758 1270 1420 1037 1007 634 532 330 1015 1524 1624 1032 1522 1899 1953
1934 1934 1929 1322 2101 1562 2574 2442 2343 1345 1332 1740 1168 719 395 443 366 702 1051 1157 1273 1362 1384 1728 2119 2550 2800 2446 2566 1521 1377 1094 936 532 91 236 318 846 1414 1392 1018 1472 1775
1729 2096 1931 1483 1883 1423 1484 2543 2377 2074 1163 1767 2258 1458 496 492 724 898 1219 1221 1680 1457 1576 1800 1993 2378 2592 2316 2411 2229 1296 671 273 76 193 422 829 1109 1276 1509 875 837 1382
1433 1749 1675 1725 1860 1200 1647 1783 1946 2443 1812 1328 1437 1356 1869 1719 860 768 1037 1080 1281 1326 1476 1447 1414 1534 1838 1628 1296 989 335 118 30 133 82 709 908 1074 1201 1163 761 379 809
1493 1178 1803 1822 1582 861 1365 2144 2099 2551 1772 1228 1021 1303 1471 1106 1252 919 598 928 887 944 766 947 1113 1085 1348 1170 1067 738 71 116 32 56 407 491 609 849 1106 1051 831 207 307
903 1459 1553 1796 1526 1332 1215 1513 2178 2070 2238 1847 1361 1219 979 829 719 756 645 809 900 805 787 703 700 939 1106 1071 724 377 389 333 283 224 335 192 352 609 986 955 931 538 155
780 1000 1336 1407 1163 1504 1444 1238 1937 1973 1858 1737 1900 1302 1223 765 714 925 778 616 646 678 659 932 927 1115 1027 1236 1266 832 1199 621 345 287 195 198 275 275 394 652 762 728 590
538 560 781 936 991 1378 1326 1399 866 1002 1022 1369 1679 1763 1023 1098 966 1035 964 780 386 429 617 1022 764 786 1077 1227 1263 1377 1366 431 373 356 164 284 387 397 382 332 306 293 317
831 920 1044 966 803 929 920 1027 734 876 1229 1401 1063 1410 1070 510 831 647 715 631 418 80 15 464 274 1195 899 782 1127 1263 1351 341 257 205 155 329 241 134 130 69 58 88 191
1046 1095 1272 1193 1112 1137 1211 1383 889 1083 1164 935 745 820 1144 490 829 787 635 505 478 367 203 152 319 451 1041 672 591 1146 1220 820 554 250 147 201 0 12 19 10 1 5 3
1346 1348 1467 1385 1280 1195 1257 1466 1302 931 1174 1006 994 1022 953 1117 742 380 345 394 368 415 376 166 178 444 905 847 817 883 572 784 832 187 160 0 0 0 0 0 0 0 0
1285 1472 1435 1320 1095 1185 1179 1304 1193 794 902 896 735 755 727 585 804 1047 527 528 509 759 507 378 380 378 847 891 857 1040 897 454 693 142 40 0 0 0 0 0 0 0 0
1259 1047 1035 1047 1032 991 987 1003 1015 861 919 847 682 768 739 772 756 813 642 598 539 637 776 788 504 668 786 661 610 862 1265 1143 547 190 0 0 0 0 0 0 0 0 0
1158 1093 1151 1114 951 760 830 1024 925 811 804 757 872 788 749 782 909 1010 719 938 196 548 681 434 668 322 582 689 711 590 369 601 388 577 47 15 0 0 0 0 0 0 0
760 725 735 734 961 1010 788 1152 1114 939 797 844 925 1012 526 579 175 323 501 247 132 490 337 260 399 259 133 114 325 302 298 322 1027 90 1104 2 0 0 0 0 0 0 0
465 476 461 596 622 340 0 0 0 155 557 661 651 708 967 17 1 0 2 7 54 140 187 174 383 491 453 553 645 215 164 256 572 0 1406 106 0 0 0 0 0 0 0
290 240 375 387 110 12 0 0 0 0 84 181 500 731 947 133 58 174 0 0 0 0 2 87 566 793 574 565 84 165 552 553 599 0 80 124 82 0 0 0 0 0 0
103 116 141 150 52 0 0 0 0 0 27 213 112 498 790 84 0 0 0 0 0 0 0 0 44 0 0 0 5 93 266 341 56 0 0 199 1 28 0 0 0 0 0
91 12 0 0 0 0 0 0 0 12 10 0 0 0 0 0 0 0 0 61 0 0 0 0 0 0 0 0 0 0 22 4 235 129 0 0 0 0 1 0 0 0 0
0 0 0 0 0 0 0 0 1 93 109 82 1 0 0 0 0 0 0 0 0 0 0 0 0 0 0 0 0 0 0 0 1 39 0 0 0 0 0 13 0 0 0